[[{"header":{"parameterUnit":"m.s-1","parameterCategory":1,"la1":30.6,"la2":29.2853,"lo1":-89.7004,"lo2":-87.6739,"dy":0.0162,"dx":0.0183,"nx":112,"ny":82,"refTime":"2026-03-31T00:00:00:Z","depth":0,"parameterNumber":2,"parameterNumberName":"U-component_of_WINDS"},"data":[0.0,0.0,0.0,0.0,0.0,0.0,0.0,0.0,0.0,0.0,0.0,0.0,0.0,0.0,0.0,0.0,0.0,0.0,0.0,0.0,0.0,0.0,0.0,0.0,0.0,0.0,0.0,0.0,0.0,0.0,0.0,0.0,0.0,0.0,0.0,0.0,0.0,0.0,0.0,0.0,0.0,0.0,0.0,0.0,0.0,0.0,0.0,0.0,0.0,0.0,0.0,0.0,0.0,0.0,0.0,0.0,0.0,0.0,0.0,0.0,0.0,0.0,0.0,0.0,0.0,0.0,0.0,0.0,0.0,0.0,0.0,0.0,0.0,0.0,0.0,0.0,0.0,0.0,0.0,0.0,0.0,0.0,0.0,0.0,0.0,0.0,0.0,0.0,0.0,0.0,0.0,-2.0112,-2.3226,-2.4389,-2.2646,-2.0617,-1.8294,-1.551,0.0,0.0,0.0,0.0,0.0,0.0,0.0,0.0,0.0,0.0,0.0,0.0,0.0,0.0,0.0,0.0,0.0,0.0,0.0,0.0,0.0,0.0,0.0,0.0,0.0,0.0,0.0,0.0,0.0,0.0,0.0,0.0,0.0,0.0,0.0,0.0,0.0,0.0,0.0,0.0,0.0,0.0,0.0,0.0,0.0,0.0,0.0,0.0,0.0,0.0,0.0,0.0,0.0,0.0,0.0,0.0,0.0,0.0,0.0,0.0,0.0,0.0,0.0,0.0,0.0,0.0,0.0,0.0,0.0,0.0,0.0,0.0,0.0,0.0,0.0,0.0,0.0,0.0,0.0,0.0,0.0,0.0,0.0,0.0,0.0,0.0,0.0,0.0,0.0,0.0,0.0,0.0,0.0,0.0,0.0,0.0,0.0,0.0,0.0,0.0,0.0,0.0,0.0,0.0,-1.8155,-2.2874,-2.5091,-2.5361,-2.3159,-2.1252,-1.885,-1.5756,0.0,0.0,0.0,0.0,0.0,0.0,0.0,0.0,0.0,0.0,0.0,0.0,0.0,0.0,0.0,0.0,0.0,0.0,0.0,0.0,0.0,0.0,0.0,0.0,0.0,0.0,0.0,0.0,0.0,0.0,0.0,0.0,0.0,0.0,0.0,0.0,0.0,0.0,0.0,0.0,0.0,0.0,0.0,0.0,0.0,0.0,0.0,0.0,0.0,0.0,0.0,0.0,0.0,0.0,0.0,0.0,0.0,0.0,0.0,0.0,0.0,0.0,0.0,0.0,0.0,0.0,0.0,0.0,0.0,0.0,0.0,0.0,0.0,0.0,0.0,0.0,0.0,0.0,0.0,0.0,0.0,0.0,0.0,0.0,0.0,0.0,0.0,0.0,0.0,0.0,0.0,0.0,0.0,0.0,0.0,0.0,0.0,0.0,0.0,0.0,0.0,0.0,0.0,-1.8105,-2.0863,-2.4104,-2.5661,-2.5676,-2.366,-2.1542,-1.8973,-1.5864,-1.2605,0.0,0.0,0.0,0.0,0.0,0.0,0.0,0.0,0.0,0.0,0.0,0.0,0.0,0.0,0.0,0.0,0.0,0.0,0.0,0.0,0.0,0.0,0.0,0.0,0.0,0.0,0.0,0.0,0.0,0.0,0.0,0.0,0.0,0.0,0.0,0.0,0.0,0.0,0.0,0.0,0.0,0.0,0.0,0.0,0.0,0.0,0.0,0.0,0.0,0.0,0.0,0.0,0.0,0.0,0.0,0.0,0.0,0.0,0.0,0.0,0.0,0.0,0.0,0.0,0.0,0.0,0.0,0.0,0.0,0.0,0.0,0.0,0.0,0.0,0.0,0.0,0.0,0.0,0.0,0.0,0.0,0.0,0.0,0.0,0.0,0.0,0.0,0.0,0.0,0.0,0.0,0.0,0.0,0.0,0.0,0.0,0.0,0.0,0.0,0.0,0.0,0.0,-2.124,-2.3301,-2.48,-2.5921,-2.5701,-2.3805,-2.1495,-1.8889,-1.5868,-1.2576,0.0,0.0,0.0,0.0,0.0,0.0,0.0,0.0,0.0,0.0,0.0,0.0,0.0,0.0,0.0,0.0,0.0,0.0,0.0,0.0,0.0,0.0,0.0,0.0,0.0,0.0,0.0,0.0,0.0,0.0,0.0,0.0,0.0,0.0,0.0,0.0,0.0,0.0,0.0,0.0,0.0,0.0,0.0,0.0,0.0,0.0,0.0,0.0,0.0,0.0,0.0,0.0,0.0,0.0,0.0,0.0,0.0,0.0,0.0,0.0,0.0,0.0,0.0,0.0,0.0,0.0,0.0,0.0,0.0,0.0,0.0,0.0,0.0,0.0,0.0,0.0,0.0,0.0,0.0,0.0,0.0,0.0,0.0,0.0,0.0,0.0,0.0,0.0,0.0,0.0,0.0,0.0,0.0,0.0,0.0,0.0,0.0,0.0,0.0,0.0,0.0,0.0,-2.2171,-2.4305,-2.5435,-2.6122,-2.5585,-2.3353,-2.107,-1.8561,-1.5773,-1.229,0.0,0.0,0.0,0.0,0.0,0.0,0.0,0.0,0.0,0.0,0.0,0.0,0.0,0.0,0.0,0.0,0.0,0.0,0.0,0.0,0.0,0.0,0.0,0.0,0.0,0.0,0.0,0.0,0.0,0.0,0.0,0.0,0.0,0.0,0.0,0.0,0.0,0.0,0.0,0.0,0.0,0.0,0.0,0.0,0.0,0.0,0.0,0.0,0.0,0.0,0.0,0.0,0.0,0.0,0.0,0.0,0.0,0.0,0.0,0.0,0.0,0.0,0.0,0.0,0.0,0.0,0.0,0.0,0.0,0.0,0.0,0.0,0.0,0.0,0.0,0.0,0.0,0.0,0.0,0.0,0.0,0.0,0.0,0.0,0.0,0.0,0.0,0.0,0.0,0.0,0.0,0.0,0.0,0.0,0.0,0.0,0.0,0.0,0.0,0.0,0.0,0.0,-2.2472,-2.4342,0.0,-2.5841,-2.5301,-2.3214,-2.0757,-1.8197,-1.5514,0.0,0.0,0.0,0.0,0.0,0.0,0.0,0.0,0.0,0.0,0.0,0.0,0.0,0.0,0.0,0.0,0.0,0.0,0.0,0.0,0.0,0.0,0.0,0.0,0.0,0.0,0.0,0.0,0.0,0.0,0.0,0.0,0.0,0.0,0.0,0.0,0.0,0.0,0.0,0.0,0.0,0.0,0.0,0.0,0.0,0.0,0.0,0.0,0.0,0.0,0.0,0.0,0.0,0.0,0.0,0.0,0.0,0.0,0.0,0.0,0.0,0.0,0.0,0.0,0.0,0.0,0.0,0.0,0.0,0.0,0.0,0.0,0.0,0.0,0.0,0.0,0.0,0.0,0.0,0.0,0.0,0.0,0.0,0.0,0.0,0.0,0.0,0.0,0.0,0.0,0.0,0.0,0.0,0.0,0.0,0.0,0.0,0.0,0.0,0.0,0.0,0.0,-2.0515,-2.2874,-2.4586,0.0,-2.5561,-2.4856,-2.2935,-2.0452,-1.7955,-1.5431,0.0,0.0,0.0,0.0,0.0,0.0,0.0,0.0,0.0,0.0,0.0,0.0,0.0,0.0,0.0,0.0,0.0,0.0,0.0,0.0,0.0,0.0,0.0,0.0,0.0,0.0,0.0,0.0,0.0,0.0,0.0,0.0,0.0,0.0,0.0,0.0,0.0,0.0,0.0,0.0,0.0,0.0,0.0,0.0,0.0,0.0,0.0,0.0,0.0,0.0,0.0,0.0,0.0,0.0,0.0,0.0,0.0,0.0,0.0,0.0,0.0,0.0,0.0,0.0,0.0,0.0,0.0,0.0,0.0,0.0,0.0,0.0,0.0,0.0,0.0,0.0,0.0,0.0,0.0,0.0,0.0,0.0,0.0,0.0,0.0,0.0,0.0,0.0,0.0,0.0,0.0,0.0,0.0,0.0,0.0,0.0,0.0,0.0,0.0,0.0,0.0,0.0,-2.1066,-2.3427,-2.507,-2.5787,-2.5359,-2.4272,-2.2457,-2.0151,-1.788,0.0,0.0,0.0,0.0,0.0,0.0,0.0,0.0,0.0,0.0,0.0,0.0,0.0,0.0,0.0,0.0,0.0,0.0,0.0,0.0,0.0,0.0,0.0,0.0,0.0,0.0,0.0,0.0,0.0,0.0,0.0,0.0,0.0,0.0,0.0,0.0,0.0,0.0,0.0,0.0,0.0,0.0,0.0,0.0,0.0,0.0,0.0,0.0,0.0,0.0,0.0,0.0,0.0,0.0,0.0,0.0,0.0,0.0,0.0,0.0,0.0,0.0,0.0,0.0,0.0,0.0,0.0,0.0,0.0,0.0,0.0,0.0,0.0,0.0,0.0,0.0,0.0,0.0,0.0,0.0,0.0,0.0,0.0,0.0,0.0,0.0,0.0,0.0,0.0,0.0,0.0,0.0,0.0,0.0,0.0,0.0,0.0,0.0,0.0,0.0,0.0,0.0,0.0,-2.0877,-2.3096,-2.4548,-2.5003,-2.4564,-2.3591,-2.1998,-2.0033,-1.7945,-1.5785,0.0,0.0,0.0,0.0,0.0,0.0,0.0,0.0,0.0,0.0,0.0,0.0,0.0,0.0,0.0,0.0,0.0,0.0,0.0,0.0,0.0,0.0,0.0,0.0,0.0,0.0,0.0,0.0,0.0,0.0,0.0,0.0,0.0,0.0,0.0,0.0,0.0,0.0,0.0,0.0,0.0,0.0,0.0,0.0,0.0,0.0,0.0,0.0,0.0,0.0,0.0,0.0,0.0,0.0,0.0,0.0,0.0,0.0,0.0,0.0,0.0,0.0,0.0,0.0,0.0,0.0,0.0,0.0,0.0,0.0,0.0,0.0,0.0,0.0,0.0,0.0,0.0,0.0,0.0,0.0,0.0,0.0,0.0,0.0,0.0,0.0,0.0,0.0,0.0,0.0,0.0,0.0,0.0,0.0,0.0,0.0,0.0,0.0,0.0,0.0,0.0,0.0,-2.0683,-2.2694,-2.3986,-2.434,-2.3635,-2.265,-2.1429,-1.9935,-1.8128,-1.5999,0.0,0.0,0.0,0.0,0.0,0.0,0.0,0.0,0.0,0.0,0.0,0.0,0.0,0.0,0.0,0.0,0.0,0.0,0.0,0.0,0.0,0.0,0.0,0.0,0.0,0.0,0.0,0.0,0.0,0.0,0.0,0.0,0.0,0.0,0.0,0.0,0.0,0.0,0.0,0.0,0.0,0.0,0.0,0.0,0.0,0.0,0.0,0.0,0.0,0.0,0.0,0.0,0.0,0.0,0.0,0.0,0.0,0.0,0.0,0.0,0.0,0.0,0.0,0.0,0.0,0.0,0.0,0.0,0.0,0.0,0.0,0.0,0.0,0.0,0.0,0.0,0.0,0.0,0.0,0.0,0.0,0.0,0.0,0.0,0.0,0.0,0.0,0.0,0.0,0.0,0.0,0.0,0.0,0.0,0.0,0.0,0.0,0.0,0.0,0.0,0.0,0.0,-2.0615,-2.2368,-2.35,-2.3859,-2.275,-2.1682,-2.0917,-1.9899,-1.8433,-1.6339,0.0,0.0,0.0,0.0,0.0,0.0,0.0,0.0,0.0,0.0,0.0,0.0,0.0,0.0,0.0,0.0,0.0,0.0,0.0,0.0,0.0,0.0,0.0,0.0,0.0,0.0,0.0,0.0,0.0,0.0,0.0,0.0,0.0,0.0,0.0,0.0,0.0,0.0,0.0,0.0,0.0,0.0,0.0,0.0,0.0,0.0,0.0,0.0,0.0,0.0,0.0,0.0,0.0,0.0,0.0,0.0,0.0,0.0,0.0,0.0,-1.7926,0.0,0.0,0.0,0.0,0.0,0.0,0.0,0.0,0.0,0.0,0.0,0.0,0.0,0.0,0.0,0.0,0.0,0.0,0.0,0.0,0.0,0.0,0.0,0.0,0.0,0.0,0.0,0.0,0.0,0.0,0.0,0.0,0.0,0.0,0.0,0.0,0.0,0.0,0.0,0.0,0.0,-2.128,-2.3007,-2.3921,-2.3708,-2.2718,-2.1832,-2.1179,-1.9987,-1.8672,-1.722,-1.4668,0.0,0.0,0.0,0.0,0.0,0.0,0.0,0.0,0.0,0.0,0.0,0.0,0.0,0.0,0.0,0.0,0.0,0.0,0.0,0.0,0.0,0.0,0.0,0.0,0.0,0.0,0.0,0.0,0.0,0.0,0.0,0.0,0.0,0.0,0.0,0.0,0.0,0.0,0.0,0.0,0.0,0.0,0.0,0.0,0.0,0.0,0.0,0.0,0.0,0.0,0.0,0.0,0.0,0.0,0.0,0.0,0.0,0.0,0.0,0.0,-1.9685,0.0,0.0,0.0,0.0,0.0,0.0,0.0,0.0,0.0,0.0,0.0,0.0,0.0,0.0,0.0,0.0,0.0,0.0,0.0,0.0,0.0,0.0,0.0,0.0,0.0,0.0,0.0,0.0,0.0,0.0,0.0,0.0,0.0,0.0,0.0,0.0,0.0,0.0,0.0,0.0,-2.1481,-2.3207,-2.4073,-2.3781,-2.2734,-2.1769,-2.1072,-2.0143,-1.8965,-1.748,-1.5527,0.0,0.0,0.0,0.0,0.0,0.0,0.0,0.0,0.0,0.0,0.0,0.0,0.0,0.0,0.0,0.0,0.0,0.0,0.0,0.0,0.0,0.0,0.0,0.0,0.0,0.0,0.0,0.0,0.0,0.0,0.0,0.0,0.0,0.0,0.0,0.0,0.0,0.0,0.0,0.0,0.0,0.0,0.0,0.0,0.0,0.0,0.0,0.0,0.0,0.0,0.0,0.0,0.0,-2.7795,-2.8334,-2.8334,-2.8334,-2.8499,-2.8674,-2.5979,-2.3979,-2.2498,-2.2397,0.0,0.0,0.0,0.0,0.0,0.0,0.0,0.0,0.0,0.0,0.0,0.0,0.0,0.0,0.0,0.0,0.0,0.0,0.0,0.0,0.0,0.0,0.0,0.0,-2.3276,-2.3195,0.0,0.0,0.0,0.0,0.0,0.0,0.0,0.0,0.0,0.0,0.0,0.0,-2.1957,-2.3643,-2.4496,-2.4288,-2.3123,-2.2025,-2.1176,-2.0436,-1.9336,-1.7695,-1.6289,-1.4824,0.0,0.0,0.0,0.0,0.0,0.0,0.0,0.0,0.0,0.0,0.0,0.0,0.0,0.0,0.0,0.0,0.0,0.0,0.0,0.0,0.0,0.0,0.0,0.0,0.0,0.0,0.0,0.0,0.0,0.0,0.0,0.0,-1.7677,-1.7752,0.0,0.0,0.0,0.0,0.0,0.0,0.0,0.0,0.0,0.0,0.0,0.0,0.0,-2.6565,-2.811,-2.9804,-3.0859,-3.1361,-3.1989,-3.2357,-3.2357,-3.2357,-3.2089,-3.1662,-3.1738,0.0,-2.649,-2.6021,0.0,0.0,0.0,0.0,0.0,0.0,0.0,0.0,0.0,0.0,0.0,0.0,0.0,0.0,0.0,0.0,0.0,0.0,0.0,0.0,0.0,0.0,-2.6615,-2.654,-2.6992,-2.7193,0.0,-2.3376,-2.0639,-1.9585,-1.843,0.0,0.0,0.0,0.0,0.0,0.0,0.0,-2.3821,-2.5281,-2.602,-2.5759,-2.457,-2.3399,-2.2353,-2.1189,-1.9902,-1.852,-1.6894,-1.5576,-1.4598,-1.2891,0.0,0.0,0.0,0.0,0.0,0.0,0.0,0.0,0.0,0.0,0.0,0.0,0.0,0.0,0.0,0.0,0.0,0.0,0.0,0.0,0.0,0.0,0.0,0.0,0.0,0.0,0.0,0.0,0.0,-1.8253,-1.9736,-2.0012,-2.0263,-2.0313,0.0,0.0,0.0,0.0,0.0,0.0,0.0,0.0,0.0,-2.767,-2.9327,-3.0834,-3.2123,-3.3822,-3.4776,-3.5002,-3.5579,-3.5855,-3.5855,-3.5855,-3.5705,-3.5479,-3.573,-3.47,-3.2641,-2.9905,-2.7821,-2.6113,0.0,0.0,0.0,0.0,-2.3985,-2.4757,-2.5636,-2.5209,0.0,-2.4312,0.0,0.0,0.0,0.0,0.0,0.0,0.0,0.0,0.0,0.0,-2.8699,-2.8699,-2.9126,-2.9277,-2.8398,-2.6866,-2.5059,0.0,-2.1995,-2.084,-1.8856,0.0,0.0,0.0,0.0,-2.2443,-2.4803,-2.6412,-2.7127,-2.6562,-2.5354,-2.4211,-2.3329,-2.1809,-2.0586,-1.9766,-1.834,-1.7129,-1.632,-1.4805,-1.3379,0.0,0.0,0.0,0.0,0.0,0.0,0.0,0.0,0.0,0.0,0.0,0.0,0.0,0.0,0.0,0.0,0.0,0.0,0.0,0.0,0.0,0.0,0.0,0.0,0.0,0.0,0.0,0.0,-2.0641,-2.2175,-2.2728,-2.2904,-2.2924,0.0,0.0,0.0,0.0,0.0,0.0,-2.7706,-2.8775,-3.008,-3.1612,-3.3119,-3.4374,-3.5353,-3.686,-3.7613,-3.7613,-3.8165,-3.8442,-3.8442,-3.8442,-3.8366,-3.8241,-3.8241,-3.7914,-3.7111,-3.3545,-3.111,-2.9428,-2.7745,-2.6841,-2.654,-2.6791,-2.7318,-2.8108,-2.9051,-2.875,-2.7982,-2.7982,-2.6339,-2.4324,-2.4048,0.0,0.0,0.0,0.0,-2.6013,-2.7519,-2.9151,-3.0407,-3.0407,-3.0834,-3.0984,-2.9941,-2.974,-2.8888,0.0,-2.5008,-2.3954,-2.1898,0.0,0.0,0.0,0.0,-2.3703,-2.5762,-2.7369,-2.8052,-2.7462,-2.6287,-2.5182,-2.4237,-2.2533,-2.1312,-2.0722,-1.9392,-1.8266,-1.7578,-1.6269,-1.4883,-1.3424,0.0,0.0,0.0,0.0,0.0,0.0,0.0,0.0,0.0,0.0,0.0,0.0,0.0,0.0,0.0,0.0,0.0,0.0,0.0,0.0,0.0,0.0,0.0,0.0,0.0,0.0,0.0,0.0,0.0,-2.6172,-2.67,0.0,0.0,0.0,0.0,-2.6992,-2.8599,-3.0005,-3.1085,-3.2215,-3.3345,-3.4474,-3.5604,-3.6531,-3.7061,-3.8265,-3.8844,-3.8844,-3.9346,-3.9597,-3.9597,-3.9597,-3.932,-3.8818,-3.8818,-3.8492,-3.7864,-3.6631,-3.5102,-3.3445,-3.1763,-3.1085,-3.1009,-3.0532,-3.1035,-3.2014,-3.2616,-3.2441,-3.1913,-3.1913,-3.008,-2.767,-2.665,-2.5536,0.0,0.0,-2.7092,-2.8197,-2.9352,-3.0859,-3.2089,-3.2089,-3.2541,-3.2792,-3.219,-3.2039,-3.1085,0.0,-2.6751,-2.582,-2.413,0.0,-2.2895,-2.297,-2.3948,-2.531,-2.7027,-2.8197,-2.8811,-2.8709,-2.7676,-2.6481,-2.5242,-2.3472,-2.201,-2.0955,-1.9465,-1.8403,-1.8008,-1.6719,-1.5635,-1.4735,-1.2983,0.0,0.0,0.0,0.0,0.0,0.0,0.0,0.0,0.0,0.0,0.0,0.0,0.0,0.0,0.0,0.0,0.0,0.0,0.0,0.0,0.0,0.0,0.0,0.0,0.0,0.0,0.0,0.0,-2.9478,-3.0497,0.0,-3.0773,-3.0206,-3.0457,-3.1964,-3.3294,-3.4349,-3.5077,-3.6182,-3.6985,-3.7387,-3.8115,-3.8592,-3.8793,-3.9195,-3.9396,-3.9396,-3.9597,-3.9697,-3.9697,-3.9697,-3.9597,-3.9396,-3.9396,-3.9295,-3.9069,-3.8668,-3.7312,-3.5429,-3.4405,-3.3847,-3.352,-3.3319,-3.3495,-3.3847,-3.4073,-3.3771,-3.3169,-3.2441,-3.1311,-3.008,-2.9352,-2.8624,-2.8172,-2.8925,-2.9654,-3.0407,-3.116,-3.2064,-3.2767,-3.2767,-3.2918,-3.2817,-3.1888,-3.1687,-3.1135,-2.9252,-2.9026,-2.8599,-2.6942,-2.6163,-2.5812,-2.5812,-2.6138,-2.6866,-2.8172,-2.9001,-2.9361,-2.9028,-2.8251,-2.7331,-2.6318,-2.4352,-2.2733,-2.1784,-2.0064,-1.8867,-1.8403,-1.7715,-1.6777,-1.5654,-1.418,-1.273,0.0,0.0,0.0,0.0,0.0,0.0,0.0,0.0,0.0,0.0,0.0,0.0,0.0,0.0,0.0,0.0,0.0,0.0,0.0,0.0,0.0,0.0,0.0,0.0,0.0,0.0,-3.0859,-3.234,-3.3495,-3.4123,-3.3922,-3.3395,-3.3671,-3.5152,-3.5956,-3.6807,-3.7688,-3.8467,-3.8994,-3.9145,-3.9697,-3.9973,-3.9973,-4.0149,-4.0249,-4.0249,-4.0249,-4.0249,-4.0249,-4.0249,-4.0249,-4.0249,-4.0049,-3.9973,-3.9948,-3.9772,-3.8843,-3.7462,-3.6885,-3.6332,-3.5805,-3.5629,-3.5554,-3.5529,-3.5353,-3.5027,-3.4575,-3.3646,-3.3093,-3.2692,-3.2164,-3.1612,-3.126,-3.1612,-3.1838,-3.2039,-3.2416,-3.2792,-3.3111,-3.3111,-3.3111,-3.286,-3.1863,-3.1512,-3.1185,-3.0457,-3.0482,-3.0131,-2.8649,-2.8247,-2.7996,-2.762,-2.772,-2.8097,-2.8787,-2.9428,-2.9624,-2.9131,-2.853,-2.7747,-2.6794,-2.4743,-2.3135,-2.2165,-2.0339,-1.9102,-1.8617,-1.8325,-1.7676,-1.6555,-1.4941,-1.3281,-1.1606,0.0,0.0,0.0,0.0,0.0,0.0,0.0,0.0,0.0,0.0,0.0,0.0,0.0,0.0,0.0,0.0,0.0,0.0,0.0,0.0,0.0,0.0,0.0,-2.7971,-3.106,-3.3571,-3.47,-3.5805,-3.6257,-3.5683,-3.5132,-3.5303,-3.643,-3.6505,-3.7209,-3.8869,-3.8919,-3.912,-3.9672,-4.0199,-4.0501,-4.0526,-4.1,-4.1275,-4.1275,-4.1275,-4.1275,-4.1275,-4.1275,-4.1275,-4.125,-4.0752,-4.0526,-4.0475,-3.9923,-3.9697,-3.9647,-3.9145,-3.8542,-3.799,-3.7437,-3.7236,-3.7136,-3.6656,-3.6455,-3.6355,-3.5734,-3.5533,-3.5408,-3.4856,-3.4349,-3.3897,-3.3897,-3.3495,-3.3111,-3.3111,-3.3111,-3.3111,-3.3111,-3.3111,-3.2918,-3.234,-3.1788,-3.1386,-3.1386,-3.0984,-3.0242,-2.9164,-2.9478,-2.9478,-2.8373,-2.8674,0.0,-2.8938,-2.9478,-2.9649,-2.9131,-2.8578,-2.7713,-2.6588,-2.4684,-2.3116,-2.1947,-2.0224,-1.9062,-1.8598,-1.8578,-1.8223,-1.7435,-1.5245,-1.334,-1.1685,0.0,0.0,0.0,0.0,0.0,0.0,0.0,0.0,0.0,0.0,0.0,0.0,0.0,0.0,0.0,0.0,0.0,0.0,0.0,0.0,0.0,-2.7519,-2.9528,-3.0357,-3.3018,-3.5382,-3.6935,-3.809,-3.8718,-3.8567,-3.8065,-3.8015,-3.8718,-3.8417,-3.8567,-3.9421,-3.9094,-3.912,-3.9672,-3.9848,-4.0124,-4.0526,-4.1,-4.1275,-4.1275,-4.1275,-4.1275,-4.1275,-4.1275,-4.1275,-4.125,-4.0752,-4.0526,-4.0475,-3.9923,-3.9697,-3.9672,-3.9521,-3.9371,-3.917,-3.8617,-3.814,-3.7764,-3.7613,-3.7287,-3.6935,-3.6784,-3.6182,-3.5483,-3.5307,-3.4605,-3.3897,-3.3897,-3.3495,-3.3111,-3.3111,-3.3111,-3.3111,-3.3111,-3.3111,-3.2918,-3.234,-3.1788,-3.1386,-3.1386,-3.1286,-3.1085,-3.0758,-3.1185,-3.1311,-3.0608,-3.0608,0.0,-3.0167,-3.0281,-3.0074,-2.918,-2.853,-2.7646,-2.6376,-2.4588,-2.2882,-2.1343,-1.9684,-1.8598,-1.8169,-1.8149,-1.793,-1.7402,-1.5859,-1.4484,0.0,0.0,0.0,0.0,0.0,0.0,0.0,0.0,0.0,0.0,0.0,0.0,0.0,0.0,0.0,0.0,0.0,0.0,0.0,0.0,0.0,0.0,-3.0331,-3.2416,-3.3646,-3.5403,-3.7111,-3.8542,-3.9496,-4.0049,-4.0049,-3.9546,-3.9346,-3.9672,-3.9396,-3.9346,-3.9672,-3.9622,-3.9697,-4.0023,-4.0249,-4.0651,-4.1204,-4.1756,-4.2032,-4.2032,-4.2032,-4.2032,-4.2032,-4.2032,-4.2032,-4.2007,-4.1455,-4.1204,-4.1153,-4.0601,-4.0249,0.0,0.0,0.0,0.0,0.0,-3.8517,-3.8015,-3.8015,-3.7638,-3.7186,-3.7186,-3.6584,-3.5855,-3.5583,-3.4731,-3.3847,-3.3621,-3.2993,-3.2416,-3.2641,-3.2717,-3.2767,-3.3061,-3.3111,-3.2918,-3.234,-3.1788,-3.1386,-3.1386,-3.1386,0.0,-3.1687,-3.1989,-3.2014,-3.1461,-3.1386,-3.121,-3.0683,-3.0608,-3.0184,-2.9204,-2.8554,-2.7653,-2.6426,-2.4632,0.0,0.0,0.0,-1.9026,-1.8828,-1.8633,0.0,0.0,0.0,0.0,0.0,0.0,0.0,0.0,-1.2457,-1.271,0.0,0.0,0.0,0.0,0.0,0.0,0.0,0.0,0.0,0.0,0.0,0.0,0.0,0.0,0.0,0.0,-3.2867,-3.5027,-3.7161,-3.799,-3.8718,-3.9672,-4.0224,-4.0551,-4.0601,-4.0124,-3.9823,-3.9873,-3.9823,-3.9823,-3.9873,0.0,0.0,0.0,0.0,-4.1605,-4.2213,-4.2766,-4.2986,-4.2986,-4.2986,-4.2986,-4.2986,-4.2986,-4.2986,-4.2936,-4.2439,-4.2213,-4.2162,-4.1555,-4.0949,-4.045,-3.9898,-3.9697,-3.9647,-3.9145,-3.8642,-3.8191,-3.8191,0.0,0.0,-3.7387,-3.6985,-3.648,-3.5859,-3.4951,-3.3972,-3.342,-3.2441,-3.1712,-3.2265,-3.2416,-3.2541,-3.3119,-3.3219,-3.3018,-3.2516,-3.1913,-3.1512,-3.1562,-3.1537,-3.1662,-3.2215,-3.2315,-3.2139,-3.1662,-3.1587,-3.1386,-3.0859,-3.0783,-3.0423,-2.9416,0.0,0.0,-2.6652,-2.4832,-2.3221,-2.2028,-2.0699,-1.998,-1.998,-1.959,-1.9199,-1.8831,-1.8398,-1.7793,-1.7058,-1.7058,-1.7077,-1.7096,-1.5303,-1.4913,0.0,0.0,0.0,0.0,0.0,0.0,0.0,0.0,0.0,0.0,0.0,0.0,0.0,0.0,0.0,-3.3427,-3.5403,-3.7161,-3.8969,-4.0074,-4.0548,-4.0375,-4.045,-4.0701,-4.1075,-4.0676,-4.0551,-4.0924,-4.0601,-4.0551,-4.1003,-4.0701,-4.0727,-4.1125,-4.1225,-4.1605,-4.2213,-4.2766,-4.2986,-4.2986,0.0,0.0,-4.2986,-4.2986,-4.2986,-4.2936,-4.2439,-4.2213,-4.2162,-4.1555,-4.0949,-4.045,-3.9898,-3.9697,-3.9672,-3.9572,-3.9471,-3.9371,-3.9371,-3.8994,-3.8592,-3.8592,-3.8165,-3.7588,-3.7036,-3.6107,0.0,-3.455,-3.3596,-3.2867,-3.342,-3.3571,-3.3721,-3.4274,-3.4073,-3.3696,-3.3596,-3.2767,-3.219,-3.2667,-3.2365,-3.224,-3.2817,-3.2918,-3.2867,-3.281,-3.2784,-3.2541,-3.1989,-3.1913,-3.1522,-3.0565,-2.9873,-2.8787,-2.7067,-2.5561,-2.399,-2.2266,-2.1113,-2.0468,-2.0468,-2.0019,-1.9922,-2.0233,-1.9434,-1.9121,-1.926,-1.926,-1.9473,-1.9822,-1.7715,-1.7031,0.0,0.0,0.0,0.0,0.0,0.0,0.0,0.0,0.0,0.0,0.0,-2.7896,-2.9804,0.0,-3.3068,-3.5554,-3.6885,-3.8191,-3.9873,-4.0774,-4.1275,-4.1329,-4.1329,-4.1455,-4.1731,-4.1505,-4.1329,-4.1275,-4.1329,-4.1329,-4.1275,-4.1329,-4.1455,-4.1731,-4.1756,-4.2007,-4.2615,-4.2891,-4.2986,-4.2986,-4.2986,-4.2986,-4.2986,-4.2986,-4.2986,-4.2961,-4.274,-4.2615,-4.259,-4.1982,-4.158,-4.1279,-4.0727,-4.0174,-3.9697,-3.9697,-3.9697,-3.9697,-3.9697,-3.932,-3.8919,-3.8919,-3.8492,-3.7889,-3.7337,-3.6408,-3.5382,-3.4831,-3.3922,-3.3194,-3.3746,-3.3897,-3.4048,-3.46,-3.4299,-3.3897,-3.3897,-3.3244,-3.2742,-3.3061,-3.2842,-3.2742,-3.3061,-3.3111,-3.3111,-3.3111,-3.3111,-3.2867,-3.229,-3.2215,-3.1889,-3.1051,-3.0438,-2.9433,-2.7787,-2.567,-2.3764,-2.215,-2.1549,-2.1271,-2.1271,-2.1016,-2.0801,-2.0605,-2.0625,-2.0469,-2.0234,-2.0684,-2.1016,-2.1191,-2.0137,-1.9629,0.0,0.0,0.0,0.0,0.0,0.0,0.0,0.0,-2.6113,-2.7354,-2.9176,-3.1085,-3.2717,-3.3771,-3.5077,-3.7161,-3.7965,-3.8894,-4.045,-4.1254,-4.1781,-4.2162,-4.2213,-4.2263,-4.2363,-4.2363,-4.2133,-4.1706,-4.2057,-4.2108,-4.1681,-4.2082,-4.2363,-4.2363,-4.2363,-4.259,-4.2961,-4.2986,-4.2986,-4.2986,-4.2986,-4.2986,-4.2986,-4.2986,-4.2986,-4.2986,-4.2986,-4.2986,-4.2936,-4.2564,-4.2313,-4.2162,-4.1656,-4.0902,-3.9998,-3.9898,-3.9848,-3.9848,-3.9747,-3.9396,-3.907,-3.907,-3.8718,-3.8241,-3.7688,-3.681,-3.5834,-3.5228,-3.4324,-3.3671,-3.4098,-3.4223,-3.4349,-3.4901,-3.4625,-3.4223,-3.4223,-3.3796,-3.3395,-3.3395,-3.3319,-3.3287,-3.3287,-3.3144,-3.3111,-3.3111,-3.3111,-3.2893,-3.2441,-3.2365,-3.2131,-3.1539,-3.1132,-3.0218,-2.8518,-2.5975,-2.3821,-2.2487,-2.2305,-2.2246,-2.2246,-2.209,-2.168,-2.0997,-2.1562,-2.1582,-2.0977,-2.166,-2.2051,-2.2129,-2.2129,-2.1855,-2.1845,-2.3125,-2.541,-2.654,-2.7595,-2.8311,0.0,0.0,-2.9679,-3.1235,-3.2566,-3.3947,-3.5625,-3.6053,-3.6707,-3.8441,-3.9145,-3.9923,-4.1025,-4.2133,-4.2635,-4.2263,-4.2213,-4.2414,-4.2836,-4.2886,-4.2861,-4.2785,-4.2861,-4.2861,-4.2785,-4.2861,-4.2886,-4.2886,-4.2886,-4.2911,-4.2986,-4.2986,-4.2986,-4.2986,-4.2986,-4.2986,-4.2986,-4.2986,-4.2986,-4.2986,-4.2986,-4.2986,-4.2961,-4.2911,-4.2665,-4.2213,-4.2137,-4.1681,-4.105,-4.0601,-4.0425,-4.035,-3.9873,-3.9647,-3.9597,-3.9597,-3.9546,-3.9396,-3.8843,-3.8241,-3.7513,-3.6458,-3.573,-3.5232,-3.5307,-3.5307,-3.5458,-3.6056,-3.5755,-3.5307,-3.5307,-3.4881,-3.455,-3.455,-3.4148,-3.3796,-3.3796,-3.3395,-3.3111,-3.3111,-3.3111,-3.3086,-3.2993,-3.2993,-3.2968,-3.2893,-3.285,-3.1717,-2.8966,-2.7238,-2.565,-2.4232,-2.3789,-2.3574,-2.3574,-2.2852,-2.2402,-2.2305,-2.2031,-2.2031,-2.2305,-2.2402,-2.2637,-2.2964,-2.2964,-2.2535,-2.5109,-2.5937,-2.7469,-2.9227,-3.0758,-3.1813,-3.1813,-3.2516,-3.342,-3.4424,-3.5504,-3.6508,-3.7186,-3.7312,-3.7764,0.0,-3.9546,-4.0199,-4.1605,-4.2208,-4.2283,-4.1731,-4.1128,-4.1078,-4.1932,-4.2308,-4.2564,-4.2564,-4.2785,-4.2986,-4.2986,-4.2986,-4.2986,-4.2986,-4.2986,-4.2986,-4.2986,-4.2986,-4.2986,-4.2986,-4.2986,-4.2986,-4.2986,-4.2986,-4.2986,-4.2986,-4.2986,-4.2986,-4.2986,-4.2986,-4.2891,-4.269,-4.269,-4.2484,-4.2183,-4.1304,-4.0802,-4.0475,-4.0249,-3.9973,-3.9697,-3.9697,-3.9697,-3.9647,-3.9421,-3.8944,-3.8417,-3.7989,-3.7186,-3.6508,-3.6508,-3.6257,-3.6081,-3.6355,-3.5956,-3.5508,-3.5508,-3.5056,-3.468,-3.468,-3.4274,-3.3897,-3.3897,-3.3445,-3.3111,-3.3111,-3.3111,-3.3111,-3.3111,-3.3111,-3.3111,-3.3111,-3.2493,-3.1269,-2.9368,-2.7988,-2.6662,-2.5442,-2.4791,-2.4415,-2.4282,-2.3509,-2.2902,-2.2519,-2.2578,-2.2578,-2.2519,-2.2754,-2.2925,-2.3101,-2.3101,-2.2906,-2.7394,-2.8147,-2.9327,-3.1537,-3.3219,-3.4424,-3.4751,-3.5429,-3.6157,-3.6709,-3.7437,-3.8015,-3.8015,-3.8015,-3.8316,-3.932,-3.9722,-4.04,-4.1731,-4.2238,-4.2108,-4.1376,-4.0501,-4.0124,-4.0601,-4.1279,-4.1886,-4.2187,-4.2715,-4.2986,-4.2986,-4.2986,-4.2986,-4.2986,-4.2986,-4.2986,-4.2986,-4.2986,-4.2986,-4.2986,-4.2986,-4.2986,-4.2986,-4.2986,-4.2986,-4.2986,-4.2986,-4.2986,-4.2986,-4.2986,-4.2986,-4.2986,-4.2986,-4.2986,-4.2886,-4.2082,-4.1455,-4.0927,-4.0626,-4.0249,-3.9898,-3.9747,-3.9697,-3.9697,-3.9697,-3.9421,-3.9069,-3.8969,-3.8341,-3.7613,-3.7437,-3.7111,-3.6832,-3.6681,-3.6282,-3.5909,-3.5759,-3.5454,-3.5177,-3.5177,-3.4726,-3.4349,-3.4349,-3.3771,-3.3294,-3.3294,-3.3169,-3.3111,-3.3111,-3.3111,-3.3111,-3.3111,-3.2204,-3.1158,-3.0062,-2.9077,-2.8033,-2.7022,-2.6217,-2.5588,-2.5251,-2.4468,-2.3755,-2.3047,-2.3296,-2.334,-2.3027,-2.3296,-2.3452,-2.3452,-2.3452,-2.3452,-2.7645,-2.9277,-3.106,-3.3269,-3.463,-3.5734,-3.6835,-3.7111,-3.7287,-3.7839,-3.799,-3.8015,-3.8015,-3.8015,-3.8191,-3.8793,-3.9798,-4.0701,-4.1225,-4.2283,-4.2559,-4.1401,-4.0774,-4.0074,0.0,-3.9923,-4.1003,-4.2137,-4.2715,-4.2986,-4.2986,-4.2986,-4.2986,-4.2986,-4.2986,-4.2986,-4.2986,-4.2986,-4.2986,-4.2986,-4.2986,-4.2986,-4.2986,-4.2986,-4.2986,-4.2986,-4.2986,-4.2986,-4.2986,-4.2986,-4.2986,-4.2986,-4.2986,-4.2986,-4.2986,-4.2936,-4.264,-4.2011,-4.0877,-4.0501,-4.04,-3.9873,-3.9697,-3.9697,-3.9697,-3.9697,-3.9546,-3.907,-3.8894,-3.8693,-3.814,-3.7965,-3.7814,-3.7287,-3.7136,-3.6985,-3.6505,-3.638,-3.6355,-3.6355,-3.5855,-3.5458,-3.5458,-3.46,-3.3872,-3.3872,-3.342,-3.3111,-3.3111,-3.3111,-3.3111,-3.3111,-3.268,-3.2021,-3.1199,-3.0685,-3.0078,-2.9373,-2.8405,-2.7599,-2.6844,-2.6016,-2.5154,-2.4355,-2.4375,-2.4375,-2.4355,-2.4375,-2.4375,-2.4375,-2.4375,-2.4375,-2.9628,-3.1235,-3.2767,-3.5022,-3.6358,-3.7362,-3.814,-3.8592,-3.8793,-3.8617,-3.799,-3.7462,-3.7462,-3.7161,-3.7385,-3.8718,-3.9798,-4.0827,-4.1756,-4.2263,-4.2158,-4.1376,-4.0199,0.0,0.0,0.0,0.0,-4.0501,-4.176,-4.2489,-4.2489,-4.2841,-4.2986,-4.2986,-4.2986,-4.2986,-4.2986,-4.2986,-4.2986,-4.2986,-4.2986,-4.2986,-4.2986,-4.2986,-4.2986,-4.2986,-4.2986,-4.2986,-4.2986,-4.2986,-4.2986,-4.2986,-4.2986,-4.2986,-4.2986,-4.2986,-4.2861,-4.2534,-4.1455,-4.0827,-4.0425,-3.9873,-3.9697,-3.9697,-3.9697,-3.9697,-3.9647,-3.9471,-3.9145,-3.8818,-3.8617,-3.8291,-3.7965,-3.7764,-3.7437,-3.7136,-3.6983,-3.6656,-3.6405,-3.6405,-3.5906,-3.5508,-3.5508,-3.4625,-3.3771,-3.3395,-3.3237,-3.3111,-3.3111,-3.3111,-3.3111,-3.3111,-3.281,-3.2351,-3.1801,-3.1424,-3.0979,-3.0418,-2.9509,-2.8656,-2.7936,-2.6873,-2.5875,-2.4965,-2.4736,-2.4552,-2.4414,-2.4414,-2.4414,-2.4414,-2.4414,-2.4414,-3.1411,-3.3244,-3.4926,-3.6558,-3.7789,-3.8718,-3.9069,-3.9295,-3.917,-3.8466,-3.7211,-3.6307,-3.6307,-3.6006,-3.6332,-3.8039,-3.9521,-4.0827,-4.1731,-4.2263,-4.2233,-4.1706,-4.035,-3.9371,0.0,0.0,0.0,-3.9672,-4.1028,-4.1957,-4.2213,-4.274,-4.2986,-4.2986,-4.2986,-4.2986,-4.2986,-4.2986,-4.2986,-4.2986,-4.2986,-4.2986,-4.2986,-4.2986,-4.2986,-4.2986,-4.2986,-4.2986,-4.2986,-4.2986,-4.2986,-4.2986,-4.2986,-4.2986,-4.2986,-4.2986,-4.2986,-4.2861,-4.1932,-4.1279,-4.0727,-4.0174,-3.9848,-3.9697,-3.9697,-3.9697,-3.9697,-3.9697,-3.9446,-3.917,-3.917,-3.8894,-3.8567,-3.8366,-3.804,-3.7663,-3.7262,-3.6958,-3.6656,-3.6455,-3.6081,-3.583,-3.583,-3.5077,-3.4299,-3.3746,-3.3671,-3.352,-3.3162,-3.3111,-3.3111,-3.3111,-3.2939,-3.2723,-3.2438,-3.2264,-3.2001,-3.1713,-3.0961,-3.0199,-2.9442,-2.8365,-2.7265,-2.6074,-2.5704,-2.5305,-2.4836,-2.4836,-2.4836,-2.4836,-2.4836,-2.4836,-3.3011,-3.5253,-3.7437,-3.804,-3.8969,-3.9722,-3.9697,-3.9245,-3.8492,-3.7337,-3.5755,-3.453,0.0,0.0,-3.5102,-3.6835,-3.8994,-4.0676,-4.12,-4.2283,-4.2841,0.0,0.0,0.0,0.0,0.0,0.0,-3.9697,0.0,-4.1555,-4.2137,-4.266,-4.2986,-4.2986,-4.2986,-4.2986,-4.2986,-4.2986,-4.2986,-4.2986,-4.2986,-4.2986,-4.2986,-4.2986,-4.2986,-4.2986,-4.2986,-4.2986,-4.2986,-4.2986,-4.2986,-4.2986,-4.2986,-4.2986,-4.2986,-4.2986,-4.2986,-4.2911,-4.2439,-4.1831,-4.125,-4.0752,-4.0199,-3.9772,-3.9747,-3.9747,-3.9722,-3.9697,-3.9697,-3.9697,-3.9697,-3.9697,-3.9572,-3.9044,-3.8944,-3.8617,-3.7513,-3.7236,-3.7036,-3.6556,-3.643,-3.6405,-3.638,-3.5881,-3.5307,-3.4756,-3.468,-3.4324,-3.3269,-3.3162,-3.3119,-3.3111,-3.3111,-3.3111,-3.3111,-3.3111,-3.3111,-3.3111,-3.2661,-3.2045,-3.1223,-3.0306,-2.9119,-2.7626,-2.7125,-2.6476,-2.5693,-2.5693,-2.5693,-2.5693,-2.5693,-2.5693,-3.5504,-3.7563,-3.9295,-4.0197,-4.04,-4.0199,-3.9798,-3.8944,-3.7789,-3.6235,-3.3972,-3.2365,0.0,0.0,0.0,-3.5508,-3.8191,0.0,-4.115,-4.2283,0.0,-4.2785,0.0,-4.153,-4.0978,-4.0425,0.0,0.0,-4.0953,-4.1351,-4.153,-4.2459,-4.2986,-4.2986,-4.2986,-4.2986,-4.2986,-4.2986,-4.2986,-4.2986,-4.2986,-4.2986,-4.2986,-4.2986,-4.2986,-4.2986,-4.2986,-4.2986,-4.2986,-4.2986,-4.2986,-4.2986,-4.2986,-4.2986,-4.2986,-4.2986,-4.2986,-4.2961,-4.2811,-4.2409,-4.1856,-4.1304,-4.0974,-4.0852,-4.0425,-4.03,-4.0224,-3.9798,-3.9697,-3.9697,-3.9697,-3.9697,-3.9672,-3.9521,-3.917,-3.8844,-3.8542,-3.7789,-3.7136,-3.701,-3.6681,-3.6279,-3.583,-3.5583,-3.5307,-3.4756,-3.468,-3.4474,-3.3771,-3.3696,-3.352,-3.3162,-3.3111,-3.3111,-3.3111,-3.3111,-3.3111,-3.3111,-3.2661,-3.2069,-3.1339,-3.0193,-2.8956,-2.7626,-2.6955,-2.6304,-2.5693,-2.5693,-2.5693,-2.5693,-2.5693,-2.5693,-3.7362,-3.932,-4.0802,-4.0953,-4.0874,-4.0551,-3.9245,-3.7914,-3.6383,-3.443,-3.1888,-3.0105,-3.0658,-3.0733,-3.1587,0.0,0.0,0.0,-4.0501,-4.1781,-4.2534,0.0,-4.1982,0.0,-4.13,-4.1,-4.0824,0.0,-4.1125,-4.1401,-4.1681,-4.2509,-4.2986,-4.2986,-4.2986,-4.2986,-4.2986,-4.2986,-4.2986,-4.2986,-4.2986,-4.2986,-4.2986,-4.2986,-4.2986,-4.2986,0.0,-4.2986,-4.2986,-4.2986,-4.2986,-4.2986,-4.2986,-4.2986,-4.2986,-4.2986,-4.2986,-4.2986,-4.2986,-4.2816,-4.2489,-4.1882,-4.153,-4.1225,-4.0924,-4.0701,-4.045,-4.0149,-3.9873,-3.9697,-3.9697,-3.9697,-3.9697,-3.9697,-3.9446,-3.917,-3.8969,-3.8416,-3.7764,-3.7287,-3.6782,-3.6304,-3.5956,-3.5906,-3.5805,-3.5479,-3.5454,-3.5253,-3.47,-3.4198,-3.3696,-3.3187,-3.3111,-3.3111,-3.3111,-3.3111,-3.3111,-3.3111,-3.2661,-3.2069,-3.127,-3.0193,-2.9002,-2.7626,-2.7003,-2.6352,-2.5693,-2.5693,-2.5693,-2.5693,-2.5693,-2.5693,-3.8868,-4.0704,-4.1986,-4.0978,-4.0978,-4.0598,-3.8417,-3.6458,-3.443,-3.224,0.0,-2.777,-2.8436,-2.9076,-3.0407,-3.3319,0.0,-3.8868,-3.9496,-4.1006,-4.1756,-4.1225,-4.125,-4.13,-4.1376,-4.1451,-4.1501,-4.1501,-4.1501,-4.1731,-4.2187,-4.274,-4.2986,-4.2986,-4.2986,-4.2986,-4.2986,-4.2986,-4.2986,-4.2986,-4.2986,-4.2986,-4.2986,-4.2986,-4.2986,-4.2986,-4.2986,-4.2986,-4.2986,-4.2986,-4.2986,-4.2986,-4.2986,-4.2986,-4.2986,-4.2986,-4.2986,-4.2986,-4.2986,-4.2986,-4.2886,-4.2464,-4.1932,-4.1501,-4.1426,-4.1103,-4.0701,-4.0551,-4.0174,-3.9798,-3.9722,-3.9697,-3.9697,-3.9697,-3.9697,-3.9572,-3.9094,-3.8969,-3.8592,-3.7412,-3.6832,-3.648,-3.643,-3.6405,-3.6405,-3.6405,-3.6405,-3.6157,-3.5583,-3.47,-3.3897,-3.3345,-3.3294,-3.3269,-3.3194,-3.3194,-3.3101,-3.2982,-3.2574,-3.1957,-3.1134,-3.0215,-2.9026,-2.7626,-2.7098,-2.6476,-2.5693,-2.5693,-2.5693,-2.5693,-2.5693,-2.5693,-4.0475,-4.153,-4.2162,-4.1961,-4.1254,-4.0074,-3.7839,-3.4977,0.0,0.0,-2.6942,-2.5159,-2.665,-2.7379,-2.8925,-3.2616,-3.5604,-3.7839,-3.8868,-4.0049,-4.0777,0.0,-4.1,-4.153,-4.1982,-4.2434,0.0,0.0,-4.2685,-4.2534,-4.2238,-4.274,-4.2986,-4.2986,-4.2986,-4.2986,-4.2986,-4.2986,-4.2986,-4.2986,-4.2986,-4.2986,-4.2986,-4.2986,-4.2986,-4.2986,-4.2986,0.0,-4.2986,-4.2986,-4.2986,-4.2986,-4.2986,-4.2986,-4.2986,-4.2986,-4.2986,-4.2986,-4.2986,-4.2986,-4.2961,-4.2861,-4.276,-4.261,-4.2213,-4.2011,-4.1735,-4.0777,-4.045,-4.0275,-3.9823,-3.9697,-3.9697,-3.9697,-3.9697,-3.9672,-3.9572,-3.9195,-3.8592,-3.7412,-3.7111,-3.6933,-3.648,-3.6405,-3.6405,-3.6405,-3.6405,-3.6157,-3.5583,-3.5332,-3.5006,-3.45,-3.4424,-3.4248,-3.3796,-3.357,-3.3151,-3.2556,-3.2069,-3.1472,-3.0734,-2.976,-2.8724,-2.7647,-2.6907,-2.6255,-2.5693,-2.5693,-2.5693,-2.5693,-2.5693,-2.5693,-4.1,-4.1957,-4.2439,-4.1505,-4.0676,-3.927,-3.6182,0.0,0.0,0.0,-2.5034,-2.3452,-2.4531,-2.5636,0.0,-3.0432,-3.3721,-3.6207,-3.701,-3.8592,0.0,-3.9672,-4.04,-4.1128,0.0,-4.2484,-4.2986,-4.2986,-4.2986,-4.2861,-4.2665,-4.2836,-4.2986,-4.2986,-4.2986,-4.2986,-4.2986,-4.2986,-4.2986,-4.2986,-4.2986,-4.2986,-4.2986,-4.2986,-4.2986,-4.2986,-4.2986,0.0,-4.2986,-4.2986,-4.2986,-4.2986,-4.2986,-4.2986,-4.2986,-4.2986,-4.2986,-4.2986,-4.2986,-4.2986,-4.2986,-4.2986,-4.2986,-4.2936,-4.266,-4.2439,-4.2112,-4.153,-4.0953,-4.045,-4.0199,-3.9898,-3.9697,-3.9697,-3.9697,-3.9697,-3.9697,-3.927,-3.8768,-3.8165,-3.7814,-3.7538,-3.7262,-3.6985,-3.6832,-3.6832,-3.6581,-3.6329,-3.6006,-3.5981,-3.5655,-3.4781,-3.468,-3.45,-3.3947,-3.3563,-3.2872,-3.1825,-3.1383,-3.0779,-2.9988,-2.9279,-2.8491,-2.7647,-2.7003,-2.64,-2.5693,-2.5693,-2.5693,-2.5693,-2.5693,-2.5693,-4.11,-4.1957,-4.2233,-4.0576,-3.9647,-3.814,-3.4248,-3.1035,0.0,-2.5586,-2.3226,-2.1816,-2.2619,-2.3929,-2.5711,0.0,-3.1537,-3.4104,-3.5031,-3.701,-3.8466,0.0,-3.9672,0.0,-4.1225,-4.2333,0.0,-4.2986,-4.2986,-4.2986,-4.2986,-4.2986,-4.2986,-4.2986,-4.2986,-4.2986,-4.2986,-4.2986,-4.2986,-4.2986,-4.2986,-4.2986,-4.2986,-4.2986,-4.2986,-4.2986,-4.2986,0.0,0.0,-4.2986,-4.2986,-4.2986,-4.2986,-4.2986,-4.2986,-4.2986,-4.2986,-4.2986,-4.2986,-4.2986,-4.2986,-4.2986,-4.2986,-4.2986,-4.2986,-4.274,-4.2363,-4.2238,-4.153,-4.0802,-4.0576,-4.0199,-3.9848,-3.9722,-3.9697,-3.9697,-3.9697,-3.9346,-3.907,-3.8944,-3.8492,-3.814,-3.8015,-3.7638,-3.7312,-3.7211,-3.6857,-3.6531,-3.643,-3.6405,-3.6078,-3.5152,-3.5077,-3.4851,-3.4299,-3.3731,-3.2856,-3.1445,-3.0971,-3.0377,-2.9593,-2.9124,-2.8516,-2.7794,-2.7242,-2.6528,-2.5693,-2.5693,-2.5693,-2.5693,-2.5693,-2.5693,-4.1,-4.1351,-4.1103,-3.9421,-3.8216,-3.6383,-3.2516,0.0,-2.5485,-2.3697,-2.1189,-1.9785,-2.1368,-2.2171,-2.3678,-2.6917,-2.9428,-3.1712,-3.3771,-3.5529,-3.7008,-3.7965,0.0,0.0,-4.1175,-4.2333,0.0,-4.2986,-4.2986,-4.2986,-4.2986,-4.2986,-4.2986,-4.2986,-4.2986,-4.2986,-4.2986,-4.2986,-4.2986,-4.2986,-4.2986,-4.2986,-4.2986,-4.2986,-4.2986,-4.2986,-4.2986,0.0,0.0,-4.2986,-4.2986,-4.2986,-4.2986,-4.2986,-4.2986,-4.2986,-4.2986,-4.2986,-4.2986,-4.2986,-4.2986,-4.2986,-4.2986,-4.2986,-4.2986,-4.2936,-4.2785,-4.2363,-4.2137,-4.1835,-4.0777,-4.0475,-4.03,-3.9823,-3.9697,-3.9697,-3.9697,-3.9647,-3.9471,-3.8969,-3.8869,-3.8617,-3.809,-3.7965,-3.7764,-3.7262,-3.7136,-3.6935,-3.648,-3.6405,-3.638,-3.6279,-3.6254,-3.5981,-3.5382,-3.4708,-3.3598,-3.2019,-3.1476,-3.0878,-3.0083,-2.9569,-2.9034,-2.8368,-2.759,-2.6674,-2.5693,-2.5693,-2.5693,-2.5693,-2.5693,-2.5693,-4.0049,-4.0774,-4.0799,-3.8843,-3.7262,-3.5177,-3.1311,-2.7419,-2.4255,-2.2924,-2.0688,-1.9409,-2.0767,-2.1443,-2.2573,-2.4933,-2.7444,-2.9654,-3.121,-3.342,-3.5278,-3.636,-3.7513,0.0,0.0,0.0,-4.2258,-4.2936,-4.2986,-4.2986,-4.2986,-4.2986,-4.2986,-4.2986,-4.2986,-4.2986,-4.2986,-4.2986,-4.2986,-4.2986,-4.2986,-4.2986,-4.2986,-4.2986,-4.2986,-4.2986,-4.2986,0.0,0.0,-4.2986,-4.2986,-4.2986,-4.2986,-4.2986,-4.2986,-4.2986,-4.2986,-4.2986,-4.2986,-4.2986,-4.2986,-4.2986,-4.2986,-4.2986,-4.2986,-4.2986,-4.2992,-4.271,-4.2464,-4.2112,-4.163,-4.1003,-4.0375,-3.9823,-3.9697,-3.9697,-3.9697,-3.9697,-3.9622,-3.9396,-3.9371,-3.9295,-3.9069,-3.8743,-3.8442,-3.829,-3.7889,-3.7588,-3.7387,-3.7061,-3.6908,-3.6908,-3.6606,-3.6132,-3.5533,-3.4691,-3.3387,-3.1447,-3.0871,-3.0215,-2.9359,-2.9183,-2.8824,-2.8292,-2.766,-2.6841,-2.5693,-2.5693,-2.5693,-2.5693,-2.5693,-2.5693,-3.8417,-3.9647,-4.0074,-3.7839,-3.6031,-3.3847,-3.0131,-2.6289,-2.3175,-2.2046,-2.0087,-1.8882,-1.9987,-2.0489,-2.1368,-2.3201,-2.541,-2.7519,-2.9277,-3.1637,-3.3696,0.0,0.0,-3.7362,0.0,-4.0501,-4.1806,-4.2886,-4.2986,-4.2986,-4.2986,-4.2986,-4.2986,-4.2986,-4.2986,-4.2986,-4.2986,-4.2986,-4.2986,-4.2986,-4.2986,-4.2986,-4.2986,-4.2986,-4.2986,-4.2986,-4.2986,0.0,0.0,-4.2986,-4.2986,-4.2986,-4.2986,-4.2986,-4.2986,-4.2986,-4.2986,-4.2986,-4.2986,-4.2986,-4.2986,-4.2986,-4.2986,-4.2986,-4.2986,-4.2986,-4.2986,-4.2986,-4.264,-4.2213,-4.2213,-4.1329,-4.0425,-4.0023,-3.9823,-3.9697,-3.9697,-3.9697,-3.9697,-3.9697,-3.9697,-3.9697,-3.9697,-3.9371,-3.9069,-3.8944,-3.8517,-3.8191,-3.804,-3.7663,-3.7362,-3.7211,-3.6835,-3.6383,-3.583,-3.4889,-3.3456,-3.1443,-3.0778,-2.9985,-2.906,-2.898,-2.8794,-2.8396,-2.7901,-2.7172,-2.6064,-2.6064,-2.6064,-2.6064,-2.6064,-2.6064,-3.6132,-3.7638,-3.8366,-3.6085,-3.4324,-3.2282,-2.8875,-2.5109,-2.202,-2.0943,-1.8957,-1.7727,-1.8807,-1.9033,-1.9735,-2.1942,-2.3301,-2.5184,-2.8436,-3.0357,0.0,0.0,0.0,-3.616,-3.7864,-4.0023,-4.1806,-4.2886,-4.2986,0.0,-4.2986,-4.2986,-4.2986,-4.2986,-4.2986,-4.2986,-4.2986,-4.2986,-4.2986,-4.2986,-4.2986,-4.2986,-4.2986,-4.2986,-4.2986,-4.2986,0.0,0.0,0.0,-4.2986,-4.2986,-4.2986,-4.2986,-4.2986,-4.2986,-4.2986,-4.2986,-4.2986,-4.2986,-4.2986,-4.2986,-4.2986,-4.2986,-4.2986,-4.2986,-4.2986,-4.2986,-4.2986,-4.264,-4.2213,-4.2213,-4.1329,-4.0526,-4.0501,-4.0099,-3.9697,-3.9697,-3.9697,-3.9697,-3.9697,-3.9697,-3.9697,-3.9697,-3.9697,-3.9496,-3.8994,-3.8919,-3.8642,-3.809,-3.799,-3.7789,-3.7236,-3.7186,-3.696,-3.6455,-3.5404,-3.4091,-3.2381,-3.1593,-3.0712,-2.9565,-2.927,-2.9015,-2.8911,-2.8344,-2.7732,-2.7012,-2.7012,-2.7012,-2.7012,-2.7012,-2.7012,-3.3721,-3.5052,-3.5579,-3.3677,-3.2039,-3.0055,-2.7067,-2.3703,-2.0993,-2.0238,-1.8655,-1.7727,-1.8807,-1.9008,-1.9484,-2.0993,-2.2422,-2.4148,0.0,0.0,0.0,-3.337,-3.5755,-3.7739,0.0,0.0,-4.1806,-4.2886,-4.2986,-4.2986,-4.2986,-4.2986,-4.2986,-4.2986,-4.2986,-4.2986,-4.2986,-4.2986,-4.2986,-4.2986,-4.2986,-4.2986,-4.2986,-4.2986,-4.2986,0.0,0.0,0.0,0.0,-4.2986,-4.2986,-4.2986,-4.2986,-4.2986,-4.2986,-4.2986,-4.2986,-4.2986,-4.2986,-4.2986,-4.2986,-4.2986,-4.2986,-4.2986,-4.2986,-4.2986,-4.2986,-4.2986,-4.2861,-4.269,-4.2313,-4.1961,-4.1455,-4.0701,-4.0375,-4.0149,-3.9772,-3.9697,-3.9697,-3.9697,-3.9697,-3.9697,-3.9697,-3.9697,-3.9647,-3.9471,-3.9421,-3.9371,-3.9195,-3.8843,-3.8517,-3.8366,-3.7638,-3.696,-3.6455,-3.5404,-3.4091,-3.2381,-3.141,-3.0266,-2.8761,-2.8601,-2.8404,-2.8073,-2.7917,-2.7545,-2.7012,-2.7012,-2.7012,-2.7012,-2.7012,-2.7012,-3.0583,-3.2164,-3.2817,-3.1295,-2.9754,-2.7971,-2.5812,-2.2723,-2.0214,-1.9635,-1.8204,-1.7325,-1.8229,-1.8405,-1.8832,-2.0163,-2.1393,-2.3,0.0,0.0,0.0,-3.4042,0.0,0.0,0.0,-4.0701,-4.1806,-4.2886,-4.2986,-4.2986,-4.2986,-4.2986,-4.2986,-4.2986,-4.2986,-4.2986,-4.2986,-4.2986,-4.2986,-4.2986,-4.2986,-4.2986,-4.2986,-4.2986,-4.2986,0.0,0.0,0.0,0.0,-4.2986,-4.2986,-4.2986,-4.2986,-4.2986,-4.2986,-4.2986,-4.2986,-4.2986,-4.2986,-4.2986,-4.2986,-4.2986,-4.2986,-4.2986,-4.2986,-4.2986,-4.2986,-4.2986,-4.2986,-4.2886,-4.2615,-4.2363,-4.2037,-4.1304,-4.0827,-4.0425,-4.0074,-3.9848,-3.9697,-3.9697,-3.9697,-3.9697,-3.9697,-3.9697,-3.9697,-3.9697,-3.9697,-3.9697,-3.9697,-3.9396,-3.9094,-3.8944,-3.8241,-3.7513,-3.6782,-3.5526,-3.4091,-3.2381,-3.1381,-3.0057,-2.8354,-2.8301,-2.8164,-2.791,-2.791,-2.7773,-2.75,-2.75,-2.75,-2.75,-2.75,-2.75,0.0,-2.8925,-3.0005,-2.8863,-2.7444,-2.6021,-2.4833,-2.2042,0.0,-1.9058,-1.7629,-1.6697,-1.7348,-1.7498,-1.8028,-1.966,-2.0465,-2.2024,0.0,-2.8273,0.0,0.0,-3.7487,0.0,-3.9697,-4.0777,-4.1831,-4.2911,-4.2986,-4.2986,-4.2986,-4.2986,-4.2986,-4.2986,-4.2986,-4.2986,-4.2986,-4.2986,-4.2986,-4.2986,-4.2986,-4.2986,-4.2986,-4.2986,-4.2986,0.0,0.0,0.0,0.0,-4.2986,-4.2986,-4.2986,-4.2986,-4.2986,-4.2986,-4.2986,-4.2986,-4.2986,-4.2986,-4.2986,-4.2986,-4.2986,-4.2986,-4.2986,-4.2986,-4.2986,-4.2986,-4.2986,-4.2986,-4.2986,-4.2986,-4.2665,-4.2263,-4.2213,-4.1379,-4.0601,-4.0526,-4.0124,-3.9747,-3.9697,-3.9697,-3.9697,-3.9697,-3.9697,-3.9697,-3.9697,-3.9697,-3.9697,-3.9697,-3.9697,-3.9496,-3.8994,-3.8894,-3.8442,-3.7338,-3.5795,-3.4139,-3.2381,-3.1381,-3.0057,-2.8354,-2.8301,-2.8301,-2.8301,-2.8301,-2.8301,-2.8301,-2.8301,-2.8301,-2.8301,-2.8301,-2.8301,-2.2723,0.0,-2.6615,-2.5929,-2.5184,-2.418,0.0,-2.069,-1.9033,-1.8505,-1.7378,-1.6801,-1.7827,-1.8355,-1.9183,-2.0815,-2.192,-2.3577,-2.649,0.0,0.0,-3.7964,-3.8894,-3.9747,-4.0852,-4.1555,-4.2258,-4.2936,-4.2986,-4.2986,-4.2986,-4.2986,-4.2986,-4.2986,-4.2986,-4.2986,-4.2986,-4.2986,-4.2986,-4.2986,-4.2986,-4.2986,-4.2986,-4.2986,-4.2986,0.0,0.0,0.0,-4.2986,-4.2986,-4.2986,-4.2986,-4.2986,-4.2986,-4.2986,-4.2986,-4.2986,-4.2986,-4.2986,-4.2986,-4.2986,-4.2986,-4.2986,-4.2986,-4.2986,-4.2986,-4.2986,-4.2986,-4.2986,-4.2986,-4.2986,-4.2942,-4.274,-4.2313,-4.2011,-4.153,-4.0701,-4.0425,-4.0199,-3.9772,-3.9697,-3.9697,-3.9697,-3.9697,-3.9697,-3.9697,-3.9697,-3.9697,-3.9697,-3.9697,-3.9647,-3.9521,-3.8942,-3.8314,-3.7863,-3.6328,-3.4516,-3.2404,-3.1381,-3.0057,-2.8354,-2.8301,-2.8301,-2.8301,-2.8301,-2.8301,-2.8301,-2.8301,-2.8301,-2.8301,-2.8301,-2.8301,-2.1295,-2.2774,-2.3954,-2.3427,-2.2874,-2.22,-2.0991,-1.9459,-1.8179,-1.7877,-1.7124,-1.6851,-1.8003,-1.8632,-1.9635,-2.1543,-2.3025,0.0,0.0,0.0,-3.6609,-3.9647,-4.0275,-4.0877,0.0,-4.2359,-4.2715,-4.2961,-4.2986,-4.2986,-4.2986,-4.2986,-4.2986,-4.2986,-4.2986,-4.2986,-4.2986,-4.2986,-4.2986,-4.2986,-4.2986,-4.2986,-4.2986,-4.2986,-4.2986,0.0,0.0,0.0,-4.2986,-4.2986,-4.2986,-4.2986,-4.2986,-4.2986,-4.2986,-4.2986,-4.2986,-4.2986,-4.2986,-4.2986,-4.2986,-4.2986,-4.2986,-4.2986,-4.2986,-4.2986,-4.2986,-4.2986,-4.2986,-4.2986,-4.2986,-4.2986,-4.2911,-4.2665,-4.2389,-4.2037,-4.1404,-4.1078,-4.0802,-4.0501,-4.045,-4.045,-4.045,-4.0249,-4.0074,-4.0074,-3.9848,-3.9697,-3.9697,-3.9697,-3.9697,-3.9697,-3.9036,-3.8275,-3.7491,-3.6113,-3.4572,-3.2738,-3.1398,-3.0052,-2.8628,-2.8398,-2.8301,-2.8301,-2.8301,-2.8301,-2.8301,-2.8301,-2.8301,-2.8301,-2.8301,-2.8301,-2.1066,-2.182,-2.2196,-2.1719,-2.1345,-2.0893,-2.0213,-1.8932,-1.7901,-1.7901,-1.7426,-1.7353,-1.8505,-1.9208,0.0,0.0,0.0,0.0,-3.3395,-3.568,-3.7914,-4.0924,-4.1351,0.0,-4.2886,-4.2986,-4.2986,-4.2986,0.0,-4.2986,-4.2986,-4.2986,-4.2986,-4.2986,-4.2986,-4.2986,-4.2986,-4.2986,-4.2986,-4.2986,-4.2986,-4.2986,-4.2986,-4.2986,-4.2986,-4.2986,0.0,0.0,-4.2986,-4.2986,-4.2986,-4.2986,-4.2986,-4.2986,-4.2986,-4.2986,-4.2986,-4.2986,-4.2986,-4.2986,-4.2986,-4.2986,-4.2986,-4.2986,-4.2986,-4.2986,-4.2986,-4.2986,-4.2986,-4.2986,-4.2986,-4.2986,-4.2986,-4.2986,-4.2665,-4.2313,-4.2238,-4.1781,-4.1376,-4.13,-4.1275,-4.1275,-4.1275,-4.0899,-4.0601,-4.0526,-4.0124,-3.9798,-3.9697,-3.9697,-3.9697,-3.9697,-3.9102,-3.8202,-3.6806,-3.5649,-3.4419,-3.3084,-3.1527,-3.0106,-2.8926,-2.8516,-2.8301,-2.8301,-2.8301,-2.8301,-2.8301,-2.8301,-2.8301,-2.8301,-2.8301,-2.8301,-2.0641,-2.1543,-2.2297,-2.2196,-2.2443,-2.2468,-2.1468,-2.0691,-2.0189,-2.0189,-1.971,-1.9635,-2.0765,-2.1791,-2.3195,0.0,0.0,-3.2616,0.0,0.0,-3.9195,-4.1075,0.0,-4.2338,-4.2911,-4.2986,-4.2986,-4.2986,0.0,-4.2986,-4.2986,-4.2986,-4.2986,-4.2986,-4.2986,-4.2986,-4.2986,-4.2986,-4.2986,-4.2986,-4.2986,-4.2986,-4.2986,-4.2986,-4.2986,-4.2986,0.0,-4.2986,-4.2986,-4.2986,-4.2986,-4.2986,-4.2986,-4.2986,-4.2986,-4.2986,-4.2986,-4.2986,-4.2986,-4.2986,-4.2986,-4.2986,-4.2986,-4.2986,-4.2986,-4.2986,-4.2986,-4.2986,-4.2986,-4.2986,-4.2986,-4.2986,-4.2986,-4.2986,-4.2911,-4.2766,-4.2313,-4.2137,-4.1882,-4.1376,-4.1275,-4.1275,-4.1275,-4.12,-4.1,-4.0601,-4.045,-4.0224,-3.9747,-3.9697,-3.9697,-3.9697,-3.8945,-3.7979,-3.6717,-3.5604,-3.4371,-3.3191,-3.165,-3.0213,-2.8926,-2.8516,-2.8301,-2.8301,-2.8301,-2.8301,-2.8301,-2.8301,-2.8301,-2.8301,-2.8301,-2.8301,-2.0541,-2.1468,-2.2368,-2.2644,-2.3145,-2.3477,-2.2949,-2.2397,-2.192,-2.1619,-2.1343,-2.1493,-2.2623,0.0,-2.6163,-2.988,0.0,-3.5454,-3.7111,-3.8492,-3.9923,0.0,0.0,-4.2414,-4.2911,-4.2986,-4.2986,-4.2986,0.0,0.0,-4.2986,-4.2986,-4.2986,-4.2986,-4.2986,-4.2986,-4.2986,-4.2986,-4.2986,-4.2986,-4.2986,-4.2986,-4.2986,-4.2986,-4.2986,-4.2986,0.0,-4.2986,-4.2986,-4.2986,-4.2986,-4.2986,-4.2986,-4.2986,-4.2986,-4.2986,-4.2986,-4.2986,-4.2986,-4.2986,-4.2986,-4.2986,-4.2986,-4.2986,-4.2986,-4.2986,-4.2986,-4.2986,-4.2986,-4.2986,-4.2986,-4.2986,-4.2986,-4.2986,-4.2986,-4.2911,-4.2715,-4.2665,-4.2534,-4.2283,-4.2233,-4.2233,-4.2233,-4.1982,-4.1681,-4.143,-4.1153,-4.0824,-4.0626,-4.0325,-4.0149,-4.0149,-3.896,-3.7578,-3.6022,-3.5168,-3.4026,-3.239,-3.1472,-3.0489,-2.9518,-2.9192,-2.8984,-2.8984,-2.8984,-2.8867,-2.8633,-2.8633,-2.8516,-2.8301,-2.8301,-2.8301,-2.0541,-2.132,-2.2146,-2.307,-2.3853,-2.4406,-2.4531,-2.4431,-2.4148,-2.3753,-2.3678,-2.3979,-2.4958,-2.6615,0.0,-3.3395,-3.5504,-3.7136,-3.8668,-3.9572,-4.0551,-4.1806,-4.2238,-4.2564,-4.2936,-4.2986,-4.2986,0.0,0.0,0.0,-4.2986,-4.2986,-4.2986,-4.2986,-4.2986,-4.2986,-4.2986,-4.2986,-4.2986,-4.2986,-4.2986,-4.2986,-4.2986,-4.2986,-4.2986,-4.2986,-4.2986,-4.2986,-4.2986,-4.2986,-4.2986,-4.2986,-4.2986,-4.2986,-4.2986,-4.2986,-4.2986,-4.2986,-4.2986,-4.2986,-4.2986,-4.2986,-4.2986,-4.2986,-4.2986,-4.2986,-4.2986,-4.2986,-4.2986,-4.2986,-4.2986,-4.2986,-4.2986,-4.2986,-4.2986,-4.2986,-4.2986,-4.2986,-4.2986,-4.2986,-4.2986,-4.2986,-4.2986,-4.269,-4.2363,-4.2238,-4.1752,-4.1318,-4.1139,-4.0764,-4.0439,-4.0315,-3.8965,-3.7291,-3.5256,-3.4503,-3.3479,-3.1984,-3.1559,-3.1055,-3.0418,-2.9908,-2.9626,-2.9626,-2.9626,-2.9394,-2.9062,-2.8965,-2.875,-2.8437,-2.834,-2.8301,-2.0541,-2.0742,-2.132,-2.3401,-2.4707,-2.5611,-2.6197,-2.7042,-2.7745,-2.7695,-2.7695,-2.7871,-2.8436,-3.0331,-3.2441,-3.4349,-3.6056,-3.7538,-3.8718,0.0,-4.12,-4.1326,-4.2308,-4.2936,-4.2986,-4.2986,0.0,0.0,0.0,0.0,-4.2986,-4.2986,-4.2986,-4.2986,-4.2986,-4.2986,-4.2986,-4.2986,-4.2986,-4.2986,-4.2986,-4.2986,-4.2986,-4.2986,-4.2986,-4.2986,-4.2986,-4.2986,-4.2986,-4.2986,-4.2986,-4.2986,-4.2986,-4.2986,-4.2986,-4.2986,-4.2986,-4.2986,-4.2986,-4.2986,-4.2986,-4.2986,-4.2986,-4.2986,-4.2986,-4.2986,-4.2986,-4.2986,-4.2986,-4.2986,-4.2986,-4.2986,-4.2986,-4.2986,-4.2986,-4.2986,-4.2986,-4.2986,-4.2986,-4.2986,-4.2986,-4.2986,-4.2986,-4.2936,-4.2735,-4.2288,-4.1888,-4.1359,-4.0567,-4.0414,-4.0217,-3.9701,-3.8876,-3.7332,-3.4791,-3.3741,-3.3006,-3.2628,-3.2434,-3.2051,-3.1534,-3.029,-2.9626,-2.9626,-2.9626,-2.9551,-2.9531,-2.9121,-2.8906,-2.8867,-2.8476,-2.8301,-2.0641,-2.0691,-2.1144,-2.3,-2.4531,-2.6013,-2.762,-2.9101,-3.0256,-3.0583,-3.0959,-3.116,-3.1009,0.0,-3.3796,-3.5479,-3.6835,-3.8216,-3.9697,-4.0425,-4.1078,-4.1781,-4.2263,-4.2665,-4.2936,-4.2986,0.0,0.0,0.0,0.0,-4.2986,-4.2986,-4.2986,-4.2986,-4.2986,-4.2986,-4.2986,-4.2986,-4.2986,-4.2986,-4.2986,-4.2986,-4.2986,-4.2986,-4.2986,-4.2986,-4.2986,-4.2986,-4.2986,-4.2986,-4.2986,-4.2986,-4.2986,-4.2986,-4.2986,-4.2986,-4.2986,-4.2986,-4.2986,-4.2986,-4.2986,-4.2986,-4.2986,-4.2986,-4.2986,-4.2986,-4.2986,-4.2986,-4.2986,-4.2986,-4.2986,-4.2986,-4.2986,-4.2986,-4.2986,-4.2986,-4.2986,-4.2986,-4.2986,-4.2986,-4.2986,-4.2986,-4.2986,-4.2986,-4.2911,-4.2766,-4.227,-4.1612,-4.0636,-4.0234,-3.9946,-3.9729,-3.8283,-3.6658,-3.5084,-3.4033,-3.3356,-3.2991,-3.2895,-3.2508,-3.1775,-3.0871,-3.0391,-3.0391,-3.0391,-3.0254,-2.9961,-2.9785,-2.957,-2.9316,-2.916,-2.9082,-2.0918,-2.0691,-2.0867,-2.2644,-2.4224,-2.6013,-2.8624,-3.0758,-3.239,-3.3119,-3.3571,-3.3621,-3.2893,-3.3671,0.0,0.0,-3.7287,-3.8542,-4.0049,-4.04,-4.0802,-4.1555,-4.1781,-4.2057,-4.2434,0.0,0.0,0.0,0.0,0.0,0.0,-4.2459,-4.2459,-4.2459,-4.2635,-4.2766,-4.2766,-4.2942,-4.2986,-4.2986,-4.2986,-4.2986,-4.2986,-4.2986,-4.2986,-4.2986,-4.2986,-4.2986,-4.2986,-4.2986,-4.2986,-4.2986,-4.2986,-4.2986,-4.2986,-4.2986,-4.2986,-4.2986,-4.2986,-4.2986,-4.2986,-4.2986,-4.2986,-4.2986,-4.2986,-4.2986,-4.2986,-4.2986,-4.2986,-4.2986,-4.2986,-4.2986,-4.2986,-4.2986,-4.2986,-4.2986,-4.2986,-4.2986,-4.2986,-4.2986,-4.2986,-4.2986,-4.2986,-4.2986,-4.2986,-4.2986,-4.24,-4.1582,-4.0442,-3.9928,-3.9473,-3.9,-3.7404,-3.6002,-3.505,-3.4049,-3.3298,-3.2913,-3.2862,-3.2571,-3.196,-3.1286,-3.0898,-3.0898,-3.0898,-3.0742,-3.041,-3.0273,-3.0059,-2.9766,-2.9629,-2.9626,-2.1343,-2.069,-2.0363,-2.2569,-2.3973,-2.5737,-2.9051,-3.1938,-3.4223,-3.5307,-3.5533,-3.5182,-3.4123,-3.4781,0.0,-3.6329,-3.7287,-3.8391,-3.9546,-4.0174,-4.0501,-4.0526,-4.0949,-4.1275,0.0,0.0,0.0,0.0,0.0,0.0,0.0,-4.1275,-4.1275,-4.1275,-4.1856,-4.2213,-4.2213,-4.2766,-4.2961,-4.2986,-4.2986,-4.2986,-4.2986,-4.2986,-4.2986,-4.2986,-4.2986,-4.2986,-4.2986,-4.2986,-4.2986,-4.2986,-4.2986,-4.2986,-4.2986,-4.2986,-4.2986,-4.2986,-4.2986,-4.2986,-4.2986,-4.2986,-4.2986,-4.2986,-4.2986,-4.2986,-4.2986,-4.2986,-4.2986,-4.2986,-4.2986,-4.2986,-4.2986,-4.2986,-4.2986,-4.2986,-4.2986,-4.2986,-4.2986,-4.2986,-4.2986,-4.2986,-4.2986,-4.2986,-4.2986,-4.2986,-4.2174,-4.1124,-3.9861,-3.9439,-3.8689,-3.7229,-3.629,-3.5423,-3.4585,-3.352,-3.2745,-3.2431,-3.2241,-3.217,-3.217,-3.1325,-3.0898,-3.0898,-3.0898,-3.0898,-3.0898,-3.043,-3.0195,-3.0195,-2.9785,-2.9646,-2.1749,-2.1734,-2.2096,-2.4305,-2.6013,-2.7896,-3.0834,-3.3043,-3.5127,-3.7412,-3.7563,-3.6935,-3.583,-3.5952,0.0,-3.686,-3.7538,-3.8391,-3.9546,-3.9848,-4.0074,-4.0475,-4.0651,0.0,0.0,0.0,0.0,0.0,0.0,0.0,0.0,-4.1275,-4.1275,-4.1275,-4.1505,-4.1756,-4.2213,-4.2363,-4.264,-4.2986,-4.2986,-4.2986,-4.2986,-4.2986,-4.2986,-4.2986,-4.2986,-4.2986,-4.2986,-4.2986,-4.2986,-4.2986,-4.2986,-4.2986,-4.2986,-4.2986,-4.2986,-4.2986,-4.2986,-4.2986,-4.2986,-4.2986,-4.2986,-4.2986,-4.2986,-4.2986,-4.2986,-4.2986,-4.2986,-4.2986,-4.2986,-4.2986,-4.2986,-4.2986,-4.2986,-4.2986,-4.2986,-4.2986,-4.2986,-4.2986,-4.2986,-4.2986,-4.2986,-4.2986,-4.2986,-4.2986,-4.2004,-4.049,-3.8373,-3.7369,-3.6699,-3.6289,-3.5997,-3.5423,-3.4448,-3.3397,-3.2512,-3.1781,-3.1742,-3.1642,-3.1556,-3.1112,-3.0898,-3.0898,-3.0898,-3.0898,-3.0898,-3.0762,-3.0684,-3.0684,-3.0566,-3.0508,-2.1913,-2.2591,-2.3577,-2.5988,-2.7846,-3.0005,-3.342,-3.5152,-3.6634,-3.8768,-3.8743,-3.809,-3.7186,-3.7059,0.0,-3.7462,-3.799,-3.8668,-3.9572,-3.9697,-3.9823,0.0,0.0,0.0,0.0,0.0,0.0,0.0,0.0,0.0,0.0,-4.0676,-4.0676,-4.0676,-4.0902,-4.1178,-4.1505,-4.1731,-4.2007,-4.2333,-4.2333,-4.2434,-4.2715,-4.2886,-4.2986,-4.2986,-4.2986,-4.2986,-4.2986,-4.2986,-4.2986,-4.2986,-4.2986,-4.2986,-4.2986,-4.2986,-4.2986,-4.2986,-4.2986,-4.2986,-4.2986,-4.2986,-4.2986,-4.2986,-4.2986,-4.2986,-4.2986,-4.2986,-4.2986,-4.2986,-4.2986,-4.2986,-4.2986,-4.2986,-4.2986,-4.2986,-4.2986,-4.2986,-4.2986,-4.2986,-4.2986,-4.2986,-4.2986,-4.2986,-4.2986,-4.2986,-4.1272,-3.9275,-3.7413,-3.6175,-3.5417,-3.5335,-3.5376,-3.5067,-3.4246,-3.3325,-3.2578,-3.2051,-3.1699,-3.1465,-3.1368,-3.1093,-3.0898,-3.0898,-3.0898,-3.0898,-3.0898,-3.0898,-3.0898,-3.0898,-3.0898,-3.0898,-2.1782,-2.3257,-2.4775,-2.7534,-2.959,-3.2089,-3.6307,-3.7638,-3.8316,-3.9471,0.0,-3.8844,-3.8266,-3.8165,-3.8165,-3.8165,-3.8592,-3.912,-3.9622,-3.9697,0.0,0.0,0.0,0.0,0.0,0.0,0.0,0.0,0.0,0.0,0.0,-3.9697,-3.9697,-3.9697,-4.0174,-4.0475,-4.0526,-4.0949,-4.1225,-4.1275,-4.1275,-4.163,-4.2238,-4.2715,-4.2936,-4.2986,-4.2986,-4.2986,-4.2986,-4.2986,-4.2986,-4.2986,-4.2986,-4.2986,-4.2986,-4.2986,-4.2986,-4.2986,-4.2986,-4.2986,-4.2986,-4.2986,-4.2986,-4.2986,-4.2986,-4.2986,-4.2986,-4.2986,-4.2986,-4.2986,-4.2986,-4.2986,-4.2986,-4.2986,-4.2986,-4.2986,-4.2986,-4.2986,-4.2986,-4.2986,-4.2986,-4.2986,-4.2986,-4.2986,-4.2986,-4.2849,-4.0187,-3.7887,-3.6989,-3.5644,-3.4673,-3.436,-3.461,-3.4548,-3.3922,-3.3254,-3.2832,-3.2793,-3.207,-3.1621,-3.1582,-3.1133,-3.0898,-3.0898,-3.0898,-3.0898,-3.0898,-3.0898,-3.0898,-3.0898,-3.0898,-3.0898,-2.127,-2.3417,-2.5633,-2.85,-3.1514,-3.455,-3.7211,-3.7914,-3.8316,-3.9471,-3.9597,-3.9471,-3.9346,-3.932,-3.932,-3.932,-3.9446,-3.9572,-3.9672,0.0,0.0,0.0,0.0,0.0,0.0,0.0,0.0,0.0,0.0,0.0,-3.9697,-3.9697,-3.9697,-3.9697,-3.9798,-4.0074,-4.0501,-4.0626,-4.0849,0.0,-4.1275,-4.163,-4.2213,-4.2338,-4.2615,-4.2986,-4.2986,-4.2986,-4.2986,-4.2986,-4.2986,-4.2986,-4.2986,-4.2986,-4.2986,-4.2986,-4.2986,-4.2986,-4.2986,-4.2986,-4.2986,-4.2986,-4.2986,-4.2986,-4.2986,-4.2986,-4.2986,-4.2986,-4.2986,-4.2986,-4.2986,-4.2986,-4.2986,-4.2986,-4.2986,-4.2986,-4.2986,-4.2986,-4.2986,-4.2986,-4.2986,-4.2986,-4.2986,-4.2986,-4.2625,-4.1663,-3.9604,-3.7828,-3.6664,-3.4901,-3.367,-3.3607,-3.367,-3.367,-3.3544,-3.334,-3.3144,-3.2812,-3.2617,-3.2383,-3.2051,-3.1289,-3.0898,-3.0898,-3.0898,-3.0898,-3.0898,-3.0898,-3.0898,-3.0898,-3.0898,-3.0898,-2.0373,-2.3176,-2.6391,-3.0867,-3.3959,-3.6207,-3.7337,-3.7814,-3.8165,-3.8768,-3.932,-3.9697,-3.9697,-3.9697,-3.9697,-3.9697,-3.9697,-3.9697,0.0,0.0,0.0,0.0,0.0,0.0,0.0,0.0,0.0,0.0,0.0,-3.9697,-3.9697,-3.9697,-3.9697,-3.9697,-3.9697,-3.9823,-4.0124,-4.0124,-4.0275,-4.0551,-4.0551,-4.0978,-4.1781,-4.2308,-4.2766,-4.2986,-4.2986,-4.2986,-4.2986,-4.2986,-4.2986,-4.2986,-4.2986,-4.2986,-4.2986,-4.2986,-4.2986,-4.2986,-4.2986,-4.2986,-4.2986,-4.2986,-4.2986,-4.2986,-4.2986,-4.2986,-4.2986,-4.2986,-4.2986,-4.2986,-4.2986,-4.2986,-4.2986,-4.2986,-4.2986,-4.2986,-4.2986,-4.2849,-4.2737,-4.2569,-4.2594,-4.2594,-4.2569,-4.2793,-4.2569,-4.132,-3.9428,-3.7768,-3.6542,-3.4652,-3.3418,-3.3418,-3.3418,-3.3418,-3.3418,-3.3418,-3.332,-3.3105,-3.291,-3.2695,-3.248,-3.1855,-3.1406,-3.1191,-3.1191,-3.1094,-3.0898,-3.0898,-3.0898,-3.0898,-3.0898,-3.0898,-1.9364,-2.3153,-2.7491,-3.3271,-3.583,-3.696,-3.7136,-3.7538,-3.7889,-3.799,-3.8743,-3.9396,-3.9396,-3.9396,-3.9396,-3.9396,-3.9496,0.0,0.0,0.0,0.0,0.0,0.0,0.0,0.0,0.0,0.0,0.0,0.0,-3.9697,-3.9697,-3.9697,-3.9697,-3.9697,-3.9697,-3.9697,-3.9697,-3.9697,-3.9697,-3.9697,-3.9898,-4.045,-4.1326,-4.2484,-4.2986,-4.2986,-4.2986,-4.2986,-4.2986,-4.2986,-4.2986,-4.2986,-4.2986,-4.2986,-4.2986,-4.2986,-4.2986,-4.2986,-4.2986,-4.2986,-4.2986,-4.2986,-4.2986,-4.2986,-4.2986,-4.2986,-4.293,-4.2874,-4.2874,-4.2818,-4.2849,-4.2874,-4.2818,-4.2849,-4.2874,-4.2874,-4.2986,-4.2681,-4.2287,-4.1923,-4.1834,-4.1915,-4.2004,-4.2569,-4.2569,-4.132,-3.9428,-3.7768,-3.6542,-3.4652,-3.3418,-3.3418,-3.3418,-3.3418,-3.3418,-3.3418,-3.3418,-3.3418,-3.3105,-3.291,-3.291,-3.2559,-3.2187,-3.1738,-3.1601,-3.1348,-3.0996,-3.0918,-3.0898,-3.0898,-3.0898,-3.0898,-1.8585,-2.4106,-2.9805,-3.3701,-3.5207,-3.5959,-3.696,0.0,-3.7437,0.0,-3.8115,-3.8241,-3.8241,-3.8241,-3.8241,0.0,0.0,0.0,0.0,0.0,0.0,0.0,0.0,0.0,0.0,0.0,0.0,0.0,-3.9697,-3.9697,-3.9697,-3.9697,-3.9697,-3.9697,-3.9697,-3.9697,-3.9697,-3.9697,-3.9697,-3.9697,-4.0651,-4.115,-4.1326,-4.2484,-4.2986,-4.2986,-4.2986,-4.2986,-4.2986,-4.2986,-4.2986,-4.2986,-4.2986,-4.2986,-4.2986,-4.2986,-4.2986,-4.2986,-4.2986,-4.2986,-4.2986,-4.2986,-4.2986,-4.2986,-4.2986,-4.2818,-4.2513,-4.2287,-4.2199,-4.2199,-4.2231,-4.2199,-4.2199,-4.2231,-4.2199,-4.2369,-4.2874,-4.2569,-4.1866,-4.0961,-4.0789,-4.0961,-4.1582,-4.24,-4.2569,-4.132,-3.9428,-3.7768,-3.6542,-3.4652,-3.3418,-3.3418,-3.3418,-3.3418,-3.3418,-3.3418,-3.3418,-3.3418,-3.3379,-3.334,-3.334,-3.3281,-3.3066,-3.2637,-3.1894,-3.1484,-3.1426,-3.1074,-3.0898,-3.0898,-3.0898,-3.0898,-2.0316,-2.5148,-2.9559,-3.3327,-3.4856,-3.5633,-3.611,-3.6508,-3.6832,-3.7036,-3.7086,-3.7287,-3.7889,-3.8015,0.0,0.0,0.0,0.0,0.0,0.0,0.0,0.0,0.0,0.0,0.0,0.0,0.0,0.0,-3.9697,-3.9697,-3.9697,-3.9697,-3.9697,-3.9697,-3.9697,-3.9697,-3.9697,-3.9697,-3.9697,-3.9697,-4.0501,-4.0824,-4.0902,-4.2007,-4.274,-4.2986,-4.2986,-4.2986,-4.2986,-4.2986,-4.2986,-4.2986,-4.2986,-4.2986,-4.2986,-4.2986,-4.2986,-4.2986,-4.2986,-4.2986,-4.2986,-4.2986,-4.2986,-4.2986,-4.2986,-4.2625,-4.2093,-4.1444,-4.1296,-4.132,-4.1272,-4.1296,-4.132,-4.1272,-4.1296,-4.1378,-4.1615,-4.1639,-4.1263,-4.0083,-3.9686,-3.9861,-4.0639,-4.1753,-4.2118,-4.1033,-3.9334,-3.7768,-3.6542,-3.4652,-3.3418,-3.3418,-3.3418,-3.3418,-3.3418,-3.3418,-3.3418,-3.3418,-3.3418,-3.3418,-3.3418,-3.3418,-3.334,-3.3144,-3.2539,-3.1992,-3.1523,-3.1328,-3.1113,-3.0898,-3.0898,-3.0898,-2.1144,-2.4855,-2.7981,-3.166,-3.3408,-3.4325,0.0,0.0,-3.5934,0.0,-3.6304,-3.6656,0.0,0.0,0.0,0.0,0.0,0.0,0.0,0.0,0.0,0.0,0.0,0.0,0.0,0.0,0.0,0.0,-3.9697,-3.9697,-3.9697,-3.9697,-3.9697,-3.9697,-3.9697,-3.9697,-3.9697,-3.9697,-3.9697,-3.9697,-4.0249,-4.0526,-4.0551,-4.1656,-4.2439,-4.2785,-4.2911,-4.2986,-4.2986,-4.2986,-4.2986,-4.2986,-4.2986,-4.2986,-4.2986,-4.2986,-4.2986,-4.2986,-4.2986,-4.2986,-4.2986,-4.2986,-4.2986,-4.2986,-4.2986,-4.2569,-4.1891,-4.0928,-4.0582,-4.0548,-4.0466,-4.0408,-4.0432,-4.0408,-4.0548,-4.0629,-4.0442,-4.0408,-4.0083,-3.9049,-3.841,-3.8387,-3.9393,-4.0755,-4.1411,-4.0629,-3.9157,-3.7768,-3.6542,-3.4652,-3.3418,-3.3418,-3.3418,-3.3418,-3.3418,-3.3418,-3.3418,-3.3418,-3.3418,-3.3418,-3.3418,-3.3418,-3.3418,-3.3418,-3.3105,-3.2539,-3.168,-3.1562,-3.1309,-3.0898,-3.0898,-3.0898,-1.946,-2.2252,-2.5131,-2.8201,-2.9853,-3.1069,0.0,0.0,0.0,0.0,-3.6006,0.0,0.0,0.0,0.0,0.0,0.0,0.0,0.0,0.0,0.0,0.0,0.0,0.0,0.0,0.0,0.0,0.0,-3.9697,-3.9697,-3.9697,-3.9697,-3.9697,-3.9697,-3.9697,-3.9697,-3.9697,-3.9697,-3.9697,-3.9697,-4.0249,-4.0526,-4.0551,-4.1656,-4.2238,-4.2288,-4.2816,-4.2986,-4.2986,-4.2986,-4.2986,-4.2986,-4.2986,-4.2986,-4.2986,-4.2986,-4.2986,-4.2986,-4.2986,-4.2986,-4.2986,-4.2986,-4.2986,-4.2986,-4.2986,-4.2594,-4.1915,-4.0976,-4.0455,-4.0165,-3.9931,-3.9814,-3.9873,-3.9814,-4.0305,-4.0537,-3.9989,-3.9039,-3.8186,-3.7594,-3.6642,-3.6356,-3.767,-3.9428,-4.05,-3.9931,-3.8921,-3.7768,-3.6542,-3.4652,-3.3418,-3.3418,-3.3418,-3.3418,-3.3418,-3.3418,-3.3418,-3.3418,-3.3418,-3.3418,-3.3418,-3.3418,-3.3418,-3.3418,-3.3398,-3.2969,-3.2129,-3.1719,-3.1309,-3.0898,-3.0898,-3.0898,-1.8035,-1.9937,-2.1969,-2.4729,-2.6695,-2.8361,-2.9772,-3.1705,-3.3424,-3.4285,0.0,0.0,0.0,0.0,0.0,0.0,0.0,0.0,0.0,0.0,0.0,0.0,0.0,0.0,0.0,0.0,0.0,0.0,0.0,-3.917,-3.917,-3.9496,-3.9697,-3.9697,-3.9697,-3.9697,-3.9697,-3.9697,-3.9697,-3.9697,-3.9898,-3.9998,-4.0023,-4.1128,-4.163,-4.1681,-4.2585,-4.2986,-4.2986,-4.2986,-4.2986,-4.2986,-4.2986,-4.2986,-4.2986,-4.2986,-4.2986,-4.2986,-4.2986,-4.2986,-4.2986,-4.2986,-4.2986,-4.2986,-4.2986,-4.2569,-4.1891,-4.0928,-4.0316,-3.9755,-3.898,-3.8848,-3.9012,-3.9367,-4.0083,-4.0582,-4.0455,-3.9592,-3.8625,-3.7774,-3.6664,-3.6154,-3.7089,-3.8447,-3.9393,-3.9203,-3.8648,-3.7872,-3.6868,-3.5149,-3.3985,-3.3733,-3.3544,-3.3418,-3.3418,-3.3418,-3.3418,-3.3418,-3.3418,-3.3418,-3.3418,-3.3418,-3.3418,-3.3418,-3.3418,-3.3144,-3.2578,-3.2422,-3.2129,-3.1719,-3.1719,-3.1719,-1.6439,-1.7767,-1.9157,0.0,-2.326,-2.5284,-2.6788,0.0,-3.1497,-3.2798,0.0,0.0,0.0,0.0,0.0,0.0,0.0,0.0,0.0,0.0,0.0,0.0,0.0,0.0,0.0,0.0,0.0,0.0,0.0,0.0,-3.8919,-3.922,-3.9496,-3.9697,-3.9697,-3.9697,-3.9697,-3.9697,-3.9697,-3.9697,-3.9697,-3.9697,-3.9747,-4.0774,-4.1275,-4.1351,-4.2509,-4.2986,-4.2986,-4.2986,-4.2986,-4.2986,-4.2986,-4.2986,-4.2986,-4.2986,-4.2986,-4.2986,-4.2986,-4.2986,-4.2986,-4.2986,-4.2986,-4.2986,-4.2986,-4.2625,-4.2061,-4.1215,-4.0466,-3.9674,-3.8566,-3.8134,-3.8238,-3.9131,-3.9966,-4.0697,-4.086,-4.0234,-3.9393,-3.8373,-3.6907,-3.6053,-3.6502,-3.7248,-3.791,-3.8134,-3.8231,-3.7992,-3.7171,-3.5746,-3.4715,-3.4298,-3.3733,-3.3418,-3.3418,-3.3418,-3.3418,-3.3418,-3.3418,-3.3418,-3.3418,-3.3418,-3.3418,-3.3418,-3.3418,-3.3281,-3.3008,-3.2871,-3.2578,-3.2229,-3.2229,-3.2229,0.0,0.0,0.0,0.0,0.0,0.0,-2.3545,0.0,-2.8851,0.0,0.0,0.0,0.0,0.0,0.0,0.0,0.0,0.0,0.0,0.0,0.0,0.0,0.0,0.0,0.0,0.0,0.0,0.0,-3.7965,-3.8216,-3.8844,-3.8894,-3.912,-3.9672,-3.9697,-3.9697,-3.9697,-3.9697,-3.9697,-3.9697,-3.9697,-3.9697,-3.9747,-4.0774,-4.1275,-4.1351,-4.2509,-4.2986,-4.2986,-4.2986,-4.2986,-4.2986,-4.2986,-4.2986,-4.2986,-4.2986,-4.2986,-4.2986,-4.2986,-4.2986,-4.2986,-4.2986,-4.2986,-4.2986,-4.2986,-4.2737,-4.24,-4.1834,-4.0976,-3.9931,-3.8611,-3.7834,-3.7676,-3.893,-3.9989,-4.0803,-4.1115,-4.0894,-4.0245,-3.9039,-3.7226,-3.5827,-3.593,-3.5827,-3.6072,-3.6807,-3.761,-3.8007,-3.7495,-3.646,-3.5581,-3.4984,-3.4047,-3.3418,-3.3418,-3.3418,-3.3418,-3.3418,-3.3418,-3.3418,-3.3418,-3.3418,-3.3418,-3.3418,-3.3418,-3.3418,-3.3418,-3.3008,-3.2598,-3.2268,-3.2268,-3.2268,-1.3402,0.0,0.0,0.0,0.0,0.0,0.0,0.0,0.0,0.0,0.0,0.0,0.0,0.0,0.0,0.0,0.0,0.0,0.0,0.0,0.0,0.0,0.0,0.0,0.0,0.0,0.0,0.0,-3.7186,-3.7487,-3.7638,-3.8466,-3.912,-3.9672,-3.9697,-3.9697,-3.9697,-3.9697,-3.9697,-3.9697,-3.9697,-3.9697,-3.9747,-4.0774,-4.1275,-4.1351,-4.2509,-4.2986,-4.2986,-4.2986,-4.2986,-4.2986,-4.2986,-4.2986,-4.2986,-4.2986,-4.2986,-4.2986,-4.2986,-4.2986,-4.2986,-4.2986,-4.2986,-4.2986,-4.2986,-4.293,-4.2818,-4.2625,-4.1777,-4.0397,-3.8194,-3.6967,-3.656,-3.7932,-3.9451,-4.0697,-4.0803,-4.0697,-4.0326,-3.9321,-3.7774,-3.6502,-3.6279,-3.6074,-3.5992,-3.6462,-3.7193,-3.7594,-3.7435,-3.6928,-3.638,-3.5665,-3.4735,-3.4047,-3.3796,-3.3544,-3.3418,-3.3418,-3.3418,-3.3418,-3.3418,-3.3418,-3.3418,-3.3418,-3.3418,-3.3418,-3.3418,-3.3301,-3.3184,-3.3066,-3.3066,-3.3066,-1.3398,-1.3398,-1.3418,0.0,0.0,0.0,0.0,-2.0782,0.0,0.0,0.0,0.0,0.0,0.0,0.0,0.0,0.0,0.0,0.0,0.0,0.0,0.0,0.0,0.0,0.0,-3.6405,-3.6405,-3.6405,-3.6707,-3.6935,-3.7186,-3.8266,-3.9019,-3.9346,-3.9572,-3.9697,-3.9697,-3.9697,-3.9697,-3.9697,-3.9697,-3.9697,-3.9747,-4.0774,-4.1275,-4.1351,-4.2509,-4.2986,-4.2986,-4.2986,-4.2986,-4.2986,-4.2986,-4.2986,-4.2986,-4.2986,-4.2986,-4.2986,-4.2986,-4.2986,-4.2986,-4.2986,-4.2986,-4.2986,-4.2986,-4.2986,-4.2986,-4.2986,-4.1696,-3.9884,-3.8194,-3.7028,-3.652,-3.7572,-3.9062,-4.0292,-4.0339,-4.0316,-4.0118,-3.9579,-3.8373,-3.733,-3.6889,-3.6298,-3.5909,-3.6156,-3.6502,-3.6846,-3.7132,-3.733,-3.721,-3.6585,-3.5582,-3.4819,-3.436,-3.3733,-3.3418,-3.3418,-3.3418,-3.3418,-3.3418,-3.3418,-3.3418,-3.3418,-3.3418,-3.3418,-3.3418,-3.3418,-3.3418,-3.3418,-3.3418,-3.3418,-1.425,-1.425,-1.4153,0.0,0.0,0.0,-1.7137,-1.9055,-2.1107,0.0,0.0,0.0,0.0,0.0,0.0,0.0,0.0,0.0,0.0,0.0,0.0,0.0,0.0,0.0,-3.6405,-3.6405,-3.6405,-3.6405,-3.6405,-3.6656,-3.7161,-3.814,-3.8793,-3.8919,-3.9346,-3.9622,-3.9697,-3.9697,-3.9697,-3.9697,-3.9697,-3.9697,-3.9747,-4.0774,-4.1275,-4.1351,-4.2509,-4.2986,-4.2986,-4.2986,-4.2986,-4.2986,-4.2986,-4.2986,-4.2986,-4.2986,-4.2986,-4.2986,-4.2986,-4.2986,-4.2986,-4.2986,-4.2986,-4.2986,-4.2986,-4.2986,-4.2986,-4.293,-4.1215,-3.9216,-3.8588,-3.7752,-3.7171,-3.7796,-3.8812,-3.9638,-3.9638,-3.9638,-3.9638,-3.9638,-3.8885,-3.8029,-3.7435,-3.646,-3.5827,-3.5807,-3.5848,-3.6072,-3.6807,-3.767,-3.8029,-3.7435,-3.6399,-3.552,-3.4922,-3.3985,-3.3418,-3.3418,-3.3418,-3.3418,-3.3418,-3.3418,-3.3418,-3.3418,-3.3418,-3.3418,-3.3418,-3.3418,-3.3418,-3.3418,-3.3418,-3.3418,-1.5156,-1.5156,-1.5059,-1.4648,0.0,0.0,-1.5643,-1.6928,-1.8272,0.0,0.0,0.0,0.0,0.0,0.0,0.0,0.0,0.0,0.0,0.0,0.0,0.0,0.0,0.0,-3.6405,-3.6405,-3.6405,-3.6405,-3.6405,-3.6656,-3.7161,-3.7387,-3.7914,-3.8894,-3.8969,-3.9245,-3.9697,-3.9697,-3.9697,-3.9697,-3.9697,-3.9697,-3.9747,-4.0774,-4.1275,-4.1351,-4.2509,-4.2986,-4.2986,-4.2986,-4.2986,-4.2986,-4.2986,-4.2986,-4.2986,-4.2986,-4.2986,-4.2986,-4.2986,-4.2986,-4.2986,-4.2986,-4.2986,-4.2986,-4.2986,-4.2986,-4.293,-4.2425,-4.1353,-4.0187,-3.9569,-3.8662,-3.8007,-3.8171,-3.8387,-3.8566,-3.8656,-3.8611,-3.8566,-3.8656,-3.8477,-3.8036,-3.7193,-3.638,-3.5807,-3.5541,-3.5705,-3.6114,-3.6807,-3.7736,-3.7976,-3.7132,-3.6298,-3.55,-3.461,-3.3796,-3.3418,-3.3418,-3.3418,-3.3418,-3.3418,-3.3418,-3.3418,-3.3418,-3.3418,-3.3418,-3.3418,-3.3418,-3.3418,-3.3418,-3.3418,-3.3418,-1.6699,-1.6562,-1.623,-1.5615,0.0,0.0,0.0,0.0,0.0,0.0,0.0,0.0,0.0,0.0,0.0,0.0,0.0,0.0,0.0,0.0,0.0,0.0,0.0,0.0,-3.5554,-3.578,-3.6081,-3.638,-3.6405,-3.6531,-3.6807,-3.7036,-3.7437,-3.8015,-3.8617,-3.9045,-3.927,-3.9546,-3.9697,-3.9697,-3.9697,-3.9697,-3.9747,-4.0774,-4.1275,-4.1351,-4.2509,-4.2986,-4.2986,-4.2986,-4.2986,-4.2986,-4.2986,-4.2986,-4.2986,-4.2986,-4.2986,-4.2986,-4.2986,-4.2986,-4.2986,-4.2986,-4.2986,-4.2986,-4.2986,-4.2986,-4.293,-4.2425,-4.1696,-4.0985,-4.0524,-3.9803,-3.9157,-3.8848,-3.8529,-3.8209,-3.8178,-3.7976,-3.7872,-3.8118,-3.832,-3.8118,-3.7314,-3.642,-3.5786,-3.5644,-3.5746,-3.6093,-3.6807,-3.7714,-3.8014,-3.7253,-3.6359,-3.554,-3.4735,-3.3859,-3.3418,-3.3418,-3.3418,-3.3418,-3.3418,-3.3418,-3.3418,-3.3418,-3.3418,-3.3418,-3.3418,-3.3418,-3.3418,-3.3418,-3.3418,-3.3418,0.0,0.0,0.0,0.0,0.0,-1.6198,0.0,0.0,0.0,0.0,0.0,0.0,0.0,0.0,0.0,0.0,0.0,0.0,0.0,0.0,0.0,0.0,0.0,0.0,0.0,-3.481,-3.5403,-3.5902,-3.6028,-3.6128,-3.6207,-3.6734,-3.7086,-3.7186,-3.8165,-3.8768,-3.8919,-3.9421,-3.9697,-3.9697,-3.9697,-3.9697,-3.9747,-4.0774,-4.1275,-4.1351,-4.2509,-4.2986,-4.2986,-4.2986,-4.2986,-4.2986,-4.2986,-4.2986,-4.2986,-4.2986,-4.2986,-4.2986,-4.2986,-4.2986,-4.2986,-4.2986,-4.2986,-4.2986,-4.2986,-4.2986,-4.293,-4.2681,-4.2231,-4.1834,-4.1549,-4.1124,-4.0524,-3.9814,-3.8967,-3.8171,-3.7856,-3.7435,-3.7231,-3.7637,-3.8058,-3.8178,-3.7435,-3.646,-3.5827,-3.5869,-3.5971,-3.6255,-3.6928,-3.773,-3.797,-3.7314,-3.6276,-3.5355,-3.4797,-3.3922,-3.3418,-3.3418,-3.3418,-3.3418,-3.3418,-3.3418,-3.3418,-3.3418,-3.3418,-3.3418,-3.3418,-3.3418,-3.3418,-3.3418,-3.3418,-3.3418,0.0,0.0,0.0,0.0,-1.7227,0.0,0.0,0.0,0.0,0.0,0.0,0.0,0.0,0.0,0.0,0.0,0.0,0.0,0.0,0.0,0.0,0.0,0.0,0.0,0.0,-3.3551,-3.4123,-3.4173,-3.4625,-3.5082,-3.5558,-3.6157,-3.6732,-3.7161,-3.7789,-3.8341,-3.8919,-3.9421,-3.9697,-3.9697,-3.9697,-3.9697,-3.9747,-4.0774,-4.1275,-4.1351,-4.2509,-4.2986,-4.2986,-4.2986,-4.2986,-4.2986,-4.2986,-4.2986,-4.2986,-4.2986,-4.2986,-4.2986,-4.2986,-4.2986,-4.2986,-4.2986,-4.2986,-4.2986,-4.2986,-4.2986,-4.2986,-4.2986,-4.2905,-4.2793,-4.2793,-4.2737,-4.24,-4.1206,-3.951,-3.8067,-3.7555,-3.6664,-3.6194,-3.6868,-3.767,-3.7947,-3.711,-3.6359,-3.5869,-3.5911,-3.6359,-3.6824,-3.7314,-3.7894,-3.7812,-3.6624,-3.5582,-3.4715,-3.4047,-3.3607,-3.3418,-3.3418,-3.3418,-3.3418,-3.3418,-3.3418,-3.3418,-3.3418,-3.3418,-3.3418,-3.3418,-3.3418,-3.3418,-3.3418,-3.3418,-3.3418,0.0,0.0,0.0,0.0,0.0,0.0,-1.5449,0.0,-1.5772,0.0,0.0,0.0,0.0,0.0,0.0,0.0,0.0,0.0,0.0,0.0,0.0,0.0,0.0,0.0,0.0,0.0,0.0,0.0,-3.3144,-3.3796,-3.4956,-3.5579,-3.6132,-3.6732,-3.7563,-3.8115,-3.8366,-3.9245,-3.9697,-3.9697,-3.9697,-3.9697,-3.9747,-4.0774,-4.1275,-4.1351,-4.2509,-4.2986,-4.2986,-4.2986,-4.2986,-4.2986,-4.2986,-4.2986,-4.2986,-4.2986,-4.2986,-4.2986,-4.2986,-4.2986,-4.2986,-4.2986,-4.2986,-4.2986,-4.2986,-4.2986,-4.2986,-4.2986,-4.2986,-4.2986,-4.2986,-4.2986,-4.2737,-4.1663,-4.0036,-3.8625,-3.8074,-3.7149,-3.6603,-3.7071,-3.7774,-3.8134,-3.7555,-3.6542,-3.5971,-3.6401,-3.7127,-3.773,-3.7938,-3.8111,-3.779,-3.6563,-3.4963,-3.3922,-3.3607,-3.3481,-3.3418,-3.3418,-3.3418,-3.3418,-3.3418,-3.3418,-3.3418,-3.3418,-3.3418,-3.3418,-3.3418,-3.3418,-3.3418,-3.3418,-3.3418,-3.3418,-2.3494,0.0,0.0,0.0,0.0,0.0,0.0,0.0,0.0,0.0,0.0,0.0,0.0,0.0,0.0,0.0,0.0,0.0,0.0,0.0,0.0,0.0,0.0,0.0,0.0,0.0,0.0,0.0,0.0,-3.229,-3.3947,-3.4806,-3.5579,-3.6107,-3.7337,-3.8015,-3.8015,-3.912,-3.9697,-3.9697,-3.9697,-3.9697,-3.9747,-4.0774,-4.1275,-4.1351,-4.2509,-4.2986,-4.2986,-4.2986,-4.2986,-4.2986,-4.2986,-4.2986,-4.2986,-4.2986,-4.2986,-4.2986,-4.2986,-4.2986,-4.2986,-4.2986,-4.2986,-4.2986,-4.2986,-4.2986,-4.2986,-4.2986,-4.2986,-4.2986,-4.2986,-4.2986,-4.2818,-4.1948,-4.0639,-3.9393,-3.8826,-3.7932,-3.733,-3.7594,-3.8036,-3.8276,-3.8058,-3.6967,-3.6338,-3.6928,-3.773,-3.8209,-3.8118,-3.8052,-3.7467,-3.6258,-3.4465,-3.3418,-3.3418,-3.3418,-3.3418,-3.3418,-3.3418,-3.3418,-3.3418,-3.3418,-3.3418,-3.3418,-3.3418,-3.3418,-3.3418,-3.3418,-3.3418,-3.3418,-3.3418,-3.3418,0.0,0.0,0.0,-1.9873,0.0,0.0,0.0,0.0,-1.6222,0.0,0.0,0.0,0.0,0.0,0.0,0.0,0.0,0.0,0.0,0.0,0.0,0.0,0.0,0.0,0.0,0.0,0.0,0.0,-2.9476,0.0,-3.2215,-3.3847,-3.4956,-3.5508,-3.7161,-3.8015,-3.8015,-3.912,-3.9697,-3.9697,-3.9697,-3.9697,-3.9747,-4.0774,-4.1275,-4.1351,-4.2509,-4.2986,-4.2986,-4.2986,-4.2986,-4.2986,-4.2986,-4.2986,-4.2986,-4.2986,-4.2986,-4.2986,-4.2986,-4.2986,-4.2986,-4.2986,-4.2986,-4.2986,-4.2986,-4.2986,-4.2986,-4.2986,-4.2986,-4.2986,-4.2986,-4.2986,-4.2874,-4.2231,-4.1329,-4.0361,-3.9779,-3.8898,-3.8186,-3.8231,-3.8268,-3.8268,-3.8358,-3.7555,-3.7011,-3.7314,-3.7894,-3.8074,-3.7495,-3.7391,-3.6824,-3.5541,-3.4235,-3.3418,-3.3418,-3.3418,-3.3418,-3.3418,-3.3418,-3.3418,-3.3418,-3.3418,-3.3418,-3.3418,-3.3418,-3.3418,-3.3418,-3.3418,-3.3418,-3.3418,-3.3418,-3.3418,0.0,0.0,-2.4262,-2.2049,0.0,0.0,0.0,0.0,0.0,0.0,0.0,0.0,0.0,0.0,0.0,0.0,0.0,0.0,0.0,0.0,0.0,0.0,0.0,0.0,0.0,0.0,0.0,0.0,-2.7091,0.0,-3.0507,-3.2541,-3.4048,-3.4931,-3.696,-3.8015,-3.8015,-3.912,-3.9697,-3.9697,-3.9697,-3.9697,-3.9747,-4.0774,-4.1275,-4.1351,-4.2509,-4.2986,-4.2986,-4.2986,-4.2986,-4.2986,-4.2986,-4.2986,-4.2986,-4.2986,-4.2986,-4.2986,-4.2986,-4.2986,-4.2986,-4.2986,-4.2986,-4.2986,-4.2986,-4.2986,-4.3062,-4.3413,-4.3514,-4.3614,-4.3966,-4.379,-4.34,-4.3084,-4.2079,-4.1182,-4.0721,-4.0059,-3.9393,-3.9026,-3.8611,-3.8231,-3.8118,-3.7616,-3.7435,-3.7998,-3.8171,-3.8029,-3.7495,-3.6764,-3.6011,-3.517,-3.4047,-3.3418,-3.3418,-3.3418,-3.3418,-3.3418,-3.3418,-3.3418,-3.3418,-3.3418,-3.3418,-3.3418,-3.3418,-3.3418,-3.3418,-3.3418,-3.3418,-3.3418,-3.3418,-3.3418,-2.878,-2.7757,0.0,-2.424,-2.2819,0.0,-1.919,0.0,0.0,0.0,0.0,0.0,0.0,0.0,0.0,0.0,0.0,0.0,0.0,0.0,0.0,0.0,0.0,0.0,0.0,0.0,-2.3086,-2.4261,-2.5167,0.0,0.0,0.0,-3.3068,-3.4374,-3.6759,-3.8015,-3.8015,-3.912,-3.9697,-3.9697,-3.9697,-3.9697,-3.9747,-4.0774,-4.1275,-4.1351,-4.2509,-4.2986,-4.2986,-4.2986,-4.2986,-4.2986,-4.2986,-4.2986,-4.2986,-4.2986,-4.2986,-4.2986,-4.2986,-4.2986,-4.2986,-4.2986,-4.2986,-4.2986,-4.2986,-4.2986,-4.3087,-4.3639,-4.379,-4.3915,-4.4493,-4.4217,-4.3758,-4.3587,-4.2821,-4.2061,-4.1834,-4.1468,-4.0952,-4.0106,-3.9003,-3.8171,-3.7796,-3.7231,-3.705,-3.7758,-3.7894,-3.761,-3.6828,-3.5992,-3.5232,-3.461,-3.3859,-3.3418,-3.3418,-3.3418,-3.3418,-3.3418,-3.3418,-3.3418,-3.3418,-3.3418,-3.3418,-3.3418,-3.3418,-3.3418,-3.3418,-3.3418,-3.3418,-3.3418,-3.3418,-3.3418]},{"header":{"parameterUnit":"m.s-1","parameterCategory":1,"la1":30.6,"la2":29.2853,"lo1":-89.7004,"lo2":-87.6739,"dy":0.0162,"dx":0.0183,"nx":112,"ny":82,"refTime":"2026-03-31T00:00:00:Z","depth":0,"parameterNumber":3,"parameterNumberName":"V-component_of_WINDS"},"data":[0.0,0.0,0.0,0.0,0.0,0.0,0.0,0.0,0.0,0.0,0.0,0.0,0.0,0.0,0.0,0.0,0.0,0.0,0.0,0.0,0.0,0.0,0.0,0.0,0.0,0.0,0.0,0.0,0.0,0.0,0.0,0.0,0.0,0.0,0.0,0.0,0.0,0.0,0.0,0.0,0.0,0.0,0.0,0.0,0.0,0.0,0.0,0.0,0.0,0.0,0.0,0.0,0.0,0.0,0.0,0.0,0.0,0.0,0.0,0.0,0.0,0.0,0.0,0.0,0.0,0.0,0.0,0.0,0.0,0.0,0.0,0.0,0.0,0.0,0.0,0.0,0.0,0.0,0.0,0.0,0.0,0.0,0.0,0.0,0.0,0.0,0.0,0.0,0.0,0.0,0.0,2.3969,2.7679,2.9455,2.8406,2.6869,2.4949,2.2567,0.0,0.0,0.0,0.0,0.0,0.0,0.0,0.0,0.0,0.0,0.0,0.0,0.0,0.0,0.0,0.0,0.0,0.0,0.0,0.0,0.0,0.0,0.0,0.0,0.0,0.0,0.0,0.0,0.0,0.0,0.0,0.0,0.0,0.0,0.0,0.0,0.0,0.0,0.0,0.0,0.0,0.0,0.0,0.0,0.0,0.0,0.0,0.0,0.0,0.0,0.0,0.0,0.0,0.0,0.0,0.0,0.0,0.0,0.0,0.0,0.0,0.0,0.0,0.0,0.0,0.0,0.0,0.0,0.0,0.0,0.0,0.0,0.0,0.0,0.0,0.0,0.0,0.0,0.0,0.0,0.0,0.0,0.0,0.0,0.0,0.0,0.0,0.0,0.0,0.0,0.0,0.0,0.0,0.0,0.0,0.0,0.0,0.0,0.0,0.0,0.0,0.0,0.0,0.0,2.1684,2.726,2.9836,3.0629,2.9245,2.8202,2.6427,2.358,0.0,0.0,0.0,0.0,0.0,0.0,0.0,0.0,0.0,0.0,0.0,0.0,0.0,0.0,0.0,0.0,0.0,0.0,0.0,0.0,0.0,0.0,0.0,0.0,0.0,0.0,0.0,0.0,0.0,0.0,0.0,0.0,0.0,0.0,0.0,0.0,0.0,0.0,0.0,0.0,0.0,0.0,0.0,0.0,0.0,0.0,0.0,0.0,0.0,0.0,0.0,0.0,0.0,0.0,0.0,0.0,0.0,0.0,0.0,0.0,0.0,0.0,0.0,0.0,0.0,0.0,0.0,0.0,0.0,0.0,0.0,0.0,0.0,0.0,0.0,0.0,0.0,0.0,0.0,0.0,0.0,0.0,0.0,0.0,0.0,0.0,0.0,0.0,0.0,0.0,0.0,0.0,0.0,0.0,0.0,0.0,0.0,0.0,0.0,0.0,0.0,0.0,0.0,2.1625,2.4919,2.8727,3.0582,3.1078,2.9945,2.8717,2.6723,2.3742,2.0221,0.0,0.0,0.0,0.0,0.0,0.0,0.0,0.0,0.0,0.0,0.0,0.0,0.0,0.0,0.0,0.0,0.0,0.0,0.0,0.0,0.0,0.0,0.0,0.0,0.0,0.0,0.0,0.0,0.0,0.0,0.0,0.0,0.0,0.0,0.0,0.0,0.0,0.0,0.0,0.0,0.0,0.0,0.0,0.0,0.0,0.0,0.0,0.0,0.0,0.0,0.0,0.0,0.0,0.0,0.0,0.0,0.0,0.0,0.0,0.0,0.0,0.0,0.0,0.0,0.0,0.0,0.0,0.0,0.0,0.0,0.0,0.0,0.0,0.0,0.0,0.0,0.0,0.0,0.0,0.0,0.0,0.0,0.0,0.0,0.0,0.0,0.0,0.0,0.0,0.0,0.0,0.0,0.0,0.0,0.0,0.0,0.0,0.0,0.0,0.0,0.0,0.0,2.5368,2.7769,2.9621,3.0823,3.1108,3.0129,2.8654,2.6543,2.3693,2.0423,0.0,0.0,0.0,0.0,0.0,0.0,0.0,0.0,0.0,0.0,0.0,0.0,0.0,0.0,0.0,0.0,0.0,0.0,0.0,0.0,0.0,0.0,0.0,0.0,0.0,0.0,0.0,0.0,0.0,0.0,0.0,0.0,0.0,0.0,0.0,0.0,0.0,0.0,0.0,0.0,0.0,0.0,0.0,0.0,0.0,0.0,0.0,0.0,0.0,0.0,0.0,0.0,0.0,0.0,0.0,0.0,0.0,0.0,0.0,0.0,0.0,0.0,0.0,0.0,0.0,0.0,0.0,0.0,0.0,0.0,0.0,0.0,0.0,0.0,0.0,0.0,0.0,0.0,0.0,0.0,0.0,0.0,0.0,0.0,0.0,0.0,0.0,0.0,0.0,0.0,0.0,0.0,0.0,0.0,0.0,0.0,0.0,0.0,0.0,0.0,0.0,0.0,2.6422,2.8966,3.0313,3.1062,3.09,2.949,2.7898,2.5961,2.3662,1.9957,0.0,0.0,0.0,0.0,0.0,0.0,0.0,0.0,0.0,0.0,0.0,0.0,0.0,0.0,0.0,0.0,0.0,0.0,0.0,0.0,0.0,0.0,0.0,0.0,0.0,0.0,0.0,0.0,0.0,0.0,0.0,0.0,0.0,0.0,0.0,0.0,0.0,0.0,0.0,0.0,0.0,0.0,0.0,0.0,0.0,0.0,0.0,0.0,0.0,0.0,0.0,0.0,0.0,0.0,0.0,0.0,0.0,0.0,0.0,0.0,0.0,0.0,0.0,0.0,0.0,0.0,0.0,0.0,0.0,0.0,0.0,0.0,0.0,0.0,0.0,0.0,0.0,0.0,0.0,0.0,0.0,0.0,0.0,0.0,0.0,0.0,0.0,0.0,0.0,0.0,0.0,0.0,0.0,0.0,0.0,0.0,0.0,0.0,0.0,0.0,0.0,0.0,2.6782,2.9139,0.0,3.1347,3.1384,3.039,2.8374,2.617,2.3833,0.0,0.0,0.0,0.0,0.0,0.0,0.0,0.0,0.0,0.0,0.0,0.0,0.0,0.0,0.0,0.0,0.0,0.0,0.0,0.0,0.0,0.0,0.0,0.0,0.0,0.0,0.0,0.0,0.0,0.0,0.0,0.0,0.0,0.0,0.0,0.0,0.0,0.0,0.0,0.0,0.0,0.0,0.0,0.0,0.0,0.0,0.0,0.0,0.0,0.0,0.0,0.0,0.0,0.0,0.0,0.0,0.0,0.0,0.0,0.0,0.0,0.0,0.0,0.0,0.0,0.0,0.0,0.0,0.0,0.0,0.0,0.0,0.0,0.0,0.0,0.0,0.0,0.0,0.0,0.0,0.0,0.0,0.0,0.0,0.0,0.0,0.0,0.0,0.0,0.0,0.0,0.0,0.0,0.0,0.0,0.0,0.0,0.0,0.0,0.0,0.0,0.0,2.4395,2.726,2.9495,0.0,3.1777,3.1886,3.1137,2.9074,2.6808,2.4397,0.0,0.0,0.0,0.0,0.0,0.0,0.0,0.0,0.0,0.0,0.0,0.0,0.0,0.0,0.0,0.0,0.0,0.0,0.0,0.0,0.0,0.0,0.0,0.0,0.0,0.0,0.0,0.0,0.0,0.0,0.0,0.0,0.0,0.0,0.0,0.0,0.0,0.0,0.0,0.0,0.0,0.0,0.0,0.0,0.0,0.0,0.0,0.0,0.0,0.0,0.0,0.0,0.0,0.0,0.0,0.0,0.0,0.0,0.0,0.0,0.0,0.0,0.0,0.0,0.0,0.0,0.0,0.0,0.0,0.0,0.0,0.0,0.0,0.0,0.0,0.0,0.0,0.0,0.0,0.0,0.0,0.0,0.0,0.0,0.0,0.0,0.0,0.0,0.0,0.0,0.0,0.0,0.0,0.0,0.0,0.0,0.0,0.0,0.0,0.0,0.0,0.0,2.5106,2.7919,3.021,3.1845,3.2385,3.2284,3.1483,2.9945,2.7931,0.0,0.0,0.0,0.0,0.0,0.0,0.0,0.0,0.0,0.0,0.0,0.0,0.0,0.0,0.0,0.0,0.0,0.0,0.0,0.0,0.0,0.0,0.0,0.0,0.0,0.0,0.0,0.0,0.0,0.0,0.0,0.0,0.0,0.0,0.0,0.0,0.0,0.0,0.0,0.0,0.0,0.0,0.0,0.0,0.0,0.0,0.0,0.0,0.0,0.0,0.0,0.0,0.0,0.0,0.0,0.0,0.0,0.0,0.0,0.0,0.0,0.0,0.0,0.0,0.0,0.0,0.0,0.0,0.0,0.0,0.0,0.0,0.0,0.0,0.0,0.0,0.0,0.0,0.0,0.0,0.0,0.0,0.0,0.0,0.0,0.0,0.0,0.0,0.0,0.0,0.0,0.0,0.0,0.0,0.0,0.0,0.0,0.0,0.0,0.0,0.0,0.0,0.0,2.5213,2.8142,3.0586,3.2365,3.2895,3.3073,3.2845,3.1145,2.8998,2.6335,0.0,0.0,0.0,0.0,0.0,0.0,0.0,0.0,0.0,0.0,0.0,0.0,0.0,0.0,0.0,0.0,0.0,0.0,0.0,0.0,0.0,0.0,0.0,0.0,0.0,0.0,0.0,0.0,0.0,0.0,0.0,0.0,0.0,0.0,0.0,0.0,0.0,0.0,0.0,0.0,0.0,0.0,0.0,0.0,0.0,0.0,0.0,0.0,0.0,0.0,0.0,0.0,0.0,0.0,0.0,0.0,0.0,0.0,0.0,0.0,0.0,0.0,0.0,0.0,0.0,0.0,0.0,0.0,0.0,0.0,0.0,0.0,0.0,0.0,0.0,0.0,0.0,0.0,0.0,0.0,0.0,0.0,0.0,0.0,0.0,0.0,0.0,0.0,0.0,0.0,0.0,0.0,0.0,0.0,0.0,0.0,0.0,0.0,0.0,0.0,0.0,0.0,2.5372,2.8467,3.0979,3.2818,3.3521,3.3819,3.3637,3.2452,3.0395,2.7297,0.0,0.0,0.0,0.0,0.0,0.0,0.0,0.0,0.0,0.0,0.0,0.0,0.0,0.0,0.0,0.0,0.0,0.0,0.0,0.0,0.0,0.0,0.0,0.0,0.0,0.0,0.0,0.0,0.0,0.0,0.0,0.0,0.0,0.0,0.0,0.0,0.0,0.0,0.0,0.0,0.0,0.0,0.0,0.0,0.0,0.0,0.0,0.0,0.0,0.0,0.0,0.0,0.0,0.0,0.0,0.0,0.0,0.0,0.0,0.0,0.0,0.0,0.0,0.0,0.0,0.0,0.0,0.0,0.0,0.0,0.0,0.0,0.0,0.0,0.0,0.0,0.0,0.0,0.0,0.0,0.0,0.0,0.0,0.0,0.0,0.0,0.0,0.0,0.0,0.0,0.0,0.0,0.0,0.0,0.0,0.0,0.0,0.0,0.0,0.0,0.0,0.0,2.5628,2.8823,3.1398,3.3218,3.4128,3.4447,3.4049,3.3614,3.1847,2.8229,0.0,0.0,0.0,0.0,0.0,0.0,0.0,0.0,0.0,0.0,0.0,0.0,0.0,0.0,0.0,0.0,0.0,0.0,0.0,0.0,0.0,0.0,0.0,0.0,0.0,0.0,0.0,0.0,0.0,0.0,0.0,0.0,0.0,0.0,0.0,0.0,0.0,0.0,0.0,0.0,0.0,0.0,0.0,0.0,0.0,0.0,0.0,0.0,0.0,0.0,0.0,0.0,0.0,0.0,0.0,0.0,0.0,0.0,0.0,0.0,2.1316,0.0,0.0,0.0,0.0,0.0,0.0,0.0,0.0,0.0,0.0,0.0,0.0,0.0,0.0,0.0,0.0,0.0,0.0,0.0,0.0,0.0,0.0,0.0,0.0,0.0,0.0,0.0,0.0,0.0,0.0,0.0,0.0,0.0,0.0,0.0,0.0,0.0,0.0,0.0,0.0,0.0,2.6397,2.9514,3.1961,3.3469,3.4243,3.4769,3.4988,3.4016,3.2341,2.9751,2.5406,0.0,0.0,0.0,0.0,0.0,0.0,0.0,0.0,0.0,0.0,0.0,0.0,0.0,0.0,0.0,0.0,0.0,0.0,0.0,0.0,0.0,0.0,0.0,0.0,0.0,0.0,0.0,0.0,0.0,0.0,0.0,0.0,0.0,0.0,0.0,0.0,0.0,0.0,0.0,0.0,0.0,0.0,0.0,0.0,0.0,0.0,0.0,0.0,0.0,0.0,0.0,0.0,0.0,0.0,0.0,0.0,0.0,0.0,0.0,0.0,2.346,0.0,0.0,0.0,0.0,0.0,0.0,0.0,0.0,0.0,0.0,0.0,0.0,0.0,0.0,0.0,0.0,0.0,0.0,0.0,0.0,0.0,0.0,0.0,0.0,0.0,0.0,0.0,0.0,0.0,0.0,0.0,0.0,0.0,0.0,0.0,0.0,0.0,0.0,0.0,0.0,2.6586,2.9704,3.2092,3.3417,3.4185,3.4669,3.4641,3.4196,3.2848,3.0277,2.6894,0.0,0.0,0.0,0.0,0.0,0.0,0.0,0.0,0.0,0.0,0.0,0.0,0.0,0.0,0.0,0.0,0.0,0.0,0.0,0.0,0.0,0.0,0.0,0.0,0.0,0.0,0.0,0.0,0.0,0.0,0.0,0.0,0.0,0.0,0.0,0.0,0.0,0.0,0.0,0.0,0.0,0.0,0.0,0.0,0.0,0.0,0.0,0.0,0.0,0.0,0.0,0.0,0.0,3.3125,3.3693,3.3693,3.3693,3.3963,3.4173,3.1029,2.8577,2.6811,2.6692,0.0,0.0,0.0,0.0,0.0,0.0,0.0,0.0,0.0,0.0,0.0,0.0,0.0,0.0,0.0,0.0,0.0,0.0,0.0,0.0,0.0,0.0,0.0,0.0,2.7739,2.7705,0.0,0.0,0.0,0.0,0.0,0.0,0.0,0.0,0.0,0.0,0.0,0.0,2.7055,3.0058,3.236,3.3583,3.4443,3.4739,3.4303,3.4522,3.3491,3.0649,2.8213,2.5676,0.0,0.0,0.0,0.0,0.0,0.0,0.0,0.0,0.0,0.0,0.0,0.0,0.0,0.0,0.0,0.0,0.0,0.0,0.0,0.0,0.0,0.0,0.0,0.0,0.0,0.0,0.0,0.0,0.0,0.0,0.0,0.0,2.1066,2.1156,0.0,0.0,0.0,0.0,0.0,0.0,0.0,0.0,0.0,0.0,0.0,0.0,0.0,3.1659,3.3575,3.5519,3.6776,3.7375,3.8123,3.8476,3.8476,3.8476,3.8242,3.7734,3.7823,0.0,3.1569,3.0943,0.0,0.0,0.0,0.0,0.0,0.0,0.0,0.0,0.0,0.0,0.0,0.0,0.0,0.0,0.0,0.0,0.0,0.0,0.0,0.0,0.0,0.0,3.1719,3.1629,3.2168,3.2407,0.0,2.7859,2.4597,2.334,2.1964,0.0,0.0,0.0,0.0,0.0,0.0,0.0,2.8962,3.15,3.3455,3.4732,3.5583,3.5946,3.5686,3.5528,3.4472,3.2158,2.9262,2.6911,2.5221,2.2327,0.0,0.0,0.0,0.0,0.0,0.0,0.0,0.0,0.0,0.0,0.0,0.0,0.0,0.0,0.0,0.0,0.0,0.0,0.0,0.0,0.0,0.0,0.0,0.0,0.0,0.0,0.0,0.0,0.0,2.1705,2.3468,2.3849,2.4148,2.4208,0.0,0.0,0.0,0.0,0.0,0.0,0.0,0.0,0.0,3.2976,3.4951,3.6746,3.8367,4.0307,4.1444,4.1713,4.2402,4.2731,4.2731,4.2731,4.2551,4.2282,4.2581,4.1354,3.8901,3.5639,3.3155,3.112,0.0,0.0,0.0,0.0,2.8521,2.9505,3.0552,3.0043,0.0,2.891,0.0,0.0,0.0,0.0,0.0,0.0,0.0,0.0,0.0,0.0,3.4203,3.4203,3.4711,3.4891,3.3844,3.2018,2.9864,0.0,2.6213,2.4837,2.2422,0.0,0.0,0.0,0.0,2.6806,2.9823,3.204,3.3725,3.4616,3.5463,3.6064,3.627,3.6296,3.5656,3.4235,3.1765,2.9668,2.8196,2.5642,2.3173,0.0,0.0,0.0,0.0,0.0,0.0,0.0,0.0,0.0,0.0,0.0,0.0,0.0,0.0,0.0,0.0,0.0,0.0,0.0,0.0,0.0,0.0,0.0,0.0,0.0,0.0,0.0,0.0,2.4545,2.6368,2.7026,2.7235,2.732,0.0,0.0,0.0,0.0,0.0,0.0,3.2946,3.4292,3.5848,3.7674,3.9469,4.0965,4.2132,4.3928,4.4825,4.4825,4.5484,4.5813,4.5813,4.5813,4.5723,4.5574,4.5574,4.5185,4.4227,3.9978,3.7075,3.507,3.3066,3.1988,3.1629,3.1928,3.2557,3.3424,3.4622,3.4262,3.3274,3.3274,3.139,2.9052,2.8723,0.0,0.0,0.0,0.0,3.1001,3.2796,3.4741,3.6237,3.6237,3.6746,3.6926,3.5761,3.5522,3.4503,0.0,2.9804,2.8547,2.604,0.0,0.0,0.0,0.0,2.8248,3.0702,3.2617,3.403,3.4757,3.5606,3.63,3.6704,3.6861,3.6544,3.5622,3.3503,3.1718,3.0446,2.818,2.5778,2.3192,0.0,0.0,0.0,0.0,0.0,0.0,0.0,0.0,0.0,0.0,0.0,0.0,0.0,0.0,0.0,0.0,0.0,0.0,0.0,0.0,0.0,0.0,0.0,0.0,0.0,0.0,0.0,0.0,0.0,3.1122,3.175,0.0,0.0,0.0,0.0,3.2168,3.4083,3.5759,3.7045,3.8392,3.9738,4.1085,4.2432,4.3439,4.4167,4.5502,4.619,4.619,4.689,4.7189,4.7189,4.7189,4.686,4.6262,4.6262,4.5873,4.5125,4.3559,4.1833,3.9858,3.7853,3.7045,3.6956,3.6387,3.6985,3.8153,3.8871,3.8661,3.8033,3.8033,3.5848,3.2976,3.169,3.0432,0.0,0.0,3.2287,3.3604,3.4981,3.6776,3.8242,3.8242,3.8781,3.908,3.8362,3.8182,3.7045,0.0,3.1809,3.0703,2.8757,0.0,2.7345,2.7435,2.8603,3.0163,3.2138,3.3604,3.4872,3.6011,3.6811,3.7297,3.7159,3.729,3.6812,3.5486,3.3461,3.1955,3.119,2.8958,2.7012,2.5457,2.2544,0.0,0.0,0.0,0.0,0.0,0.0,0.0,0.0,0.0,0.0,0.0,0.0,0.0,0.0,0.0,0.0,0.0,0.0,0.0,0.0,0.0,0.0,0.0,0.0,0.0,0.0,0.0,0.0,3.513,3.6264,0.0,3.6593,3.5998,3.6297,3.8093,3.9679,4.0935,4.1803,4.312,4.4077,4.4556,4.5424,4.5992,4.6232,4.6711,4.695,4.695,4.7189,4.7309,4.7309,4.7309,4.7189,4.695,4.695,4.683,4.6561,4.6082,4.4466,4.2222,4.1093,4.0337,3.9948,3.9709,3.9918,4.0337,4.0606,4.0247,3.9529,3.8661,3.7315,3.5848,3.4981,3.4113,3.3574,3.4472,3.534,3.6237,3.7135,3.8212,3.905,3.905,3.923,3.911,3.8003,3.7764,3.7105,3.4861,3.4592,3.4083,3.2108,3.118,3.0761,3.0761,3.115,3.2018,3.3574,3.4562,3.5381,3.6006,3.6569,3.702,3.7412,3.7143,3.6647,3.59,3.4061,3.2679,3.1955,3.0683,2.9059,2.7046,2.456,2.2104,0.0,0.0,0.0,0.0,0.0,0.0,0.0,0.0,0.0,0.0,0.0,0.0,0.0,0.0,0.0,0.0,0.0,0.0,0.0,0.0,0.0,0.0,0.0,0.0,0.0,0.0,3.6776,3.8542,3.9918,4.0666,4.0427,3.9798,4.0127,4.1893,4.2851,4.3768,4.4915,4.5843,4.6369,4.6651,4.7309,4.7638,4.7638,4.7848,4.7967,4.7967,4.7967,4.7967,4.7967,4.7967,4.7967,4.7967,4.7728,4.7638,4.7608,4.7399,4.6292,4.4646,4.3958,4.3299,4.2671,4.2462,4.2372,4.2342,4.2132,4.1743,4.1205,4.0098,3.9439,3.896,3.8332,3.7674,3.7255,3.7674,3.7943,3.8182,3.8631,3.908,3.9373,3.9373,3.9373,3.9074,3.7973,3.7554,3.7165,3.6297,3.6327,3.5908,3.4143,3.3664,3.3365,3.2916,3.3036,3.3484,3.4384,3.507,3.5619,3.5973,3.6352,3.6905,3.765,3.7118,3.6579,3.6171,3.4443,3.3085,3.2327,3.1819,3.0615,2.8601,2.5879,2.3004,2.0002,0.0,0.0,0.0,0.0,0.0,0.0,0.0,0.0,0.0,0.0,0.0,0.0,0.0,0.0,0.0,0.0,0.0,0.0,0.0,0.0,0.0,0.0,0.0,3.3335,3.7015,4.0008,4.1354,4.2671,4.321,4.262,4.1961,4.2073,4.3319,4.3409,4.4246,4.6219,4.6279,4.6621,4.7279,4.7908,4.8267,4.8297,4.897,4.9299,4.9299,4.9299,4.9299,4.9299,4.9299,4.9299,4.9269,4.8566,4.8297,4.8237,4.7578,4.7309,4.7249,4.6548,4.5933,4.5274,4.4616,4.4377,4.4257,4.3589,4.3349,4.323,4.268,4.244,4.2291,4.1632,4.0935,4.0397,4.0397,3.9918,3.9373,3.9373,3.9373,3.9373,3.9373,3.9373,3.923,3.8542,3.7883,3.7404,3.7404,3.6926,3.6121,3.4833,3.513,3.513,3.3814,3.4173,0.0,3.4563,3.513,3.5649,3.5973,3.6414,3.7028,3.7796,3.7205,3.6637,3.6257,3.442,3.3017,3.2293,3.2259,3.1562,3.0123,2.6471,2.3105,2.0137,0.0,0.0,0.0,0.0,0.0,0.0,0.0,0.0,0.0,0.0,0.0,0.0,0.0,0.0,0.0,0.0,0.0,0.0,0.0,0.0,0.0,3.2796,3.519,3.6178,3.9349,4.2261,4.4018,4.5394,4.6142,4.5963,4.5364,4.5304,4.6142,4.5783,4.5963,4.698,4.6591,4.6621,4.7279,4.7489,4.7818,4.8297,4.897,4.9299,4.9299,4.9299,4.9299,4.9299,4.9299,4.9299,4.9269,4.8566,4.8297,4.8237,4.7578,4.7309,4.7279,4.71,4.692,4.6681,4.6022,4.5454,4.5005,4.4825,4.4436,4.4018,4.3838,4.312,4.2381,4.2171,4.1332,4.0397,4.0397,3.9918,3.9373,3.9373,3.9373,3.9373,3.9373,3.9373,3.923,3.8542,3.7883,3.7404,3.7404,3.7285,3.7045,3.6656,3.7165,3.7315,3.6477,3.6477,0.0,3.6031,3.6088,3.616,3.6034,3.6352,3.6687,3.6893,3.6799,3.6092,3.4659,3.3333,3.2293,3.1549,3.1515,3.1055,3.0142,2.7469,2.5151,0.0,0.0,0.0,0.0,0.0,0.0,0.0,0.0,0.0,0.0,0.0,0.0,0.0,0.0,0.0,0.0,0.0,0.0,0.0,0.0,0.0,0.0,3.6148,3.8631,4.0098,4.2192,4.4227,4.5933,4.707,4.7728,4.7728,4.713,4.689,4.7279,4.695,4.689,4.7279,4.7219,4.7309,4.7698,4.7967,4.8446,4.9105,4.9763,5.0092,5.0092,5.0092,5.0092,5.0092,5.0092,5.0092,5.0062,4.9404,4.9105,4.9045,4.8386,4.7967,0.0,0.0,0.0,0.0,0.0,4.5903,4.5304,4.5304,4.4855,4.4317,4.4317,4.3599,4.2731,4.25,4.1482,4.0337,4.0068,3.932,3.8631,3.8901,3.899,3.905,3.9313,3.9373,3.923,3.8542,3.7883,3.7404,3.7404,3.7404,0.0,3.7764,3.8123,3.8153,3.7494,3.7404,3.7195,3.6567,3.6477,3.6373,3.6064,3.6383,3.678,3.7049,3.6864,0.0,0.0,0.0,3.3038,3.2611,3.2273,0.0,0.0,0.0,0.0,0.0,0.0,0.0,0.0,2.163,2.207,0.0,0.0,0.0,0.0,0.0,0.0,0.0,0.0,0.0,0.0,0.0,0.0,0.0,0.0,0.0,0.0,3.917,4.1743,4.4287,4.5274,4.6142,4.7279,4.7938,4.8327,4.8386,4.7818,4.7459,4.7519,4.7459,4.7459,4.7519,0.0,0.0,0.0,0.0,4.9583,5.0196,5.0853,5.1229,5.1229,5.1229,5.1229,5.1229,5.1229,5.1229,5.1169,5.0465,5.0196,5.0136,4.9523,4.891,4.8207,4.7549,4.7309,4.7249,4.6651,4.6052,4.5514,4.5514,0.0,0.0,4.4556,4.4077,4.3379,4.283,4.1654,4.0487,3.9828,3.8661,3.7793,3.8452,3.8631,3.8781,3.9469,3.9589,3.9349,3.8751,3.8033,3.7554,3.7614,3.7584,3.7734,3.8392,3.8512,3.8302,3.7734,3.7644,3.7404,3.6776,3.6686,3.658,3.6245,0.0,0.0,3.7799,3.734,3.6802,3.63,3.5228,3.4607,3.4607,3.3931,3.3254,3.2699,3.1867,3.0818,2.9619,2.9619,2.9653,2.9687,2.6573,2.5895,0.0,0.0,0.0,0.0,0.0,0.0,0.0,0.0,0.0,0.0,0.0,0.0,0.0,0.0,0.0,3.9925,4.2192,4.4287,4.6441,4.7758,4.8431,4.8117,4.8207,4.8506,4.906,4.8476,4.8327,4.888,4.8386,4.8327,4.8865,4.8506,4.8536,4.912,4.9239,4.9583,5.0196,5.0853,5.1229,5.1229,0.0,0.0,5.1229,5.1229,5.1229,5.1169,5.0465,5.0196,5.0136,4.9523,4.891,4.8207,4.7549,4.7309,4.7279,4.716,4.704,4.692,4.692,4.6471,4.5891,4.5891,4.5484,4.4796,4.4137,4.303,0.0,4.1175,4.0038,3.917,3.9828,4.0008,4.0187,4.0846,4.0606,4.0157,4.0038,3.905,3.8362,3.8931,3.8571,3.8422,3.911,3.923,3.917,3.9014,3.8985,3.8781,3.8123,3.8033,3.7901,3.7576,3.7979,3.8028,3.7599,3.8075,3.7748,3.6246,3.5664,3.5363,3.5363,3.4675,3.4506,3.4957,3.366,3.3119,3.3444,3.3444,3.3728,3.4247,3.0683,2.9499,0.0,0.0,0.0,0.0,0.0,0.0,0.0,0.0,0.0,0.0,0.0,3.3245,3.5519,0.0,3.9409,4.2372,4.3958,4.5514,4.7519,4.87,4.9299,4.9254,4.9254,4.9404,4.9733,4.9464,4.9254,4.9299,4.9254,4.9254,4.9299,4.9254,4.9404,4.9733,4.9763,5.0062,5.0674,5.1003,5.1229,5.1229,5.1229,5.1229,5.1229,5.1229,5.1229,5.1199,5.0823,5.0674,5.0644,5.0032,4.9553,4.9194,4.8536,4.7878,4.7309,4.7309,4.7309,4.7309,4.7309,4.686,4.6279,4.6279,4.5873,4.5155,4.4496,4.3389,4.2261,4.1602,4.0427,3.9559,4.0217,4.0397,4.0576,4.1235,4.0876,4.0397,4.0397,3.9619,3.902,3.9313,3.914,3.902,3.9313,3.9373,3.9373,3.9373,3.9373,3.917,3.8482,3.8392,3.8257,3.7835,3.818,3.8272,3.7897,3.8237,3.803,3.7047,3.6858,3.6749,3.6749,3.64,3.6028,3.56,3.5633,3.5453,3.5047,3.5825,3.64,3.6705,3.4878,3.3998,0.0,0.0,0.0,0.0,0.0,0.0,0.0,0.0,3.112,3.2527,3.4771,3.7045,3.899,4.0247,4.1803,4.4287,4.5244,4.6352,4.8207,4.9164,4.9793,5.0136,5.0196,5.0255,5.0375,5.0375,5.0212,4.9703,5.0122,5.0182,4.9673,5.0152,5.0375,5.0375,5.0375,5.0644,5.1199,5.1229,5.1229,5.1229,5.1229,5.1229,5.1229,5.1229,5.1229,5.1229,5.1229,5.1229,5.1169,5.0614,5.0315,5.0136,4.9643,4.8745,4.7668,4.7549,4.7489,4.7489,4.7369,4.695,4.6459,4.6459,4.6142,4.5574,4.4915,4.3868,4.28,4.1983,4.0905,4.0127,4.0636,4.0786,4.0935,4.1594,4.1265,4.0786,4.0786,4.0277,3.9798,3.9798,3.9709,3.9582,3.9582,3.9499,3.9373,3.9373,3.9373,3.92,3.8661,3.8571,3.8462,3.809,3.8273,3.8504,3.8716,3.8691,3.8683,3.8753,3.8633,3.8531,3.8531,3.8261,3.755,3.6276,3.7347,3.7381,3.6242,3.7516,3.8193,3.8328,3.8328,3.7855,2.6033,2.756,3.0283,3.1629,3.2886,3.3815,0.0,0.0,3.537,3.7225,3.8811,4.0457,4.2363,4.2871,4.3648,4.5711,4.6651,4.7578,4.9,5.0212,5.081,5.0255,5.0196,5.0435,5.105,5.1109,5.1079,5.099,5.1079,5.1079,5.099,5.1079,5.1109,5.1109,5.1109,5.1139,5.1229,5.1229,5.1229,5.1229,5.1229,5.1229,5.1229,5.1229,5.1229,5.1229,5.1229,5.1229,5.1199,5.1139,5.0734,5.0196,5.0106,4.9673,4.903,4.8386,4.8177,4.8087,4.7519,4.7249,4.7189,4.7189,4.713,4.695,4.6292,4.5574,4.4706,4.3449,4.2581,4.2081,4.2171,4.2171,4.2351,4.297,4.2611,4.2171,4.2171,4.1662,4.1175,4.1175,4.0696,4.0277,4.0277,3.9798,3.9373,3.9373,3.9373,3.9343,3.932,3.932,3.929,3.92,3.9236,3.9608,4.0515,4.0572,4.095,4.176,4.1204,4.0832,4.0832,3.958,3.8802,3.8633,3.8159,3.8159,3.8633,3.8802,3.9208,3.9876,3.9876,3.9131,2.9924,3.0911,3.2736,3.4831,3.6656,3.7913,3.7913,3.8751,3.9828,4.1025,4.2312,4.3509,4.4317,4.4466,4.5005,0.0,4.713,4.7908,4.9583,5.0301,5.0391,4.9733,4.9015,4.8955,4.9972,5.0421,5.0614,5.0614,5.099,5.1229,5.1229,5.1229,5.1229,5.1229,5.1229,5.1229,5.1229,5.1229,5.1229,5.1229,5.1229,5.1229,5.1229,5.1229,5.1229,5.1229,5.1229,5.1229,5.1229,5.1229,5.1003,5.0764,5.0764,5.0631,5.0272,4.9224,4.8626,4.8237,4.7967,4.7638,4.7309,4.7309,4.7309,4.7249,4.698,4.6411,4.5783,4.5173,4.4317,4.3509,4.3509,4.321,4.3,4.323,4.2851,4.241,4.241,4.1871,4.1422,4.1422,4.0846,4.0397,4.0397,3.9858,3.9373,3.9373,3.9373,3.9373,3.9373,3.9373,3.9373,3.9373,3.9329,3.9665,4.0514,4.0534,4.086,4.1722,4.1157,4.0836,4.0915,4.0011,3.937,3.9005,3.9106,3.9106,3.9005,3.9411,3.9808,4.0113,4.0113,3.9774,3.2647,3.3544,3.4951,3.7584,3.9589,4.1025,4.1414,4.2222,4.309,4.3748,4.4616,4.5304,4.5304,4.5304,4.5663,4.686,4.7339,4.8147,4.9733,5.0226,5.0182,4.9419,4.8267,4.7818,4.8386,4.9194,4.9807,5.0166,5.0794,5.1229,5.1229,5.1229,5.1229,5.1229,5.1229,5.1229,5.1229,5.1229,5.1229,5.1229,5.1229,5.1229,5.1229,5.1229,5.1229,5.1229,5.1229,5.1229,5.1229,5.1229,5.1229,5.1229,5.1229,5.1229,5.1109,5.0152,4.9404,4.8775,4.8416,4.7967,4.7549,4.7369,4.7309,4.7309,4.7309,4.698,4.6561,4.6339,4.5592,4.4825,4.4616,4.4227,4.3798,4.3618,4.324,4.289,4.271,4.2252,4.1923,4.1923,4.1384,4.0935,4.0935,4.0247,3.9679,3.9679,3.9529,3.9373,3.9373,3.9373,3.9373,3.9373,3.9415,3.9702,4.0441,4.0484,4.0788,4.1511,4.1054,4.0851,4.1106,4.0622,4.0228,3.9918,4.0451,4.0426,3.9884,4.0451,4.0722,4.0722,4.0722,4.0722,3.2946,3.4891,3.7015,3.9649,4.1362,4.268,4.3898,4.4227,4.4436,4.5095,4.5274,4.5304,4.5304,4.5304,4.5514,4.6232,4.7429,4.8506,4.9239,5.0391,5.072,4.9449,4.87,4.7758,0.0,4.7578,4.8865,5.0106,5.0794,5.1229,5.1229,5.1229,5.1229,5.1229,5.1229,5.1229,5.1229,5.1229,5.1229,5.1229,5.1229,5.1229,5.1229,5.1229,5.1229,5.1229,5.1229,5.1229,5.1229,5.1229,5.1229,5.1229,5.1229,5.1229,5.1229,5.1169,5.0704,4.9956,4.8716,4.8267,4.8147,4.7519,4.7309,4.7309,4.7309,4.7309,4.713,4.6459,4.6249,4.6112,4.5454,4.5244,4.5065,4.4436,4.4257,4.4077,4.3409,4.326,4.323,4.323,4.2731,4.2351,4.2351,4.1235,4.0367,4.0367,3.9828,3.9373,3.9373,3.9373,3.9373,3.9373,3.9732,4.0165,4.0659,4.0999,4.1399,4.1949,4.1621,4.1599,4.2137,4.1735,4.1759,4.2185,4.2219,4.2219,4.2185,4.2219,4.2219,4.2219,4.2219,4.2219,3.531,3.7225,3.905,4.1645,4.3329,4.4526,4.5454,4.5992,4.6232,4.6022,4.5274,4.4646,4.4646,4.4287,4.4456,4.604,4.7429,4.8656,4.9763,5.0255,5.0242,4.9419,4.7908,0.0,0.0,0.0,0.0,4.8267,4.9657,5.0524,5.0524,5.0943,5.1229,5.1229,5.1229,5.1229,5.1229,5.1229,5.1229,5.1229,5.1229,5.1229,5.1229,5.1229,5.1229,5.1229,5.1229,5.1229,5.1229,5.1229,5.1229,5.1229,5.1229,5.1229,5.1229,5.1229,5.1079,5.069,4.9404,4.8656,4.8177,4.7519,4.7309,4.7309,4.7309,4.7309,4.7249,4.704,4.6651,4.6262,4.6022,4.5633,4.5244,4.5005,4.4616,4.4257,4.3977,4.3589,4.329,4.329,4.2791,4.241,4.241,4.1265,4.0247,3.9798,3.9523,3.9373,3.9373,3.9373,3.9373,3.9373,3.9625,3.995,4.0339,4.0585,4.0925,4.1295,4.0991,4.1021,4.1515,4.1282,4.1409,4.1963,4.2099,4.2206,4.2286,4.2286,4.2286,4.2286,4.2286,4.2286,3.7434,3.9619,4.1624,4.3569,4.5035,4.6142,4.6561,4.683,4.6681,4.5741,4.4347,4.3269,4.3269,4.291,4.3299,4.5233,4.71,4.8656,4.9733,5.0255,5.0331,4.9703,4.8087,4.692,0.0,0.0,0.0,4.7279,4.8895,5.0002,5.0196,5.0823,5.1229,5.1229,5.1229,5.1229,5.1229,5.1229,5.1229,5.1229,5.1229,5.1229,5.1229,5.1229,5.1229,5.1229,5.1229,5.1229,5.1229,5.1229,5.1229,5.1229,5.1229,5.1229,5.1229,5.1229,5.1229,5.1079,4.9972,4.9194,4.8536,4.7878,4.7489,4.7309,4.7309,4.7309,4.7309,4.7309,4.701,4.6681,4.6681,4.6352,4.5963,4.5723,4.5334,4.4885,4.4407,4.3947,4.3589,4.3349,4.3,4.2701,4.2701,4.1803,4.0876,4.0217,4.0127,3.9948,3.9433,3.9373,3.9373,3.9373,3.9517,3.9696,3.9879,4.0021,4.0231,4.0409,4.0349,4.0534,4.0991,4.1175,4.1586,4.2342,4.2568,4.2852,4.3125,4.3125,4.3125,4.3125,4.3125,4.3125,3.9254,4.2013,4.4616,4.5334,4.6441,4.7339,4.7309,4.677,4.5873,4.4496,4.2611,4.1242,0.0,0.0,4.1833,4.3898,4.6471,4.8476,4.9209,5.0391,5.0943,0.0,0.0,0.0,0.0,0.0,0.0,4.7309,0.0,4.9523,5.0106,5.084,5.1229,5.1229,5.1229,5.1229,5.1229,5.1229,5.1229,5.1229,5.1229,5.1229,5.1229,5.1229,5.1229,5.1229,5.1229,5.1229,5.1229,5.1229,5.1229,5.1229,5.1229,5.1229,5.1229,5.1229,5.1229,5.1139,5.0465,4.9853,4.9269,4.8566,4.7908,4.7399,4.7369,4.7369,4.7339,4.7309,4.7309,4.7309,4.7309,4.7309,4.716,4.6531,4.6309,4.592,4.4706,4.4377,4.4137,4.3469,4.3319,4.329,4.326,4.2761,4.2171,4.1512,4.1422,4.0905,3.9649,3.9433,3.9469,3.9373,3.9373,3.9373,3.9373,3.9373,3.9373,3.9373,3.9798,4.0196,4.069,4.1426,4.2269,4.3259,4.3621,4.4064,4.4615,4.4615,4.4615,4.4615,4.4615,4.4615,4.2312,4.4766,4.683,4.8011,4.8147,4.7908,4.7429,4.6411,4.5035,4.3279,4.0487,3.8571,0.0,0.0,0.0,4.241,4.5514,0.0,4.9149,5.0391,0.0,5.099,0.0,4.9494,4.8835,4.8177,0.0,0.0,4.8805,4.9389,4.9494,5.0601,5.1229,5.1229,5.1229,5.1229,5.1229,5.1229,5.1229,5.1229,5.1229,5.1229,5.1229,5.1229,5.1229,5.1229,5.1229,5.1229,5.1229,5.1229,5.1229,5.1229,5.1229,5.1229,5.1229,5.1229,5.1229,5.1199,5.102,5.0541,4.9883,4.9224,4.894,4.8686,4.8177,4.8027,4.7938,4.7429,4.7309,4.7309,4.7309,4.7309,4.7279,4.71,4.6681,4.619,4.5831,4.5035,4.4257,4.4107,4.3618,4.314,4.2701,4.25,4.2171,4.1512,4.1422,4.1085,4.0247,4.0157,3.9948,3.9433,3.9373,3.9373,3.9373,3.9373,3.9373,3.9373,3.9798,4.0226,4.0749,4.1557,4.2428,4.3259,4.3772,4.4212,4.4615,4.4615,4.4615,4.4615,4.4615,4.4615,4.4526,4.686,4.8626,4.8805,4.882,4.8327,4.677,4.5185,4.3359,4.1123,3.8003,3.5878,3.6537,3.6626,3.7644,0.0,0.0,0.0,4.8267,4.9793,5.069,0.0,5.0032,0.0,4.9329,4.897,4.876,0.0,4.912,4.9449,4.9673,5.0661,5.1229,5.1229,5.1229,5.1229,5.1229,5.1229,5.1229,5.1229,5.1229,5.1229,5.1229,5.1229,5.1229,5.1229,0.0,5.1229,5.1229,5.1229,5.1229,5.1229,5.1229,5.1229,5.1229,5.1229,5.1229,5.1229,5.1229,5.0913,5.0524,4.9912,4.9494,4.9239,4.888,4.8506,4.8207,4.7848,4.7519,4.7309,4.7309,4.7309,4.7309,4.7309,4.701,4.6681,4.6339,4.5681,4.5005,4.4436,4.3738,4.317,4.2851,4.2791,4.2671,4.2282,4.2252,4.2013,4.1354,4.0756,4.0157,3.9463,3.9373,3.9373,3.9373,3.9373,3.9373,3.9373,3.9798,4.0226,4.0752,4.1557,4.2396,4.3259,4.3743,4.4184,4.4615,4.4615,4.4615,4.4615,4.4615,4.4615,4.6322,4.8402,4.9927,4.8835,4.8835,4.8491,4.5783,4.3449,4.1123,3.8422,0.0,3.3095,3.3964,3.4651,3.6237,3.9709,0.0,4.6322,4.707,4.8761,4.9763,4.9239,4.9269,4.9329,4.9419,4.9509,4.9569,4.9569,4.9569,4.9733,5.0166,5.0823,5.1229,5.1229,5.1229,5.1229,5.1229,5.1229,5.1229,5.1229,5.1229,5.1229,5.1229,5.1229,5.1229,5.1229,5.1229,5.1229,5.1229,5.1229,5.1229,5.1229,5.1229,5.1229,5.1229,5.1229,5.1229,5.1229,5.1229,5.1229,5.1109,5.0495,4.9972,4.9569,4.9479,4.8985,4.8506,4.8327,4.7878,4.7429,4.7339,4.7309,4.7309,4.7309,4.7309,4.716,4.6591,4.6339,4.5891,4.4586,4.3798,4.3379,4.3319,4.329,4.329,4.329,4.329,4.309,4.25,4.1354,4.0397,3.9738,3.9679,3.9649,3.9559,3.9559,3.9535,3.9481,3.9869,4.0266,4.0758,4.1492,4.2332,4.3259,4.3684,4.4064,4.4615,4.4615,4.4615,4.4615,4.4615,4.4615,4.8237,4.9494,5.0136,4.9897,4.9164,4.7758,4.5095,4.1683,0.0,0.0,3.2108,2.9983,3.169,3.2557,3.4472,3.8871,4.2432,4.5095,4.6322,4.7728,4.8596,0.0,4.897,4.9494,5.0032,5.0571,0.0,0.0,5.087,5.069,5.0226,5.0823,5.1229,5.1229,5.1229,5.1229,5.1229,5.1229,5.1229,5.1229,5.1229,5.1229,5.1229,5.1229,5.1229,5.1229,5.1229,0.0,5.1229,5.1229,5.1229,5.1229,5.1229,5.1229,5.1229,5.1229,5.1229,5.1229,5.1229,5.1229,5.1199,5.1079,5.096,5.078,5.0196,4.9956,4.9628,4.8596,4.8207,4.7997,4.7459,4.7309,4.7309,4.7309,4.7309,4.7279,4.716,4.6711,4.5891,4.4586,4.4227,4.3917,4.3379,4.329,4.329,4.329,4.329,4.309,4.25,4.2201,4.1811,4.1115,4.1025,4.0816,4.0277,4.0364,4.0305,3.9935,4.0226,4.0646,4.1158,4.1916,4.2585,4.3292,4.3802,4.4241,4.4615,4.4615,4.4615,4.4615,4.4615,4.4615,4.897,5.0002,5.0465,4.9464,4.8476,4.68,4.312,0.0,0.0,0.0,2.9834,2.7949,2.9235,3.0552,0.0,3.6267,4.0187,4.315,4.4107,4.5992,0.0,4.7279,4.8147,4.9015,0.0,5.0631,5.1229,5.1229,5.1229,5.1079,5.0734,5.105,5.1229,5.1229,5.1229,5.1229,5.1229,5.1229,5.1229,5.1229,5.1229,5.1229,5.1229,5.1229,5.1229,5.1229,5.1229,0.0,5.1229,5.1229,5.1229,5.1229,5.1229,5.1229,5.1229,5.1229,5.1229,5.1229,5.1229,5.1229,5.1229,5.1229,5.1229,5.1169,5.084,5.0465,5.0076,4.9494,4.8805,4.8207,4.7908,4.7549,4.7309,4.7309,4.7309,4.7309,4.7309,4.68,4.61,4.5484,4.5065,4.4736,4.4407,4.4077,4.3798,4.3798,4.3499,4.32,4.291,4.288,4.2491,4.1542,4.1422,4.1115,4.0457,4.0624,4.0684,4.037,4.0715,4.1125,4.1656,4.2206,4.2741,4.3292,4.3743,4.4155,4.4615,4.4615,4.4615,4.4615,4.4615,4.4615,4.909,5.0002,5.0331,4.8356,4.7249,4.5454,4.0816,3.6985,0.0,3.0492,2.7679,2.6057,2.7016,2.8517,3.0642,0.0,3.7584,4.0733,4.1841,4.4107,4.5741,0.0,4.7279,0.0,4.9239,5.0451,0.0,5.1229,5.1229,5.1229,5.1229,5.1229,5.1229,5.1229,5.1229,5.1229,5.1229,5.1229,5.1229,5.1229,5.1229,5.1229,5.1229,5.1229,5.1229,5.1229,5.1229,0.0,0.0,5.1229,5.1229,5.1229,5.1229,5.1229,5.1229,5.1229,5.1229,5.1229,5.1229,5.1229,5.1229,5.1229,5.1229,5.1229,5.1229,5.0823,5.0375,5.0226,4.9494,4.8626,4.8356,4.7908,4.7489,4.7339,4.7309,4.7309,4.7309,4.689,4.6459,4.6309,4.5873,4.5454,4.5304,4.4855,4.4466,4.4347,4.3828,4.3439,4.3319,4.329,4.2901,4.1893,4.1803,4.1534,4.0876,4.1193,4.1398,4.1258,4.1664,4.2099,4.2558,4.2975,4.3287,4.3523,4.3916,4.426,4.4615,4.4615,4.4615,4.4615,4.4615,4.4615,4.897,4.9389,4.8985,4.698,4.5544,4.3359,3.8751,0.0,3.0372,2.8304,2.5309,2.3631,2.5465,2.6422,2.8218,3.2078,3.507,3.7793,4.0247,4.2342,4.4007,4.5244,0.0,0.0,4.9179,5.0451,0.0,5.1229,5.1229,5.1229,5.1229,5.1229,5.1229,5.1229,5.1229,5.1229,5.1229,5.1229,5.1229,5.1229,5.1229,5.1229,5.1229,5.1229,5.1229,5.1229,5.1229,0.0,0.0,5.1229,5.1229,5.1229,5.1229,5.1229,5.1229,5.1229,5.1229,5.1229,5.1229,5.1229,5.1229,5.1229,5.1229,5.1229,5.1229,5.1169,5.099,5.0375,5.0106,4.9747,4.8596,4.8237,4.8027,4.7459,4.7309,4.7309,4.7309,4.7249,4.704,4.6441,4.6219,4.6022,4.5394,4.5244,4.5005,4.4407,4.4257,4.4018,4.3379,4.329,4.326,4.314,4.311,4.288,4.2261,4.2766,4.31,4.3075,4.3522,4.3996,4.4495,4.4886,4.4815,4.4315,4.4803,4.4946,4.4615,4.4615,4.4615,4.4615,4.4615,4.4615,4.7728,4.87,4.873,4.6292,4.4407,4.1923,3.7315,3.2677,2.8906,2.732,2.471,2.3182,2.4694,2.5555,2.6901,2.9714,3.2706,3.534,3.7195,3.9828,4.2043,4.3429,4.4706,0.0,0.0,0.0,5.0361,5.1169,5.1229,5.1229,5.1229,5.1229,5.1229,5.1229,5.1229,5.1229,5.1229,5.1229,5.1229,5.1229,5.1229,5.1229,5.1229,5.1229,5.1229,5.1229,5.1229,0.0,0.0,5.1229,5.1229,5.1229,5.1229,5.1229,5.1229,5.1229,5.1229,5.1229,5.1229,5.1229,5.1229,5.1229,5.1229,5.1229,5.1229,5.1229,5.1122,5.09,5.0495,5.0076,4.9613,4.8865,4.8117,4.7459,4.7309,4.7309,4.7309,4.7309,4.7219,4.695,4.692,4.683,4.6561,4.6172,4.5813,4.5532,4.5155,4.4796,4.4556,4.4167,4.3888,4.3888,4.3529,4.306,4.244,4.3031,4.351,4.3783,4.4191,4.469,4.5209,4.537,4.5136,4.441,4.4806,4.4892,4.4615,4.4615,4.4615,4.4615,4.4615,4.4615,4.5783,4.7249,4.7758,4.5095,4.294,4.0337,3.5908,3.133,2.7619,2.6273,2.3939,2.2503,2.3819,2.4418,2.5465,2.7649,3.0283,3.2796,3.4891,3.7704,4.0157,0.0,0.0,4.4526,0.0,4.8267,4.9823,5.1109,5.1229,5.1229,5.1229,5.1229,5.1229,5.1229,5.1229,5.1229,5.1229,5.1229,5.1229,5.1229,5.1229,5.1229,5.1229,5.1229,5.1229,5.1229,5.1229,0.0,0.0,5.1229,5.1229,5.1229,5.1229,5.1229,5.1229,5.1229,5.1229,5.1229,5.1229,5.1229,5.1229,5.1229,5.1229,5.1229,5.1229,5.1229,5.1229,5.1229,5.0704,5.0196,5.0196,4.9254,4.8177,4.7698,4.7459,4.7309,4.7309,4.7309,4.7309,4.7309,4.7309,4.7309,4.7309,4.692,4.6561,4.6309,4.5903,4.5514,4.5334,4.4885,4.4526,4.4347,4.3898,4.3359,4.2701,4.3373,4.4096,4.4697,4.5204,4.5734,4.6281,4.6378,4.6079,4.5222,4.553,4.5559,4.5258,4.5258,4.5258,4.5258,4.5258,4.5258,4.306,4.4855,4.5723,4.3099,4.0905,3.8387,3.4412,2.9924,2.6243,2.4903,2.2542,2.1126,2.2463,2.2733,2.3571,2.6207,2.7769,3.0013,3.3964,3.6178,0.0,0.0,0.0,4.3189,4.5125,4.7698,4.9823,5.1109,5.1229,0.0,5.1229,5.1229,5.1229,5.1229,5.1229,5.1229,5.1229,5.1229,5.1229,5.1229,5.1229,5.1229,5.1229,5.1229,5.1229,5.1229,0.0,0.0,0.0,5.1229,5.1229,5.1229,5.1229,5.1229,5.1229,5.1229,5.1229,5.1229,5.1229,5.1229,5.1229,5.1229,5.1229,5.1229,5.1229,5.1229,5.1229,5.1229,5.0704,5.0196,5.0196,4.9254,4.8297,4.8267,4.7788,4.7309,4.7309,4.7309,4.7309,4.7309,4.7309,4.7309,4.7309,4.7309,4.707,4.6369,4.6279,4.6052,4.5394,4.5274,4.5035,4.4377,4.4317,4.4047,4.3349,4.4112,4.5036,4.6138,4.6728,4.7405,4.8129,4.8354,4.8052,4.7063,4.7407,4.7315,4.6786,4.6786,4.6786,4.6786,4.6786,4.6786,4.0187,4.1773,4.2402,4.0224,3.8182,3.5818,3.2258,2.8248,2.4963,2.4118,2.2183,2.1126,2.2463,2.2703,2.3272,2.4963,2.6722,2.8843,0.0,0.0,0.0,3.9768,4.2611,4.4975,0.0,0.0,4.9823,5.1109,5.1229,5.1229,5.1229,5.1229,5.1229,5.1229,5.1229,5.1229,5.1229,5.1229,5.1229,5.1229,5.1229,5.1229,5.1229,5.1229,5.1229,0.0,0.0,0.0,0.0,5.1229,5.1229,5.1229,5.1229,5.1229,5.1229,5.1229,5.1229,5.1229,5.1229,5.1229,5.1229,5.1229,5.1229,5.1229,5.1229,5.1229,5.1229,5.1229,5.1079,5.0764,5.0315,4.9897,4.9404,4.8506,4.8117,4.7848,4.7399,4.7309,4.7309,4.7309,4.7309,4.7309,4.7309,4.7309,4.7249,4.704,4.698,4.692,4.6711,4.6292,4.5903,4.5723,4.4855,4.4047,4.3349,4.4112,4.5036,4.6138,4.6898,4.7737,4.8704,4.8798,4.8461,4.7659,4.775,4.747,4.6786,4.6786,4.6786,4.6786,4.6786,4.6786,3.6447,3.8332,3.911,3.7379,3.5459,3.3335,3.0761,2.7081,2.4036,2.34,2.1695,2.0647,2.1724,2.1934,2.2443,2.3977,2.5495,2.741,0.0,0.0,0.0,4.0479,0.0,0.0,0.0,4.8506,4.9823,5.1109,5.1229,5.1229,5.1229,5.1229,5.1229,5.1229,5.1229,5.1229,5.1229,5.1229,5.1229,5.1229,5.1229,5.1229,5.1229,5.1229,5.1229,0.0,0.0,0.0,0.0,5.1229,5.1229,5.1229,5.1229,5.1229,5.1229,5.1229,5.1229,5.1229,5.1229,5.1229,5.1229,5.1229,5.1229,5.1229,5.1229,5.1229,5.1229,5.1229,5.1229,5.1109,5.0674,5.0375,4.9986,4.9224,4.8656,4.8177,4.7758,4.7489,4.7309,4.7309,4.7309,4.7309,4.7309,4.7309,4.7309,4.7309,4.7309,4.7309,4.7309,4.695,4.6591,4.6309,4.5574,4.4706,4.3738,4.4264,4.5036,4.6138,4.6965,4.7869,4.8987,4.9018,4.8781,4.8342,4.8342,4.8105,4.7631,4.7631,4.7631,4.7631,4.7631,4.7631,0.0,3.4472,3.5759,3.4474,3.2706,3.0943,2.9594,2.6327,0.0,2.2763,2.1055,1.9899,2.0628,2.0808,2.1485,2.343,2.4335,2.6189,0.0,3.3694,0.0,0.0,4.4676,0.0,4.7309,4.8596,4.9853,5.1139,5.1229,5.1229,5.1229,5.1229,5.1229,5.1229,5.1229,5.1229,5.1229,5.1229,5.1229,5.1229,5.1229,5.1229,5.1229,5.1229,5.1229,0.0,0.0,0.0,0.0,5.1229,5.1229,5.1229,5.1229,5.1229,5.1229,5.1229,5.1229,5.1229,5.1229,5.1229,5.1229,5.1229,5.1229,5.1229,5.1229,5.1229,5.1229,5.1229,5.1229,5.1229,5.1229,5.0734,5.0255,5.0196,4.9314,4.8386,4.8297,4.7818,4.7369,4.7309,4.7309,4.7309,4.7309,4.7309,4.7309,4.7309,4.7309,4.7309,4.7309,4.7309,4.707,4.6471,4.6352,4.5813,4.4597,4.46,4.5098,4.6138,4.6965,4.7869,4.8987,4.9018,4.9018,4.9018,4.9018,4.9018,4.9018,4.9018,4.9018,4.9018,4.9018,4.9018,2.7081,0.0,3.1719,3.0969,3.0013,2.8816,0.0,2.4657,2.2733,2.2054,2.0756,2.0067,2.1246,2.1874,2.2862,2.4807,2.6123,2.8098,3.1569,0.0,0.0,4.5143,4.6352,4.7369,4.8686,4.9523,5.0361,5.1169,5.1229,5.1229,5.1229,5.1229,5.1229,5.1229,5.1229,5.1229,5.1229,5.1229,5.1229,5.1229,5.1229,5.1229,5.1229,5.1229,5.1229,0.0,0.0,0.0,5.1229,5.1229,5.1229,5.1229,5.1229,5.1229,5.1229,5.1229,5.1229,5.1229,5.1229,5.1229,5.1229,5.1229,5.1229,5.1229,5.1229,5.1229,5.1229,5.1229,5.1229,5.1229,5.1229,5.1063,5.0823,5.0315,4.9956,4.9494,4.8506,4.8177,4.7908,4.7399,4.7309,4.7309,4.7309,4.7309,4.7309,4.7309,4.7309,4.7309,4.7309,4.7309,4.7249,4.71,4.6719,4.6478,4.6342,4.5773,4.5597,4.617,4.6965,4.7869,4.8987,4.9018,4.9018,4.9018,4.9018,4.9018,4.9018,4.9018,4.9018,4.9018,4.9018,4.9018,2.5322,2.7141,2.8547,2.7919,2.726,2.6398,2.5016,2.3191,2.1665,2.1306,2.0408,2.0127,2.1455,2.2254,2.3452,2.5674,2.744,0.0,0.0,0.0,4.3629,4.7249,4.7997,4.8716,0.0,5.0481,5.0794,5.1199,5.1229,5.1229,5.1229,5.1229,5.1229,5.1229,5.1229,5.1229,5.1229,5.1229,5.1229,5.1229,5.1229,5.1229,5.1229,5.1229,5.1229,0.0,0.0,0.0,5.1229,5.1229,5.1229,5.1229,5.1229,5.1229,5.1229,5.1229,5.1229,5.1229,5.1229,5.1229,5.1229,5.1229,5.1229,5.1229,5.1229,5.1229,5.1229,5.1229,5.1229,5.1229,5.1229,5.1229,5.1139,5.0734,5.0405,4.9986,4.9344,4.8955,4.8626,4.8267,4.8207,4.8207,4.8207,4.7967,4.7758,4.7758,4.7489,4.7309,4.7309,4.7309,4.7309,4.7309,4.7249,4.7266,4.7344,4.7277,4.7259,4.7412,4.789,4.8563,4.9461,4.9187,4.9018,4.9018,4.9018,4.9018,4.9018,4.9018,4.9018,4.9018,4.9018,4.9018,2.5106,2.6004,2.6452,2.5884,2.5382,2.4844,2.4088,2.2562,2.1286,2.1286,2.0767,2.0726,2.2054,2.2942,0.0,0.0,0.0,0.0,3.9798,4.2521,4.5185,4.888,4.9389,0.0,5.1109,5.1229,5.1229,5.1229,0.0,5.1229,5.1229,5.1229,5.1229,5.1229,5.1229,5.1229,5.1229,5.1229,5.1229,5.1229,5.1229,5.1229,5.1229,5.1229,5.1229,5.1229,0.0,0.0,5.1229,5.1229,5.1229,5.1229,5.1229,5.1229,5.1229,5.1229,5.1229,5.1229,5.1229,5.1229,5.1229,5.1229,5.1229,5.1229,5.1229,5.1229,5.1229,5.1229,5.1229,5.1229,5.1229,5.1229,5.1229,5.1229,5.0734,5.0315,5.0226,4.9793,4.9419,4.9329,4.9299,4.9299,4.9299,4.885,4.8386,4.8297,4.7818,4.7429,4.7309,4.7309,4.7309,4.7309,4.7752,4.8026,4.8075,4.8842,4.9384,4.9397,4.925,4.9492,5.0101,4.939,4.9018,4.9018,4.9018,4.9018,4.9018,4.9018,4.9018,4.9018,4.9018,4.9018,2.4545,2.5674,2.6572,2.6452,2.6806,2.6836,2.5585,2.4605,2.4007,2.4007,2.349,2.34,2.4747,2.6027,2.7705,0.0,0.0,3.8871,0.0,0.0,4.6711,4.906,0.0,5.0345,5.1139,5.1229,5.1229,5.1229,0.0,5.1229,5.1229,5.1229,5.1229,5.1229,5.1229,5.1229,5.1229,5.1229,5.1229,5.1229,5.1229,5.1229,5.1229,5.1229,5.1229,5.1229,0.0,5.1229,5.1229,5.1229,5.1229,5.1229,5.1229,5.1229,5.1229,5.1229,5.1229,5.1229,5.1229,5.1229,5.1229,5.1229,5.1229,5.1229,5.1229,5.1229,5.1229,5.1229,5.1229,5.1229,5.1229,5.1229,5.1229,5.1229,5.1139,5.0853,5.0315,5.0106,4.9912,4.9419,4.9299,4.9299,4.9299,4.9209,4.897,4.8386,4.8207,4.7938,4.7369,4.7309,4.7309,4.7309,4.788,4.8501,4.9171,5.0031,5.0838,5.1477,5.0651,5.0158,5.0101,4.939,4.9018,4.9018,4.9018,4.9018,4.9018,4.9018,4.9018,4.9018,4.9018,4.9018,2.4425,2.5585,2.6716,2.7046,2.7645,2.7979,2.735,2.6692,2.6123,2.5764,2.5435,2.5615,2.6961,0.0,3.118,3.5609,0.0,4.2252,4.4227,4.5873,4.7578,0.0,0.0,5.0435,5.1139,5.1229,5.1229,5.1229,0.0,0.0,5.1229,5.1229,5.1229,5.1229,5.1229,5.1229,5.1229,5.1229,5.1229,5.1229,5.1229,5.1229,5.1229,5.1229,5.1229,5.1229,0.0,5.1229,5.1229,5.1229,5.1229,5.1229,5.1229,5.1229,5.1229,5.1229,5.1229,5.1229,5.1229,5.1229,5.1229,5.1229,5.1229,5.1229,5.1229,5.1229,5.1229,5.1229,5.1229,5.1229,5.1229,5.1229,5.1229,5.1229,5.1229,5.1139,5.0794,5.0734,5.069,5.0391,5.0331,5.0331,5.0331,5.0032,4.9673,4.9374,4.9045,4.876,4.8416,4.8057,4.7848,4.7848,4.8219,4.8862,4.9923,5.0576,5.1164,5.1709,5.1358,5.0994,5.0615,5.0308,5.0202,5.0202,5.0202,4.9999,4.9593,4.9593,4.939,4.9018,4.9018,4.9018,2.4425,2.5352,2.6393,2.7555,2.8427,2.9086,2.9235,2.9116,2.8843,2.8308,2.8218,2.8577,2.9744,3.1719,0.0,3.9798,4.2312,4.4257,4.6082,4.716,4.8327,4.9823,5.0226,5.0614,5.1169,5.1229,5.1229,0.0,0.0,0.0,5.1229,5.1229,5.1229,5.1229,5.1229,5.1229,5.1229,5.1229,5.1229,5.1229,5.1229,5.1229,5.1229,5.1229,5.1229,5.1229,5.1229,5.1229,5.1229,5.1229,5.1229,5.1229,5.1229,5.1229,5.1229,5.1229,5.1229,5.1229,5.1229,5.1229,5.1229,5.1229,5.1229,5.1229,5.1229,5.1229,5.1229,5.1229,5.1229,5.1229,5.1229,5.1229,5.1229,5.1229,5.1229,5.1229,5.1229,5.1229,5.1229,5.1229,5.1229,5.1229,5.1229,5.0764,5.0375,5.0226,4.9868,4.9569,4.9464,4.9014,4.8623,4.8473,4.8767,4.9375,5.0467,5.1032,5.143,5.1685,5.1626,5.1429,5.1128,5.1156,5.1185,5.1185,5.1185,5.0913,5.0338,5.0168,4.9796,4.9255,4.9086,4.9018,2.4425,2.4664,2.5352,2.7889,2.9445,3.0522,3.1152,3.2228,3.3066,3.3006,3.3006,3.3215,3.3964,3.6148,3.8661,4.0935,4.297,4.4736,4.6142,0.0,4.9209,4.9359,5.0421,5.1169,5.1229,5.1229,0.0,0.0,0.0,0.0,5.1229,5.1229,5.1229,5.1229,5.1229,5.1229,5.1229,5.1229,5.1229,5.1229,5.1229,5.1229,5.1229,5.1229,5.1229,5.1229,5.1229,5.1229,5.1229,5.1229,5.1229,5.1229,5.1229,5.1229,5.1229,5.1229,5.1229,5.1229,5.1229,5.1229,5.1229,5.1229,5.1229,5.1229,5.1229,5.1229,5.1229,5.1229,5.1229,5.1229,5.1229,5.1229,5.1229,5.1229,5.1229,5.1229,5.1229,5.1229,5.1229,5.1229,5.1229,5.1229,5.1229,5.1169,5.093,5.0285,5.0365,5.0397,4.9984,4.9907,4.9664,4.9027,4.9535,5.0222,5.0978,5.1586,5.2059,5.2343,5.1404,5.1045,5.1458,5.1294,5.1185,5.1185,5.1185,5.1183,5.115,5.0439,5.0067,4.9999,4.9323,4.9018,2.4545,2.4605,2.5143,2.741,2.9235,3.1001,3.2916,3.4681,3.6058,3.6447,3.6896,3.7135,3.6956,0.0,4.0277,4.2282,4.3898,4.5544,4.7309,4.8177,4.8955,4.9793,5.0255,5.0734,5.1169,5.1229,0.0,0.0,0.0,0.0,5.1229,5.1229,5.1229,5.1229,5.1229,5.1229,5.1229,5.1229,5.1229,5.1229,5.1229,5.1229,5.1229,5.1229,5.1229,5.1229,5.1229,5.1229,5.1229,5.1229,5.1229,5.1229,5.1229,5.1229,5.1229,5.1229,5.1229,5.1229,5.1229,5.1229,5.1229,5.1229,5.1229,5.1229,5.1229,5.1229,5.1229,5.1229,5.1229,5.1229,5.1229,5.1229,5.1229,5.1229,5.1229,5.1229,5.1229,5.1229,5.1229,5.1229,5.1229,5.1229,5.1229,5.1229,5.1139,5.0853,5.1164,5.1501,5.1778,5.1498,5.1128,5.0851,5.1268,5.163,5.1771,5.2281,5.2485,5.2161,5.1759,5.1773,5.2363,5.2539,5.2638,5.2638,5.2638,5.2401,5.1894,5.1589,5.1217,5.0777,5.0507,5.0371,2.4874,2.4605,2.4814,2.7046,2.8933,3.1001,3.4113,3.6656,3.8601,3.9469,4.0008,4.0068,3.92,4.0127,0.0,0.0,4.4436,4.5933,4.7728,4.8147,4.8626,4.9523,4.9793,5.0122,5.0571,0.0,0.0,0.0,0.0,0.0,0.0,5.0601,5.0601,5.0601,5.081,5.0853,5.0853,5.1063,5.1229,5.1229,5.1229,5.1229,5.1229,5.1229,5.1229,5.1229,5.1229,5.1229,5.1229,5.1229,5.1229,5.1229,5.1229,5.1229,5.1229,5.1229,5.1229,5.1229,5.1229,5.1229,5.1229,5.1229,5.1229,5.1229,5.1229,5.1229,5.1229,5.1229,5.1229,5.1229,5.1229,5.1229,5.1229,5.1229,5.1229,5.1229,5.1229,5.1229,5.1229,5.1229,5.1229,5.1229,5.1229,5.1229,5.1229,5.1229,5.1665,5.2276,5.3064,5.2866,5.2621,5.2585,5.2681,5.2753,5.2829,5.3062,5.303,5.2672,5.2335,5.2378,5.2799,5.3246,5.3518,5.3518,5.3518,5.3247,5.2672,5.2435,5.2063,5.1555,5.1319,5.1185,2.5435,2.4657,2.4268,2.6956,2.8633,3.0672,3.4622,3.8063,4.0786,4.2171,4.244,4.2021,4.0666,4.1542,0.0,4.32,4.4436,4.5753,4.713,4.7878,4.8267,4.8297,4.891,4.9299,0.0,0.0,0.0,0.0,0.0,0.0,0.0,4.9299,4.9299,4.9299,4.9883,5.0196,5.0196,5.0853,5.1199,5.1229,5.1229,5.1229,5.1229,5.1229,5.1229,5.1229,5.1229,5.1229,5.1229,5.1229,5.1229,5.1229,5.1229,5.1229,5.1229,5.1229,5.1229,5.1229,5.1229,5.1229,5.1229,5.1229,5.1229,5.1229,5.1229,5.1229,5.1229,5.1229,5.1229,5.1229,5.1229,5.1229,5.1229,5.1229,5.1229,5.1229,5.1229,5.1229,5.1229,5.1229,5.1229,5.1229,5.1229,5.1229,5.1229,5.1229,5.1849,5.2637,5.3502,5.3911,5.4115,5.4043,5.3549,5.3518,5.4157,5.3904,5.383,5.3975,5.3131,5.2626,5.2626,5.3179,5.3518,5.3518,5.3518,5.3518,5.3518,5.2706,5.23,5.23,5.1589,5.1219,2.6266,2.6075,2.6333,2.8966,3.1001,3.3245,3.6746,3.9379,4.1863,4.4586,4.4766,4.4018,4.2701,4.2751,0.0,4.3928,4.4736,4.5753,4.713,4.7489,4.7758,4.8237,4.8446,0.0,0.0,0.0,0.0,0.0,0.0,0.0,0.0,4.9299,4.9299,4.9299,4.9464,4.9763,5.0196,5.0375,5.0704,5.1229,5.1229,5.1229,5.1229,5.1229,5.1229,5.1229,5.1229,5.1229,5.1229,5.1229,5.1229,5.1229,5.1229,5.1229,5.1229,5.1229,5.1229,5.1229,5.1229,5.1229,5.1229,5.1229,5.1229,5.1229,5.1229,5.1229,5.1229,5.1229,5.1229,5.1229,5.1229,5.1229,5.1229,5.1229,5.1229,5.1229,5.1229,5.1229,5.1229,5.1229,5.1229,5.1229,5.1229,5.1229,5.1229,5.1229,5.1987,5.3126,5.4675,5.5271,5.5578,5.5614,5.5431,5.5336,5.5397,5.5719,5.5471,5.4496,5.4157,5.3717,5.3041,5.3348,5.3518,5.3518,5.3518,5.3518,5.3518,5.3281,5.3145,5.3145,5.2942,5.2841,2.694,2.7344,2.8098,3.0971,3.3185,3.5759,3.9828,4.1893,4.3658,4.6202,4.6172,4.5394,4.4317,4.4067,0.0,4.4646,4.5274,4.6082,4.716,4.7309,4.7459,0.0,0.0,0.0,0.0,0.0,0.0,0.0,0.0,0.0,0.0,4.8476,4.8476,4.8476,4.8745,4.9075,4.9464,4.9733,5.0062,5.0451,5.0451,5.0571,5.0794,5.1109,5.1229,5.1229,5.1229,5.1229,5.1229,5.1229,5.1229,5.1229,5.1229,5.1229,5.1229,5.1229,5.1229,5.1229,5.1229,5.1229,5.1229,5.1229,5.1229,5.1229,5.1229,5.1229,5.1229,5.1229,5.1229,5.1229,5.1229,5.1229,5.1229,5.1229,5.1229,5.1229,5.1229,5.1229,5.1229,5.1229,5.1229,5.1229,5.1229,5.1229,5.1229,5.1229,5.2471,5.3934,5.5336,5.6106,5.6542,5.6685,5.6614,5.653,5.6575,5.6715,5.6427,5.5513,5.4905,5.4363,5.3787,5.3585,5.3518,5.3518,5.3518,5.3518,5.3518,5.3518,5.3518,5.3518,5.3518,5.3518,2.7446,2.8465,2.9592,3.2886,3.5342,3.8242,4.3269,4.4855,4.5663,4.704,0.0,4.619,4.5603,4.5484,4.5484,4.5484,4.5992,4.6621,4.7219,4.7309,0.0,0.0,0.0,0.0,0.0,0.0,0.0,0.0,0.0,0.0,0.0,4.7309,4.7309,4.7309,4.7878,4.8237,4.8297,4.891,4.9239,4.9299,4.9299,4.9613,5.0226,5.0794,5.1169,5.1229,5.1229,5.1229,5.1229,5.1229,5.1229,5.1229,5.1229,5.1229,5.1229,5.1229,5.1229,5.1229,5.1229,5.1229,5.1229,5.1229,5.1229,5.1229,5.1229,5.1229,5.1229,5.1229,5.1229,5.1229,5.1229,5.1229,5.1229,5.1229,5.1229,5.1229,5.1229,5.1229,5.1229,5.1229,5.1229,5.1229,5.1229,5.1229,5.1229,5.1293,5.3209,5.487,5.562,5.6492,5.7139,5.7327,5.7176,5.7214,5.7588,5.7164,5.6867,5.6799,5.5547,5.4769,5.4702,5.3923,5.3518,5.3518,5.3518,5.3518,5.3518,5.3518,5.3518,5.3518,5.3518,5.3518,2.7845,2.9439,3.1164,3.442,3.7807,4.1175,4.4347,4.5185,4.5663,4.704,4.7189,4.704,4.689,4.686,4.686,4.686,4.701,4.716,4.7279,0.0,0.0,0.0,0.0,0.0,0.0,0.0,0.0,0.0,0.0,0.0,4.7309,4.7309,4.7309,4.7309,4.7429,4.7758,4.8267,4.8416,4.879,0.0,4.9299,4.9613,5.0196,5.0345,5.0674,5.1229,5.1229,5.1229,5.1229,5.1229,5.1229,5.1229,5.1229,5.1229,5.1229,5.1229,5.1229,5.1229,5.1229,5.1229,5.1229,5.1229,5.1229,5.1229,5.1229,5.1229,5.1229,5.1229,5.1229,5.1229,5.1229,5.1229,5.1229,5.1229,5.1229,5.1229,5.1229,5.1229,5.1229,5.1229,5.1229,5.1229,5.1229,5.1229,5.1479,5.2261,5.3644,5.4911,5.5789,5.6954,5.7735,5.7772,5.7735,5.7735,5.7808,5.7746,5.7408,5.6833,5.6494,5.6089,5.5513,5.4194,5.3518,5.3518,5.3518,5.3518,5.3518,5.3518,5.3518,5.3518,5.3518,5.3518,2.817,3.0272,3.2663,3.7278,4.0651,4.315,4.4496,4.5065,4.5484,4.6202,4.686,4.7309,4.7309,4.7309,4.7309,4.7309,4.7309,4.7309,0.0,0.0,0.0,0.0,0.0,0.0,0.0,0.0,0.0,0.0,0.0,4.7309,4.7309,4.7309,4.7309,4.7309,4.7309,4.7459,4.7818,4.7818,4.7997,4.8327,4.8327,4.8835,4.9793,5.0421,5.0853,5.1229,5.1229,5.1229,5.1229,5.1229,5.1229,5.1229,5.1229,5.1229,5.1229,5.1229,5.1229,5.1229,5.1229,5.1229,5.1229,5.1229,5.1229,5.1229,5.1229,5.1229,5.1229,5.1229,5.1229,5.1229,5.1229,5.1229,5.1229,5.1229,5.1229,5.1229,5.1229,5.1293,5.1386,5.1526,5.1556,5.1556,5.1526,5.1339,5.1526,5.2532,5.3773,5.4952,5.5868,5.7105,5.7881,5.7881,5.7881,5.7881,5.7881,5.7881,5.7712,5.734,5.7002,5.663,5.6258,5.5175,5.4397,5.4025,5.4025,5.3856,5.3518,5.3518,5.3518,5.3518,5.3518,5.3518,2.8307,3.1218,3.4484,4.0004,4.2701,4.4047,4.4257,4.4736,4.5155,4.5274,4.6172,4.695,4.695,4.695,4.695,4.695,4.707,0.0,0.0,0.0,0.0,0.0,0.0,0.0,0.0,0.0,0.0,0.0,0.0,4.7309,4.7309,4.7309,4.7309,4.7309,4.7309,4.7309,4.7309,4.7309,4.7309,4.7309,4.7549,4.8207,4.9359,5.0631,5.1229,5.1229,5.1229,5.1229,5.1229,5.1229,5.1229,5.1229,5.1229,5.1229,5.1229,5.1229,5.1229,5.1229,5.1229,5.1229,5.1229,5.1229,5.1229,5.1229,5.1229,5.1229,5.1276,5.1323,5.1323,5.1369,5.1293,5.1323,5.1369,5.1293,5.1323,5.1323,5.1229,5.1433,5.1757,5.2002,5.2124,5.2109,5.1987,5.1526,5.1526,5.2532,5.3773,5.4952,5.5868,5.7105,5.7881,5.7881,5.7881,5.7881,5.7881,5.7881,5.7881,5.7881,5.734,5.7002,5.7002,5.6393,5.575,5.4972,5.4735,5.4296,5.3687,5.3551,5.3518,5.3518,5.3518,5.3518,2.7749,3.2652,3.7386,4.0611,4.2051,4.295,4.4047,0.0,4.4616,0.0,4.5424,4.5574,4.5574,4.5574,4.5574,0.0,0.0,0.0,0.0,0.0,0.0,0.0,0.0,0.0,0.0,0.0,0.0,0.0,4.7309,4.7309,4.7309,4.7309,4.7309,4.7309,4.7309,4.7309,4.7309,4.7309,4.7309,4.7309,4.8446,4.9149,4.9359,5.0631,5.1229,5.1229,5.1229,5.1229,5.1229,5.1229,5.1229,5.1229,5.1229,5.1229,5.1229,5.1229,5.1229,5.1229,5.1229,5.1229,5.1229,5.1229,5.1229,5.1229,5.1229,5.1369,5.1572,5.1757,5.188,5.188,5.1803,5.188,5.188,5.1803,5.188,5.1741,5.1323,5.1526,5.2048,5.2664,5.2798,5.2664,5.2276,5.1665,5.1526,5.2532,5.3773,5.4952,5.5868,5.7105,5.7881,5.7881,5.7881,5.7881,5.7881,5.7881,5.7881,5.7881,5.7814,5.7746,5.7746,5.7645,5.7273,5.6528,5.5243,5.4532,5.4431,5.3822,5.3518,5.3518,5.3518,5.3518,2.9217,3.3678,3.758,4.016,4.1632,4.256,4.3129,4.3509,4.3798,4.4137,4.4197,4.4436,4.5155,4.5304,0.0,0.0,0.0,0.0,0.0,0.0,0.0,0.0,0.0,0.0,0.0,0.0,0.0,0.0,4.7309,4.7309,4.7309,4.7309,4.7309,4.7309,4.7309,4.7309,4.7309,4.7309,4.7309,4.7309,4.8267,4.876,4.8745,5.0062,5.0823,5.1229,5.1229,5.1229,5.1229,5.1229,5.1229,5.1229,5.1229,5.1229,5.1229,5.1229,5.1229,5.1229,5.1229,5.1229,5.1229,5.1229,5.1229,5.1229,5.1229,5.1479,5.1865,5.2336,5.2502,5.2532,5.2471,5.2502,5.2532,5.2471,5.2502,5.2487,5.22,5.223,5.2577,5.3434,5.3632,5.3502,5.2962,5.2139,5.1895,5.2757,5.3891,5.4952,5.5868,5.7105,5.7881,5.7881,5.7881,5.7881,5.7881,5.7881,5.7881,5.7881,5.7881,5.7881,5.7881,5.7881,5.7746,5.7408,5.6359,5.5412,5.46,5.4262,5.389,5.3518,5.3518,5.3518,2.978,3.336,3.6383,3.875,4.0347,4.1363,0.0,0.0,4.292,0.0,4.317,4.3589,0.0,0.0,0.0,0.0,0.0,0.0,0.0,0.0,0.0,0.0,0.0,0.0,0.0,0.0,0.0,0.0,4.7309,4.7309,4.7309,4.7309,4.7309,4.7309,4.7309,4.7309,4.7309,4.7309,4.7309,4.7309,4.7967,4.8297,4.8327,4.9643,5.0465,5.099,5.1139,5.1229,5.1229,5.1229,5.1229,5.1229,5.1229,5.1229,5.1229,5.1229,5.1229,5.1229,5.1229,5.1229,5.1229,5.1229,5.1229,5.1229,5.1229,5.1526,5.2079,5.274,5.3007,5.3082,5.3095,5.3139,5.317,5.3139,5.3082,5.3069,5.3064,5.3139,5.3434,5.4242,5.4601,5.4569,5.3848,5.2874,5.2411,5.3069,5.4019,5.4952,5.5868,5.7105,5.7881,5.7881,5.7881,5.7881,5.7881,5.7881,5.7881,5.7881,5.7881,5.7881,5.7881,5.7881,5.7881,5.7881,5.734,5.6359,5.4871,5.4668,5.4228,5.3518,5.3518,5.3518,2.8051,3.0909,3.3885,3.6015,3.7447,3.8625,0.0,0.0,0.0,0.0,4.291,0.0,0.0,0.0,0.0,0.0,0.0,0.0,0.0,0.0,0.0,0.0,0.0,0.0,0.0,0.0,0.0,0.0,4.7309,4.7309,4.7309,4.7309,4.7309,4.7309,4.7309,4.7309,4.7309,4.7309,4.7309,4.7309,4.7967,4.8297,4.8327,4.9643,5.0226,5.0285,5.0913,5.1229,5.1229,5.1229,5.1229,5.1229,5.1229,5.1229,5.1229,5.1229,5.1229,5.1229,5.1229,5.1229,5.1229,5.1229,5.1229,5.1229,5.1229,5.1556,5.2109,5.2802,5.3201,5.3421,5.3596,5.3683,5.364,5.3683,5.3365,5.3188,5.3552,5.4105,5.4662,5.5213,5.5756,5.585,5.5067,5.3773,5.302,5.3596,5.419,5.4952,5.5868,5.7105,5.7881,5.7881,5.7881,5.7881,5.7881,5.7881,5.7881,5.7881,5.7881,5.7881,5.7881,5.7881,5.7881,5.7881,5.7848,5.7103,5.5649,5.4938,5.4228,5.3518,5.3518,5.3518,2.6801,2.8672,3.0728,3.2966,3.4711,3.6137,3.7262,3.9066,4.0637,4.104,0.0,0.0,0.0,0.0,0.0,0.0,0.0,0.0,0.0,0.0,0.0,0.0,0.0,0.0,0.0,0.0,0.0,0.0,0.0,4.6681,4.6681,4.707,4.7309,4.7309,4.7309,4.7309,4.7309,4.7309,4.7309,4.7309,4.7549,4.7668,4.7698,4.9015,4.9613,4.9673,5.075,5.1229,5.1229,5.1229,5.1229,5.1229,5.1229,5.1229,5.1229,5.1229,5.1229,5.1229,5.1229,5.1229,5.1229,5.1229,5.1229,5.1229,5.1229,5.1526,5.2079,5.274,5.3258,5.3726,5.4147,5.4338,5.4316,5.406,5.3434,5.3007,5.3201,5.375,5.4401,5.509,5.5789,5.6074,5.5507,5.4527,5.3848,5.4082,5.4433,5.4975,5.5701,5.6801,5.7551,5.7698,5.7808,5.7881,5.7881,5.7881,5.7881,5.7881,5.7881,5.7881,5.7881,5.7881,5.7881,5.7881,5.7881,5.7408,5.6427,5.6156,5.5649,5.4938,5.4938,5.4938,2.5375,2.6652,2.807,0.0,3.1722,3.3478,3.4442,0.0,3.8983,3.9787,0.0,0.0,0.0,0.0,0.0,0.0,0.0,0.0,0.0,0.0,0.0,0.0,0.0,0.0,0.0,0.0,0.0,0.0,0.0,0.0,4.6279,4.6741,4.707,4.7309,4.7309,4.7309,4.7309,4.7309,4.7309,4.7309,4.7309,4.7309,4.7369,4.87,4.9299,4.9389,5.0661,5.1229,5.1229,5.1229,5.1229,5.1229,5.1229,5.1229,5.1229,5.1229,5.1229,5.1229,5.1229,5.1229,5.1229,5.1229,5.1229,5.1229,5.1229,5.1479,5.1941,5.2516,5.3095,5.3738,5.4443,5.4842,5.4864,5.4231,5.3521,5.2918,5.2891,5.3271,5.3848,5.4675,5.5628,5.6185,5.5941,5.5353,5.4902,5.4842,5.4726,5.4893,5.5499,5.6381,5.7067,5.7364,5.7698,5.7881,5.7881,5.7881,5.7881,5.7881,5.7881,5.7881,5.7881,5.7881,5.7881,5.7881,5.7881,5.7645,5.7171,5.6934,5.6427,5.5681,5.5681,5.5681,0.0,0.0,0.0,0.0,0.0,0.0,3.1316,0.0,3.6845,0.0,0.0,0.0,0.0,0.0,0.0,0.0,0.0,0.0,0.0,0.0,0.0,0.0,0.0,0.0,0.0,0.0,0.0,0.0,4.5244,4.5544,4.619,4.6249,4.6621,4.7279,4.7309,4.7309,4.7309,4.7309,4.7309,4.7309,4.7309,4.7309,4.7369,4.87,4.9299,4.9389,5.0661,5.1229,5.1229,5.1229,5.1229,5.1229,5.1229,5.1229,5.1229,5.1229,5.1229,5.1229,5.1229,5.1229,5.1229,5.1229,5.1229,5.1229,5.1229,5.1386,5.1665,5.2124,5.2802,5.3596,5.4507,5.5049,5.5205,5.4327,5.3552,5.2935,5.2743,5.2815,5.3165,5.4105,5.532,5.6237,5.6264,5.6237,5.608,5.5741,5.5108,5.4787,5.5328,5.5876,5.6393,5.6949,5.7514,5.7881,5.7881,5.7881,5.7881,5.7881,5.7881,5.7881,5.7881,5.7881,5.7881,5.7881,5.7881,5.7881,5.7881,5.7171,5.6461,5.5749,5.5749,5.5749,2.2752,0.0,0.0,0.0,0.0,0.0,0.0,0.0,0.0,0.0,0.0,0.0,0.0,0.0,0.0,0.0,0.0,0.0,0.0,0.0,0.0,0.0,0.0,0.0,0.0,0.0,0.0,0.0,4.4317,4.4676,4.4855,4.5741,4.6621,4.7279,4.7309,4.7309,4.7309,4.7309,4.7309,4.7309,4.7309,4.7309,4.7369,4.87,4.9299,4.9389,5.0661,5.1229,5.1229,5.1229,5.1229,5.1229,5.1229,5.1229,5.1229,5.1229,5.1229,5.1229,5.1229,5.1229,5.1229,5.1229,5.1229,5.1229,5.1229,5.1276,5.1369,5.1479,5.217,5.3246,5.48,5.5588,5.5763,5.4934,5.3805,5.2918,5.2935,5.2918,5.3152,5.3997,5.509,5.5941,5.6132,5.6218,5.6224,5.6013,5.5531,5.5213,5.5369,5.5661,5.602,5.6525,5.7101,5.7514,5.7662,5.7808,5.7881,5.7881,5.7881,5.7881,5.7881,5.7881,5.7881,5.7881,5.7881,5.7881,5.7881,5.7679,5.7476,5.7273,5.7273,5.7273,2.3207,2.3207,2.3241,0.0,0.0,0.0,0.0,2.8935,0.0,0.0,0.0,0.0,0.0,0.0,0.0,0.0,0.0,0.0,0.0,0.0,0.0,0.0,0.0,0.0,0.0,4.329,4.329,4.329,4.3648,4.4018,4.4317,4.5603,4.6501,4.689,4.716,4.7309,4.7309,4.7309,4.7309,4.7309,4.7309,4.7309,4.7369,4.87,4.9299,4.9389,5.0661,5.1229,5.1229,5.1229,5.1229,5.1229,5.1229,5.1229,5.1229,5.1229,5.1229,5.1229,5.1229,5.1229,5.1229,5.1229,5.1229,5.1229,5.1229,5.1229,5.1229,5.1229,5.2185,5.3533,5.48,5.5547,5.5836,5.5181,5.4136,5.3227,5.329,5.3258,5.3359,5.3856,5.4675,5.5345,5.5733,5.6027,5.6231,5.6211,5.5941,5.5668,5.5572,5.5345,5.5426,5.5934,5.6531,5.6958,5.7327,5.7698,5.7881,5.7881,5.7881,5.7881,5.7881,5.7881,5.7881,5.7881,5.7881,5.7881,5.7881,5.7881,5.7881,5.7881,5.7881,5.7881,2.4745,2.4745,2.4575,0.0,0.0,0.0,2.5287,2.7856,3.0854,0.0,0.0,0.0,0.0,0.0,0.0,0.0,0.0,0.0,0.0,0.0,0.0,0.0,0.0,0.0,4.329,4.329,4.329,4.329,4.329,4.3589,4.4287,4.5454,4.613,4.6279,4.689,4.7219,4.7309,4.7309,4.7309,4.7309,4.7309,4.7309,4.7369,4.87,4.9299,4.9389,5.0661,5.1229,5.1229,5.1229,5.1229,5.1229,5.1229,5.1229,5.1229,5.1229,5.1229,5.1229,5.1229,5.1229,5.1229,5.1229,5.1229,5.1229,5.1229,5.1229,5.1229,5.1276,5.2516,5.3976,5.4475,5.5058,5.5499,5.5122,5.4412,5.3813,5.3813,5.3813,5.3813,5.3813,5.4264,5.4819,5.5369,5.5876,5.6237,5.6342,5.627,5.608,5.5741,5.5067,5.4819,5.5369,5.5915,5.6432,5.6987,5.7551,5.7881,5.7881,5.7881,5.7881,5.7881,5.7881,5.7881,5.7881,5.7881,5.7881,5.7881,5.7881,5.7881,5.7881,5.7881,5.7881,2.6251,2.6251,2.6082,2.5372,0.0,0.0,2.4261,2.5942,2.8003,0.0,0.0,0.0,0.0,0.0,0.0,0.0,0.0,0.0,0.0,0.0,0.0,0.0,0.0,0.0,4.329,4.329,4.329,4.329,4.329,4.3589,4.4287,4.4556,4.5185,4.6249,4.6441,4.677,4.7309,4.7309,4.7309,4.7309,4.7309,4.7309,4.7369,4.87,4.9299,4.9389,5.0661,5.1229,5.1229,5.1229,5.1229,5.1229,5.1229,5.1229,5.1229,5.1229,5.1229,5.1229,5.1229,5.1229,5.1229,5.1229,5.1229,5.1229,5.1229,5.1229,5.1276,5.1695,5.2457,5.3209,5.3719,5.4327,5.4787,5.4768,5.4569,5.4443,5.4571,5.4507,5.4443,5.4571,5.4697,5.4957,5.5531,5.602,5.6342,5.6603,5.6453,5.6146,5.5741,5.5164,5.4998,5.5572,5.6027,5.6536,5.7176,5.7662,5.7881,5.7881,5.7881,5.7881,5.7881,5.7881,5.7881,5.7881,5.7881,5.7881,5.7881,5.7881,5.7881,5.7881,5.7881,5.7881,2.8924,2.8687,2.8112,2.6979,0.0,0.0,0.0,0.0,0.0,0.0,0.0,0.0,0.0,0.0,0.0,0.0,0.0,0.0,0.0,0.0,0.0,0.0,0.0,0.0,4.2372,4.2641,4.3,4.326,4.329,4.3439,4.3768,4.4137,4.4616,4.5304,4.592,4.6429,4.68,4.713,4.7309,4.7309,4.7309,4.7309,4.7369,4.87,4.9299,4.9389,5.0661,5.1229,5.1229,5.1229,5.1229,5.1229,5.1229,5.1229,5.1229,5.1229,5.1229,5.1229,5.1229,5.1229,5.1229,5.1229,5.1229,5.1229,5.1229,5.1229,5.1276,5.1695,5.2185,5.2695,5.3051,5.3545,5.4019,5.4338,5.4517,5.4694,5.4906,5.4998,5.4975,5.4948,5.4854,5.4948,5.545,5.5948,5.6309,5.6492,5.6381,5.6113,5.5741,5.5131,5.4925,5.5491,5.5988,5.6465,5.7101,5.7625,5.7881,5.7881,5.7881,5.7881,5.7881,5.7881,5.7881,5.7881,5.7881,5.7881,5.7881,5.7881,5.7881,5.7881,5.7881,5.7881,0.0,0.0,0.0,0.0,0.0,2.7498,0.0,0.0,0.0,0.0,0.0,0.0,0.0,0.0,0.0,0.0,0.0,0.0,0.0,0.0,0.0,0.0,0.0,0.0,0.0,4.167,4.2192,4.2692,4.2841,4.2961,4.315,4.3778,4.4197,4.4317,4.5484,4.6202,4.6279,4.698,4.7309,4.7309,4.7309,4.7309,4.7369,4.87,4.9299,4.9389,5.0661,5.1229,5.1229,5.1229,5.1229,5.1229,5.1229,5.1229,5.1229,5.1229,5.1229,5.1229,5.1229,5.1229,5.1229,5.1229,5.1229,5.1229,5.1229,5.1229,5.1276,5.1433,5.1803,5.2124,5.2352,5.2637,5.3051,5.3683,5.4253,5.4768,5.5081,5.5369,5.5458,5.5278,5.4989,5.4906,5.5369,5.5876,5.6237,5.6303,5.6192,5.5962,5.5661,5.5026,5.4861,5.545,5.5995,5.6581,5.7063,5.7588,5.7881,5.7881,5.7881,5.7881,5.7881,5.7881,5.7881,5.7881,5.7881,5.7881,5.7881,5.7881,5.7881,5.7881,5.7881,5.7881,0.0,0.0,0.0,0.0,2.9837,0.0,0.0,0.0,0.0,0.0,0.0,0.0,0.0,0.0,0.0,0.0,0.0,0.0,0.0,0.0,0.0,0.0,0.0,0.0,0.0,4.0431,4.0666,4.0726,4.1265,4.1901,4.247,4.309,4.3678,4.4287,4.5035,4.5693,4.6279,4.698,4.7309,4.7309,4.7309,4.7309,4.7369,4.87,4.9299,4.9389,5.0661,5.1229,5.1229,5.1229,5.1229,5.1229,5.1229,5.1229,5.1229,5.1229,5.1229,5.1229,5.1229,5.1229,5.1229,5.1229,5.1229,5.1229,5.1229,5.1229,5.1229,5.1229,5.1246,5.1339,5.1339,5.1386,5.1665,5.2622,5.3762,5.4746,5.5287,5.5789,5.6001,5.5701,5.5067,5.4828,5.5539,5.5988,5.6303,5.6369,5.5988,5.5636,5.545,5.5008,5.5017,5.5861,5.6531,5.7067,5.7514,5.7772,5.7881,5.7881,5.7881,5.7881,5.7881,5.7881,5.7881,5.7881,5.7881,5.7881,5.7881,5.7881,5.7881,5.7881,5.7881,5.7881,0.0,0.0,0.0,0.0,0.0,0.0,2.6759,0.0,2.7249,0.0,0.0,0.0,0.0,0.0,0.0,0.0,0.0,0.0,0.0,0.0,0.0,0.0,0.0,0.0,0.0,0.0,0.0,0.0,3.9499,4.0277,4.1752,4.2402,4.306,4.3678,4.4766,4.5424,4.5723,4.677,4.7309,4.7309,4.7309,4.7309,4.7369,4.87,4.9299,4.9389,5.0661,5.1229,5.1229,5.1229,5.1229,5.1229,5.1229,5.1229,5.1229,5.1229,5.1229,5.1229,5.1229,5.1229,5.1229,5.1229,5.1229,5.1229,5.1229,5.1229,5.1229,5.1229,5.1229,5.1229,5.1229,5.1229,5.1386,5.2261,5.3371,5.4401,5.4883,5.5466,5.5829,5.5612,5.509,5.4842,5.5287,5.5868,5.6192,5.6053,5.5434,5.5026,5.5072,5.481,5.4985,5.5901,5.6915,5.7588,5.7772,5.7845,5.7881,5.7881,5.7881,5.7881,5.7881,5.7881,5.7881,5.7881,5.7881,5.7881,5.7881,5.7881,5.7881,5.7881,5.7881,5.7881,3.8059,0.0,0.0,0.0,0.0,0.0,0.0,0.0,0.0,0.0,0.0,0.0,0.0,0.0,0.0,0.0,0.0,0.0,0.0,0.0,0.0,0.0,0.0,0.0,0.0,0.0,0.0,0.0,0.0,3.8482,4.0457,4.1572,4.2402,4.303,4.4496,4.5304,4.5304,4.6621,4.7309,4.7309,4.7309,4.7309,4.7369,4.87,4.9299,4.9389,5.0661,5.1229,5.1229,5.1229,5.1229,5.1229,5.1229,5.1229,5.1229,5.1229,5.1229,5.1229,5.1229,5.1229,5.1229,5.1229,5.1229,5.1229,5.1229,5.1229,5.1229,5.1229,5.1229,5.1229,5.1229,5.1229,5.1369,5.2033,5.2962,5.3848,5.4306,5.4934,5.5345,5.5213,5.4957,5.479,5.4989,5.5588,5.5955,5.5661,5.5026,5.4694,5.4948,5.4851,5.5158,5.61,5.7218,5.7881,5.7881,5.7881,5.7881,5.7881,5.7881,5.7881,5.7881,5.7881,5.7881,5.7881,5.7881,5.7881,5.7881,5.7881,5.7881,5.7881,5.7881,5.7881,0.0,0.0,0.0,3.3992,0.0,0.0,0.0,0.0,2.8027,0.0,0.0,0.0,0.0,0.0,0.0,0.0,0.0,0.0,0.0,0.0,0.0,0.0,0.0,0.0,0.0,0.0,0.0,0.0,3.5284,0.0,3.8392,4.0337,4.1752,4.241,4.4287,4.5304,4.5304,4.6621,4.7309,4.7309,4.7309,4.7309,4.7369,4.87,4.9299,4.9389,5.0661,5.1229,5.1229,5.1229,5.1229,5.1229,5.1229,5.1229,5.1229,5.1229,5.1229,5.1229,5.1229,5.1229,5.1229,5.1229,5.1229,5.1229,5.1229,5.1229,5.1229,5.1229,5.1229,5.1229,5.1229,5.1229,5.1323,5.1803,5.2426,5.3077,5.3514,5.4158,5.4662,5.4726,5.4653,5.4653,5.4781,5.5287,5.5653,5.545,5.5008,5.4883,5.5328,5.5304,5.5636,5.6603,5.7402,5.7881,5.7881,5.7881,5.7881,5.7881,5.7881,5.7881,5.7881,5.7881,5.7881,5.7881,5.7881,5.7881,5.7881,5.7881,5.7881,5.7881,5.7881,5.7881,0.0,0.0,3.8547,3.6515,0.0,0.0,0.0,0.0,0.0,0.0,0.0,0.0,0.0,0.0,0.0,0.0,0.0,0.0,0.0,0.0,0.0,0.0,0.0,0.0,0.0,0.0,0.0,0.0,3.2645,0.0,3.6357,3.8781,4.0576,4.1722,4.4047,4.5304,4.5304,4.6621,4.7309,4.7309,4.7309,4.7309,4.7369,4.87,4.9299,4.9389,5.0661,5.1229,5.1229,5.1229,5.1229,5.1229,5.1229,5.1229,5.1229,5.1229,5.1229,5.1229,5.1229,5.1229,5.1229,5.1229,5.1229,5.1229,5.1229,5.1229,5.1319,5.1738,5.1858,5.1977,5.2396,5.2187,5.1952,5.2265,5.2429,5.2592,5.2949,5.3403,5.3848,5.421,5.4507,5.4726,5.4948,5.5246,5.5369,5.5031,5.4768,5.4819,5.5328,5.5676,5.6119,5.6834,5.7514,5.7881,5.7881,5.7881,5.7881,5.7881,5.7881,5.7881,5.7881,5.7881,5.7881,5.7881,5.7881,5.7881,5.7881,5.7881,5.7881,5.7881,5.7881,5.7881,4.217,4.1541,0.0,3.8699,3.7328,0.0,3.2988,0.0,0.0,0.0,0.0,0.0,0.0,0.0,0.0,0.0,0.0,0.0,0.0,0.0,0.0,0.0,0.0,0.0,0.0,0.0,3.0291,3.0913,3.094,0.0,0.0,0.0,3.9409,4.0965,4.3808,4.5304,4.5304,4.6621,4.7309,4.7309,4.7309,4.7309,4.7369,4.87,4.9299,4.9389,5.0661,5.1229,5.1229,5.1229,5.1229,5.1229,5.1229,5.1229,5.1229,5.1229,5.1229,5.1229,5.1229,5.1229,5.1229,5.1229,5.1229,5.1229,5.1229,5.1229,5.1349,5.2007,5.2187,5.2336,5.3025,5.2695,5.2264,5.2407,5.2178,5.1941,5.2124,5.2366,5.2771,5.3465,5.4179,5.4768,5.5122,5.5458,5.558,5.5196,5.5008,5.5108,5.5774,5.6224,5.6658,5.7176,5.7625,5.7881,5.7881,5.7881,5.7881,5.7881,5.7881,5.7881,5.7881,5.7881,5.7881,5.7881,5.7881,5.7881,5.7881,5.7881,5.7881,5.7881,5.7881,5.7881]}]]